[[{"header":{"parameterUnit":"m.s-1","parameterCategory":1,"la1":30.6,"la2":29.2853,"lo1":-89.7004,"lo2":-87.6739,"dy":0.0162,"dx":0.0183,"nx":112,"ny":82,"refTime":"2023-06-01T06:00:00:Z","depth":0,"parameterNumber":2,"parameterNumberName":"U-component_of_WINDS"},"data":[0.0,0.0,0.0,0.0,0.0,0.0,0.0,0.0,0.0,0.0,0.0,0.0,0.0,0.0,0.0,0.0,0.0,0.0,0.0,0.0,0.0,0.0,0.0,0.0,0.0,0.0,0.0,0.0,0.0,0.0,0.0,0.0,0.0,0.0,0.0,0.0,0.0,0.0,0.0,0.0,0.0,0.0,0.0,0.0,0.0,0.0,0.0,0.0,0.0,0.0,0.0,0.0,0.0,0.0,0.0,0.0,0.0,0.0,0.0,0.0,0.0,0.0,0.0,0.0,0.0,0.0,0.0,0.0,0.0,0.0,0.0,0.0,0.0,0.0,0.0,0.0,0.0,0.0,0.0,0.0,0.0,0.0,0.0,0.0,0.0,0.0,0.0,0.0,0.0,0.0,3.0267,3.0447,3.1767,3.2607,3.2509,3.1532,2.9802,2.7233,0.0,0.0,0.0,0.0,0.0,0.0,0.0,0.0,0.0,0.0,0.0,0.0,0.0,0.0,0.0,0.0,0.0,0.0,0.0,0.0,0.0,0.0,0.0,0.0,0.0,0.0,0.0,0.0,0.0,0.0,0.0,0.0,0.0,0.0,0.0,0.0,0.0,0.0,0.0,0.0,0.0,0.0,0.0,0.0,0.0,0.0,0.0,0.0,0.0,0.0,0.0,0.0,0.0,0.0,0.0,0.0,0.0,0.0,0.0,0.0,0.0,0.0,0.0,0.0,0.0,0.0,0.0,0.0,0.0,0.0,0.0,0.0,0.0,0.0,0.0,0.0,0.0,0.0,0.0,0.0,0.0,0.0,0.0,0.0,0.0,0.0,0.0,0.0,0.0,0.0,0.0,0.0,0.0,0.0,0.0,0.0,0.0,0.0,0.0,0.0,0.0,0.0,0.0,0.0,3.0381,3.2399,3.3251,3.3355,3.2578,3.1509,3.0022,2.7964,0.0,0.0,0.0,0.0,0.0,0.0,0.0,0.0,0.0,0.0,0.0,0.0,0.0,0.0,0.0,0.0,0.0,0.0,0.0,0.0,0.0,0.0,0.0,0.0,0.0,0.0,0.0,0.0,0.0,0.0,0.0,0.0,0.0,0.0,0.0,0.0,0.0,0.0,0.0,0.0,0.0,0.0,0.0,0.0,0.0,0.0,0.0,0.0,0.0,0.0,0.0,0.0,0.0,0.0,0.0,0.0,0.0,0.0,0.0,0.0,0.0,0.0,0.0,0.0,0.0,0.0,0.0,0.0,0.0,0.0,0.0,0.0,0.0,0.0,0.0,0.0,0.0,0.0,0.0,0.0,0.0,0.0,0.0,0.0,0.0,0.0,0.0,0.0,0.0,0.0,0.0,0.0,0.0,0.0,0.0,0.0,0.0,0.0,0.0,0.0,0.0,0.0,0.0,3.0081,3.1289,3.3889,3.3602,3.3143,3.2942,3.145,2.9685,2.7686,2.7243,0.0,0.0,0.0,0.0,0.0,0.0,0.0,0.0,0.0,0.0,0.0,0.0,0.0,0.0,0.0,0.0,0.0,0.0,0.0,0.0,0.0,0.0,0.0,0.0,0.0,0.0,0.0,0.0,0.0,0.0,0.0,0.0,0.0,0.0,0.0,0.0,0.0,0.0,0.0,0.0,0.0,0.0,0.0,0.0,0.0,0.0,0.0,0.0,0.0,0.0,0.0,0.0,0.0,0.0,0.0,0.0,0.0,0.0,0.0,0.0,0.0,0.0,0.0,0.0,0.0,0.0,0.0,0.0,0.0,0.0,0.0,0.0,0.0,0.0,0.0,0.0,0.0,0.0,0.0,0.0,0.0,0.0,0.0,0.0,0.0,0.0,0.0,0.0,0.0,0.0,0.0,0.0,0.0,0.0,0.0,0.0,0.0,0.0,0.0,0.0,0.0,0.0,3.1802,3.2726,3.4882,3.3895,3.3122,3.3187,3.1375,2.9393,2.7522,2.7275,0.0,0.0,0.0,0.0,0.0,0.0,0.0,0.0,0.0,0.0,0.0,0.0,0.0,0.0,0.0,0.0,0.0,0.0,0.0,0.0,0.0,0.0,0.0,0.0,0.0,0.0,0.0,0.0,0.0,0.0,0.0,0.0,0.0,0.0,0.0,0.0,0.0,0.0,0.0,0.0,0.0,0.0,0.0,0.0,0.0,0.0,0.0,0.0,0.0,0.0,0.0,0.0,0.0,0.0,0.0,0.0,0.0,0.0,0.0,0.0,0.0,0.0,0.0,0.0,0.0,0.0,0.0,0.0,0.0,0.0,0.0,0.0,0.0,0.0,0.0,0.0,0.0,0.0,0.0,0.0,0.0,0.0,0.0,0.0,0.0,0.0,0.0,0.0,0.0,0.0,0.0,0.0,0.0,0.0,0.0,0.0,0.0,0.0,0.0,0.0,0.0,0.0,3.3025,3.4882,3.5085,3.4622,3.3904,3.3004,3.1249,2.9554,2.8027,2.7534,0.0,0.0,0.0,0.0,0.0,0.0,0.0,0.0,0.0,0.0,0.0,0.0,0.0,0.0,0.0,0.0,0.0,0.0,0.0,0.0,0.0,0.0,0.0,0.0,0.0,0.0,0.0,0.0,0.0,0.0,0.0,0.0,0.0,0.0,0.0,0.0,0.0,0.0,0.0,0.0,0.0,0.0,0.0,0.0,0.0,0.0,0.0,0.0,0.0,0.0,0.0,0.0,0.0,0.0,0.0,0.0,0.0,0.0,0.0,0.0,0.0,0.0,0.0,0.0,0.0,0.0,0.0,0.0,0.0,0.0,0.0,0.0,0.0,0.0,0.0,0.0,0.0,0.0,0.0,0.0,0.0,0.0,0.0,0.0,0.0,0.0,0.0,0.0,0.0,0.0,0.0,0.0,0.0,0.0,0.0,0.0,0.0,0.0,0.0,0.0,0.0,0.0,3.2606,3.4071,3.5443,3.469,3.39,3.3434,3.1693,3.0011,2.8522,0.0,0.0,0.0,0.0,0.0,0.0,0.0,0.0,0.0,0.0,0.0,0.0,0.0,0.0,0.0,0.0,0.0,0.0,0.0,0.0,0.0,0.0,0.0,0.0,0.0,0.0,0.0,0.0,0.0,0.0,0.0,0.0,0.0,0.0,0.0,0.0,0.0,0.0,0.0,0.0,0.0,0.0,0.0,0.0,0.0,0.0,0.0,0.0,0.0,0.0,0.0,0.0,0.0,0.0,0.0,0.0,0.0,0.0,0.0,0.0,0.0,0.0,0.0,0.0,0.0,0.0,0.0,0.0,0.0,0.0,0.0,0.0,0.0,0.0,0.0,0.0,0.0,0.0,0.0,0.0,0.0,0.0,0.0,0.0,0.0,0.0,0.0,0.0,0.0,0.0,0.0,0.0,0.0,0.0,0.0,0.0,0.0,0.0,0.0,0.0,0.0,0.0,3.1619,3.3047,3.44,3.5773,3.4799,3.3978,3.372,3.1855,3.0191,2.8946,0.0,0.0,0.0,0.0,0.0,0.0,0.0,0.0,0.0,0.0,0.0,0.0,0.0,0.0,0.0,0.0,0.0,0.0,0.0,0.0,0.0,0.0,0.0,0.0,0.0,0.0,0.0,0.0,0.0,0.0,0.0,0.0,0.0,0.0,0.0,0.0,0.0,0.0,0.0,0.0,0.0,0.0,0.0,0.0,0.0,0.0,0.0,0.0,0.0,0.0,0.0,0.0,0.0,0.0,0.0,0.0,0.0,0.0,0.0,0.0,0.0,0.0,0.0,0.0,0.0,0.0,0.0,0.0,0.0,0.0,0.0,0.0,0.0,0.0,0.0,0.0,0.0,0.0,0.0,0.0,0.0,0.0,0.0,0.0,0.0,0.0,0.0,0.0,0.0,0.0,0.0,0.0,0.0,0.0,0.0,0.0,0.0,0.0,0.0,0.0,0.0,0.0,3.1919,3.4676,3.6483,3.5953,3.5014,3.4219,3.3744,3.1618,2.9998,0.0,0.0,0.0,0.0,0.0,0.0,0.0,0.0,0.0,0.0,0.0,0.0,0.0,0.0,0.0,0.0,0.0,0.0,0.0,0.0,0.0,0.0,0.0,0.0,0.0,0.0,0.0,0.0,0.0,0.0,0.0,0.0,0.0,0.0,0.0,0.0,0.0,0.0,0.0,0.0,0.0,0.0,0.0,0.0,0.0,0.0,0.0,0.0,0.0,0.0,0.0,0.0,0.0,0.0,0.0,0.0,0.0,0.0,0.0,0.0,0.0,0.0,0.0,0.0,0.0,0.0,0.0,0.0,0.0,0.0,0.0,0.0,0.0,0.0,0.0,0.0,0.0,0.0,0.0,0.0,0.0,0.0,0.0,0.0,0.0,0.0,0.0,0.0,0.0,0.0,0.0,0.0,0.0,0.0,0.0,0.0,0.0,0.0,0.0,0.0,0.0,0.0,0.0,3.3222,3.4791,3.5974,3.6224,3.5473,3.4679,3.3952,3.2172,3.0743,2.9939,0.0,0.0,0.0,0.0,0.0,0.0,0.0,0.0,0.0,0.0,0.0,0.0,0.0,0.0,0.0,0.0,0.0,0.0,0.0,0.0,0.0,0.0,0.0,0.0,0.0,0.0,0.0,0.0,0.0,0.0,0.0,0.0,0.0,0.0,0.0,0.0,0.0,0.0,0.0,0.0,0.0,0.0,0.0,0.0,0.0,0.0,0.0,0.0,0.0,0.0,0.0,0.0,0.0,0.0,0.0,0.0,0.0,0.0,0.0,0.0,0.0,0.0,0.0,0.0,0.0,0.0,0.0,0.0,0.0,0.0,0.0,0.0,0.0,0.0,0.0,0.0,0.0,0.0,0.0,0.0,0.0,0.0,0.0,0.0,0.0,0.0,0.0,0.0,0.0,0.0,0.0,0.0,0.0,0.0,0.0,0.0,0.0,0.0,0.0,0.0,0.0,0.0,3.4123,3.5355,3.6408,3.6984,3.6405,3.5599,3.457,3.3425,3.2217,3.0866,0.0,0.0,0.0,0.0,0.0,0.0,0.0,0.0,0.0,0.0,0.0,0.0,0.0,0.0,0.0,0.0,0.0,0.0,0.0,0.0,0.0,0.0,0.0,0.0,0.0,0.0,0.0,0.0,0.0,0.0,0.0,0.0,0.0,0.0,0.0,0.0,0.0,0.0,0.0,0.0,0.0,0.0,0.0,0.0,0.0,0.0,0.0,0.0,0.0,0.0,0.0,0.0,0.0,0.0,0.0,0.0,0.0,0.0,0.0,0.0,0.0,0.0,0.0,0.0,0.0,0.0,0.0,0.0,0.0,0.0,0.0,0.0,0.0,0.0,0.0,0.0,0.0,0.0,0.0,0.0,0.0,0.0,0.0,0.0,0.0,0.0,0.0,0.0,0.0,0.0,0.0,0.0,0.0,0.0,0.0,0.0,0.0,0.0,0.0,0.0,0.0,0.0,3.4778,3.6257,3.7462,3.7915,3.7518,3.6698,3.5389,3.5038,3.4053,3.2011,0.0,0.0,0.0,0.0,0.0,0.0,0.0,0.0,0.0,0.0,0.0,0.0,0.0,0.0,0.0,0.0,0.0,0.0,0.0,0.0,0.0,0.0,0.0,0.0,0.0,0.0,0.0,0.0,0.0,0.0,0.0,0.0,0.0,0.0,0.0,0.0,0.0,0.0,0.0,0.0,0.0,0.0,0.0,0.0,0.0,0.0,0.0,0.0,0.0,0.0,0.0,0.0,0.0,0.0,0.0,0.0,0.0,0.0,0.0,0.0,2.9603,2.874,0.0,0.0,0.0,0.0,0.0,0.0,0.0,0.0,0.0,0.0,0.0,0.0,0.0,0.0,0.0,0.0,0.0,0.0,0.0,0.0,0.0,0.0,0.0,0.0,0.0,0.0,0.0,0.0,0.0,0.0,0.0,0.0,0.0,0.0,0.0,0.0,0.0,0.0,0.0,0.0,3.6029,3.7086,3.7791,3.7693,3.7568,3.7069,3.5938,3.5254,3.4412,3.3344,3.2324,0.0,0.0,0.0,0.0,0.0,0.0,0.0,0.0,0.0,0.0,0.0,0.0,0.0,0.0,0.0,0.0,0.0,0.0,0.0,0.0,0.0,0.0,0.0,0.0,0.0,0.0,0.0,0.0,0.0,0.0,0.0,0.0,0.0,0.0,0.0,0.0,0.0,0.0,0.0,0.0,0.0,0.0,0.0,0.0,0.0,0.0,0.0,0.0,0.0,0.0,0.0,0.0,0.0,0.0,0.0,0.0,0.0,0.0,0.0,3.2004,3.0986,0.0,0.0,0.0,0.0,0.0,0.0,0.0,0.0,0.0,0.0,0.0,0.0,0.0,0.0,0.0,0.0,0.0,0.0,0.0,0.0,0.0,0.0,0.0,0.0,0.0,0.0,0.0,0.0,0.0,0.0,0.0,0.0,0.0,0.0,0.0,0.0,0.0,0.0,0.0,0.0,3.6734,3.7517,3.8115,3.8388,3.826,3.7678,3.6486,3.615,3.5426,3.4113,3.3505,0.0,0.0,0.0,0.0,0.0,0.0,0.0,0.0,0.0,0.0,0.0,0.0,0.0,0.0,0.0,0.0,0.0,0.0,0.0,0.0,0.0,0.0,0.0,0.0,0.0,0.0,0.0,0.0,0.0,0.0,0.0,0.0,0.0,0.0,0.0,0.0,0.0,0.0,0.0,0.0,0.0,0.0,0.0,0.0,0.0,0.0,0.0,0.0,0.0,0.0,0.0,0.0,0.0,3.6675,3.725,3.7712,3.716,3.6885,3.6801,3.5264,3.4258,3.3775,3.3853,0.0,0.0,0.0,0.0,0.0,0.0,0.0,0.0,0.0,0.0,0.0,0.0,0.0,0.0,0.0,0.0,0.0,0.0,0.0,0.0,0.0,0.0,3.4863,3.5775,3.5917,3.5477,3.412,0.0,0.0,0.0,0.0,0.0,0.0,0.0,0.0,0.0,0.0,0.0,3.7391,3.8038,3.8672,3.9349,3.909,3.8398,3.7254,3.7127,3.6476,3.4914,3.4798,3.4613,0.0,0.0,0.0,0.0,0.0,0.0,0.0,0.0,0.0,0.0,0.0,0.0,0.0,0.0,0.0,0.0,0.0,0.0,0.0,0.0,0.0,0.0,0.0,0.0,0.0,0.0,0.0,0.0,0.0,0.0,0.0,0.0,3.0583,3.1858,0.0,0.0,0.0,0.0,0.0,0.0,0.0,0.0,0.0,0.0,0.0,0.0,0.0,3.4743,3.5151,3.6382,3.7015,3.711,3.8637,3.9401,3.9485,3.9894,4.0097,4.0069,3.9816,0.0,3.4399,3.482,0.0,0.0,0.0,0.0,0.0,0.0,0.0,0.0,0.0,0.0,0.0,0.0,0.0,0.0,0.0,0.0,0.0,0.0,0.0,0.0,0.0,0.0,3.6362,3.6324,3.6799,3.7124,3.6732,3.5552,3.4698,3.5205,3.4926,3.4673,0.0,0.0,0.0,0.0,0.0,0.0,3.8551,3.9455,4.006,3.9919,3.945,3.897,3.8572,3.7486,3.6767,3.6496,3.5404,3.4785,3.4711,3.4637,0.0,0.0,0.0,0.0,0.0,0.0,0.0,0.0,0.0,0.0,0.0,0.0,0.0,0.0,0.0,0.0,0.0,0.0,0.0,0.0,0.0,0.0,0.0,0.0,0.0,0.0,0.0,0.0,0.0,3.0645,3.1874,3.2439,3.3037,3.3277,0.0,0.0,0.0,0.0,0.0,0.0,0.0,0.0,0.0,3.7406,3.7536,3.772,3.7896,3.8778,3.9378,3.9717,4.0836,4.1552,4.189,4.2149,4.2261,4.2261,4.1896,4.059,3.8609,3.8034,3.7084,3.6033,0.0,0.0,0.0,0.0,3.6212,3.6505,3.7049,3.7227,3.7264,3.7439,0.0,0.0,0.0,0.0,0.0,0.0,0.0,3.6593,3.7313,3.7796,3.8158,3.8413,3.8818,3.9146,3.907,3.799,3.7036,3.6936,3.671,3.6535,3.6535,3.6617,0.0,0.0,0.0,3.8149,3.8715,3.8967,3.9048,3.9102,3.9037,3.8806,3.8383,3.7814,3.7217,3.6587,3.572,3.5114,3.4799,3.4799,3.4294,0.0,0.0,0.0,0.0,0.0,0.0,0.0,0.0,0.0,0.0,0.0,0.0,0.0,0.0,0.0,0.0,0.0,0.0,0.0,0.0,0.0,0.0,0.0,0.0,0.0,0.0,0.0,0.0,3.2319,3.3113,3.3291,3.4167,3.4513,0.0,0.0,0.0,0.0,0.0,0.0,3.9298,3.8912,3.9263,4.064,4.0788,4.0823,4.0823,4.1252,4.1646,4.1956,4.2559,4.3132,4.375,4.3891,4.4059,4.42,4.3514,4.2932,4.234,4.0863,3.9633,3.8689,3.8629,3.8608,3.8552,3.8102,3.8046,3.8243,3.8693,3.8861,3.8889,3.9058,3.9207,3.9208,3.8685,0.0,0.0,0.0,0.0,3.7526,3.8751,3.9169,3.95,4.0056,4.0456,4.07,4.07,4.0074,3.9295,3.8592,3.8316,3.8166,3.7941,3.7842,0.0,3.8159,3.7972,3.8082,3.8896,3.8795,3.868,3.8895,3.8972,3.8839,3.8431,3.8022,3.7493,3.6843,3.6194,3.5616,3.5232,3.501,3.4615,3.4092,0.0,0.0,0.0,0.0,0.0,0.0,0.0,0.0,0.0,0.0,0.0,0.0,0.0,0.0,0.0,0.0,0.0,0.0,0.0,0.0,0.0,0.0,0.0,0.0,0.0,0.0,0.0,0.0,0.0,3.5468,3.6093,0.0,0.0,0.0,0.0,3.794,3.7856,3.86,4.0527,4.0568,4.1412,4.3234,4.35,4.3613,4.3613,4.3641,4.3387,4.2848,4.3246,4.3778,4.4369,4.4935,4.5577,4.609,4.5249,4.4546,4.388,4.2199,4.1245,4.0831,4.0611,4.0547,4.0547,4.0519,4.0884,4.1368,4.1396,4.1396,4.1531,4.2171,4.1485,4.0384,4.0307,3.9339,0.0,0.0,3.8716,3.8427,3.9702,3.9853,3.9823,4.035,4.0876,4.1277,4.1277,4.1227,4.0876,3.9823,3.922,3.8592,3.7767,0.0,3.821,3.7721,3.8056,3.8655,3.9475,3.9998,4.0282,4.0311,3.985,3.9561,3.9537,3.8118,3.7421,3.7904,3.694,3.6362,3.6314,3.5525,3.4829,3.4282,3.4256,0.0,0.0,0.0,0.0,0.0,0.0,0.0,0.0,0.0,0.0,0.0,0.0,0.0,0.0,0.0,0.0,0.0,0.0,0.0,0.0,0.0,0.0,0.0,0.0,0.0,0.0,0.0,0.0,3.7411,3.8319,0.0,3.7942,3.7975,3.8674,4.0287,4.0315,4.1256,4.3531,4.3643,4.4149,4.5268,4.5391,4.5387,4.5387,4.5387,4.5302,4.51,4.5625,4.5998,4.6199,4.5854,4.5799,4.5967,4.4699,4.4022,4.3805,4.3192,4.2174,4.097,4.0544,4.0381,4.0381,4.0381,4.0836,4.1542,4.1929,4.2387,4.2783,4.2505,4.145,4.0324,4.0346,3.9864,3.9462,4.0183,4.0033,3.9956,4.114,4.1386,4.1356,4.1557,4.1982,4.2384,4.2384,4.2218,4.2052,4.203,4.1035,4.0086,3.9781,3.9562,3.9462,3.9639,3.9401,3.9406,4.0018,3.9994,3.9898,3.9898,3.9705,3.9465,3.9101,3.8575,3.8022,3.7517,3.7132,3.6617,3.5898,3.5689,3.5168,3.4187,3.4336,3.3817,0.0,0.0,0.0,0.0,0.0,0.0,0.0,0.0,0.0,0.0,0.0,0.0,0.0,0.0,0.0,0.0,0.0,0.0,0.0,0.0,0.0,0.0,0.0,0.0,0.0,3.7997,3.8769,3.9198,4.0063,4.0428,4.0005,4.0069,4.0906,4.2716,4.3076,4.4088,4.6143,4.6452,4.6845,4.7541,4.7319,4.7122,4.6926,4.6701,4.6504,4.6307,4.6429,4.6559,4.6757,4.6031,4.5835,4.5998,4.4917,4.444,4.4387,4.3938,4.3023,4.1902,4.1535,4.1382,4.1382,4.1382,4.1614,4.1961,4.2364,4.3139,4.3855,4.3039,4.1945,4.0997,4.1017,4.0744,4.0492,4.1171,4.1085,4.0976,4.1934,4.2213,4.2263,4.2439,4.2889,4.3285,4.34,4.3227,4.3155,4.3383,4.227,4.1178,4.0923,4.0517,4.0363,4.0615,4.0202,4.0066,4.0595,4.0355,4.0066,3.9898,3.9874,3.9729,3.9369,3.9005,3.8548,3.8046,3.7829,3.7359,3.6443,3.644,3.5852,3.4558,3.451,3.4268,3.383,0.0,0.0,0.0,0.0,0.0,0.0,0.0,0.0,0.0,0.0,0.0,0.0,0.0,0.0,0.0,0.0,0.0,0.0,0.0,0.0,0.0,0.0,0.0,3.9607,4.0247,4.0732,4.0822,4.139,4.1733,4.1733,4.2345,4.3469,4.5244,4.6026,4.6897,4.8108,4.8726,4.9342,4.9985,4.937,4.8754,4.8165,4.76,4.6985,4.6343,4.5525,4.5401,4.5924,4.558,4.5794,4.6379,4.5991,4.5856,4.5747,4.4358,4.379,4.3809,4.3702,4.3671,4.3671,4.3671,4.3351,4.2949,4.2947,4.3825,4.479,4.3978,4.3127,4.2473,4.2473,4.1969,4.1453,4.2085,4.1831,4.1528,4.211,4.2288,4.2386,4.2939,4.3438,4.3905,4.4161,4.4198,4.411,4.3787,4.2815,4.1793,4.0978,4.0852,4.074,4.0483,4.0427,0.0,4.1124,4.1201,4.098,4.0475,4.0403,4.0403,4.0403,3.9441,3.9029,3.9585,3.9101,3.8572,3.8019,3.7664,3.6838,3.5433,3.4803,3.4835,3.555,0.0,0.0,0.0,0.0,0.0,0.0,0.0,0.0,0.0,0.0,0.0,0.0,0.0,0.0,0.0,0.0,0.0,0.0,0.0,0.0,0.0,4.1099,4.1685,4.1666,4.2286,4.302,4.3924,4.4603,4.5015,4.5015,4.5577,4.6335,4.7266,4.7912,4.8586,4.9424,4.9649,4.9818,4.9987,4.9818,4.9649,4.9481,4.9312,4.8804,4.7956,4.7719,4.735,4.6839,4.6095,4.5863,4.6017,4.5266,4.4965,4.4886,4.4102,4.379,4.3771,4.3335,4.3196,4.3196,4.3196,4.3501,4.3938,4.4096,4.3991,4.3782,4.3545,4.265,4.17,4.2158,4.2149,4.216,4.3087,4.3237,4.3237,4.3815,4.394,4.3933,4.3879,4.3999,4.4132,4.4354,4.4238,4.4151,4.4451,4.3729,4.2834,4.2088,4.1798,4.1504,4.1057,4.098,4.1028,4.1172,4.1201,4.1124,4.1008,4.0619,4.0403,4.0403,3.9777,3.9441,3.9609,3.9465,3.8935,3.7911,3.7622,3.6838,3.5433,3.4472,3.4766,0.0,0.0,0.0,0.0,0.0,0.0,0.0,0.0,0.0,0.0,0.0,0.0,0.0,0.0,0.0,0.0,0.0,0.0,0.0,0.0,0.0,0.0,4.3532,4.4643,4.4843,4.4761,4.5127,4.6339,4.6817,4.715,4.7406,4.7743,4.8305,4.9202,4.9822,5.0466,5.1111,5.1392,5.1533,5.1533,5.1027,5.0746,5.0746,4.9867,4.9163,4.8598,4.781,4.7176,4.6619,4.6028,4.5729,4.5725,4.5426,4.5292,4.5267,4.4995,4.4844,4.4719,0.0,0.0,0.0,0.0,4.3698,4.4599,4.4344,4.4341,4.4384,4.4026,4.3351,4.2758,4.3087,4.3215,4.3341,4.3966,4.4141,4.4188,4.4369,4.444,4.4477,4.4601,4.4665,4.4724,4.4933,4.4811,4.4651,4.4601,4.4174,0.0,4.2974,4.2571,4.2308,4.2182,4.2158,4.2158,4.2158,4.1995,4.1779,4.1562,4.1081,4.0739,4.0739,4.0234,0.0,0.0,0.0,3.8831,3.7718,3.736,0.0,0.0,0.0,3.5886,3.7531,3.7288,0.0,0.0,3.6711,3.6775,0.0,0.0,0.0,0.0,0.0,0.0,0.0,0.0,0.0,0.0,0.0,0.0,0.0,0.0,0.0,0.0,4.5833,4.7724,4.8411,4.7574,4.7263,4.8193,4.8305,4.8558,4.9176,4.9288,4.9794,5.1027,5.1673,5.2236,5.277,5.3388,0.0,0.0,0.0,5.1956,5.1846,4.9968,4.89,4.8681,4.7041,4.6243,4.61,4.5876,4.5773,4.5773,4.6225,4.6401,4.6401,4.6276,4.6175,4.5924,4.4066,4.3391,4.3366,4.3316,4.4046,4.5016,4.42,0.0,0.0,4.485,4.4589,4.4589,4.4589,4.4589,4.4614,4.4665,4.4661,4.4598,4.4485,4.4446,4.4576,4.5257,4.5411,4.5465,4.5587,4.5622,4.5382,4.4539,4.446,4.4292,4.3667,4.3168,4.3006,4.3361,4.3433,4.3433,4.3433,4.3078,4.2621,4.214,4.1658,0.0,4.1297,4.0836,4.0547,4.0499,3.946,3.855,3.7866,3.7206,3.7051,3.7571,3.7206,3.7605,3.8783,3.8854,3.8884,3.8888,3.8262,3.8,0.0,0.0,0.0,0.0,0.0,0.0,0.0,0.0,0.0,0.0,0.0,0.0,0.0,0.0,0.0,4.5312,4.7003,4.8612,5.016,5.0572,5.0465,4.9705,4.9621,4.9874,5.0493,5.0972,5.1562,5.2293,5.2967,5.3388,5.3501,5.3641,5.3698,5.3698,5.3473,5.2938,5.2113,5.1722,5.0721,4.9162,4.8803,0.0,4.75,4.7442,4.7431,4.7431,4.7074,4.6948,4.6873,4.6024,4.5372,4.4966,4.5472,4.5673,4.5623,4.5171,4.5187,4.533,4.4676,4.4605,4.4821,4.4647,4.4589,4.4589,4.4589,4.4589,0.0,4.5196,4.5144,4.5107,4.5942,4.5951,4.5791,4.6085,4.6192,4.6122,4.5901,4.583,4.5653,4.5061,4.5301,4.5277,4.4316,4.3691,4.3265,4.2982,4.2934,4.2934,4.2934,4.2862,4.2741,4.2645,4.2549,4.2308,4.1875,4.1755,4.1514,4.1052,3.9622,3.9116,3.9812,3.8037,3.77,3.9137,3.8615,3.8699,3.9443,3.9458,3.9465,3.9441,3.8455,3.8,0.0,0.0,0.0,0.0,0.0,0.0,0.0,0.0,0.0,0.0,0.0,4.1415,4.2717,0.0,4.5895,4.742,4.9014,5.0303,5.0824,5.1674,5.2012,5.142,5.1645,5.1955,5.2264,5.2573,5.3023,5.3613,5.4231,5.4597,5.4597,5.4761,5.4674,5.4366,5.3569,5.2909,5.2412,5.129,5.0262,4.9294,4.8835,4.8342,4.7908,4.7908,4.7908,4.7883,4.7631,4.735,4.7074,4.6522,4.6301,4.6326,4.6878,4.6426,4.5443,4.5472,4.5497,4.5497,4.5472,4.5443,4.5443,4.5443,4.5443,4.5443,4.5443,4.5443,4.5513,4.594,4.5939,4.5925,4.6401,4.6378,4.6304,4.652,4.6545,4.6513,4.6351,4.6286,4.6118,4.559,4.571,4.5734,4.5205,4.4869,4.4443,4.3673,4.3553,4.3553,4.3553,4.3313,4.3144,4.3144,4.2934,4.2573,4.2043,4.1755,4.1287,4.0508,4.0165,3.9814,3.936,3.8726,3.8901,4.0048,3.9479,3.9708,4.0787,4.0258,3.9994,3.9994,3.9176,3.8791,0.0,0.0,0.0,0.0,0.0,0.0,0.0,4.0293,4.0891,4.1537,4.2599,4.3897,4.5502,4.7147,4.8484,4.9173,5.0786,5.1803,5.1304,5.2293,5.3079,5.3079,5.3416,5.3754,5.3866,5.3979,5.4316,5.4906,5.5465,5.5773,5.5773,5.5952,5.5768,5.5091,5.3817,5.292,5.2453,5.08,4.9796,4.9533,4.8856,4.856,4.856,4.856,4.851,4.8385,4.8184,4.7782,4.7249,4.7249,4.75,4.7908,4.7908,4.6828,4.5292,4.5773,4.5949,4.6024,4.6476,4.6627,4.6627,4.6627,4.6627,4.6627,4.6627,4.6627,4.6642,4.6816,4.6817,4.6755,4.6668,4.6591,4.6585,4.6817,4.6872,4.6872,4.6872,4.6872,4.6704,4.6142,4.6118,4.6142,4.5926,4.5974,4.571,4.4772,4.4501,4.446,4.446,4.3979,4.3673,4.3673,4.3313,4.2886,4.2356,4.1598,4.0803,3.9901,4.0341,4.0047,3.8776,3.9373,4.0101,4.0937,4.0539,4.0922,4.214,4.1297,4.0888,4.0836,4.0427,3.9994,3.6693,3.7537,3.878,4.0206,4.0466,4.1168,0.0,4.4849,4.5095,4.5772,4.6446,4.6971,4.7162,4.7697,4.8505,4.9695,5.0992,5.198,5.2433,5.3585,5.4372,5.4372,5.3979,5.3923,5.4457,5.4962,5.5552,5.617,5.6546,5.6731,5.6731,5.6451,5.596,5.529,5.5111,5.4038,5.1996,5.2213,5.1639,5.0273,5.071,5.0929,5.0929,5.0929,5.0619,5.0092,4.9113,4.836,4.7832,4.7832,4.7857,4.7908,4.7908,4.7757,4.7556,4.7606,4.7631,4.7657,4.7707,4.7732,4.7732,4.7732,4.7732,4.7732,4.7732,4.7732,4.7732,4.7745,4.7583,4.7419,4.7518,4.7344,4.7175,4.7347,4.7425,4.7425,4.7425,4.7425,4.7257,4.6695,4.7016,4.7016,4.6046,4.6319,4.6407,4.5806,4.5325,4.5013,4.5013,4.4556,4.422,4.422,4.4172,4.3907,4.3385,4.202,4.0984,4.0459,3.9243,3.9042,4.0197,3.9947,4.067,4.2514,4.2496,4.2556,4.2693,4.2573,4.2525,4.2525,4.2477,4.1442,3.9406,4.0546,4.176,4.2762,4.353,4.4418,4.5865,4.6417,4.682,4.7488,4.8066,4.8658,4.9359,4.9611,5.0129,5.1392,5.1983,5.2545,5.3164,5.4035,5.4399,5.3834,5.4341,5.4932,5.5316,5.5594,5.5896,5.6298,5.6845,5.6793,5.6032,5.5963,5.5461,5.4383,5.3836,5.312,5.2142,5.198,5.1552,5.0921,5.1172,5.1306,5.1306,5.1306,5.0971,5.0336,4.9396,4.8825,4.8575,4.7997,4.8008,4.8305,4.8305,4.8305,4.8245,4.7652,4.7425,4.7375,4.7079,4.6979,4.6979,4.6979,4.7174,4.7425,4.7425,4.7626,4.7889,4.7805,4.7682,4.7582,4.7597,4.7456,4.7397,4.7482,4.7497,4.7497,4.7497,4.7497,4.7425,4.7209,4.7353,4.7353,4.692,4.7016,4.7088,4.6872,4.6094,4.5565,4.5565,4.5373,4.5229,4.5229,4.4676,4.422,4.3979,4.2641,4.1771,4.1559,4.0754,4.0655,4.1529,4.1355,4.1885,4.3192,4.2934,4.2934,4.3192,4.2934,4.2789,4.2789,4.2789,4.2308,4.1272,4.2614,4.3963,4.5122,4.6469,4.7558,4.7927,4.8423,4.8938,4.9419,4.9732,5.0187,5.1107,5.1335,5.1674,5.2574,5.2995,5.336,5.3781,5.4287,5.4313,5.355,5.4367,5.5153,5.5611,5.6061,5.6391,5.6565,5.7138,5.7004,5.5867,5.5746,5.5152,5.3824,5.313,5.2616,5.2264,5.1917,5.1649,5.1498,5.1649,5.1724,5.1724,5.1574,5.1272,5.0812,5.0031,4.9651,4.9495,4.8804,4.8715,4.9018,4.9018,4.9018,4.8903,4.8029,4.762,4.7446,4.7047,4.6953,4.6953,4.6953,4.7196,4.7521,4.7521,4.777,4.8049,4.7959,4.7953,4.7897,4.7698,4.763,4.7597,4.753,4.7497,4.7497,4.7497,4.7497,4.7497,4.7497,4.7497,4.7497,4.7497,4.7497,4.7497,4.7497,4.6848,4.6295,4.6118,4.591,4.5774,4.5774,4.4769,4.4223,4.4435,4.3098,4.2257,4.219,4.1785,4.1677,4.1949,4.2089,4.2569,4.3416,4.3112,4.3088,4.3416,4.3088,4.2951,4.2951,4.3041,4.3072,4.1242,4.2584,4.4233,4.685,4.8573,4.9949,5.1251,5.1964,5.2345,5.2375,5.2125,5.1906,5.1963,5.2358,5.2658,5.2686,5.3726,5.4454,5.4108,5.4367,5.4453,5.4136,5.3892,5.4089,5.4942,5.6441,5.735,5.7378,5.7751,5.7716,5.7087,5.6286,5.5325,5.4013,5.3979,5.3351,5.211,5.2603,5.2569,5.2076,5.2594,5.2845,5.282,5.2327,5.2076,5.2026,5.1473,5.1022,5.0638,5.0638,5.0403,5.0057,5.0057,5.0057,4.9983,4.9427,4.8944,4.8534,4.8534,4.8534,4.8534,4.8534,4.8534,4.8534,4.8534,4.8559,4.8584,4.8551,4.8576,4.8477,4.8092,4.7993,4.7894,4.7563,4.7497,4.7497,4.7497,4.7497,4.7497,4.7497,4.7497,4.7497,4.7497,4.7497,4.7497,4.7497,4.7473,4.7257,4.6752,4.5956,4.5419,4.5419,4.4407,4.4002,4.471,4.319,4.2102,4.1934,4.1349,4.1063,4.112,4.1584,4.2302,4.3302,4.3279,4.3279,4.3302,4.3279,4.3279,4.331,4.3623,4.3755,4.4549,4.6509,4.8727,5.0543,5.1682,5.2471,5.28,5.2966,5.2763,5.1745,5.1391,5.1144,5.0748,5.113,5.1704,5.2324,5.3332,5.4174,5.4637,5.5347,5.5239,5.369,5.4675,5.5181,5.4469,5.5617,5.6374,5.6276,5.6779,5.6643,5.5629,5.5329,5.474,5.3813,5.3813,5.3319,5.231,5.2692,5.2692,5.231,5.2692,5.2895,5.2895,5.2694,5.2452,5.2101,5.1663,5.106,5.0367,5.013,4.9801,4.946,4.946,4.946,4.9436,4.9208,4.9073,4.8898,4.8624,4.8543,4.8469,4.8125,4.8248,4.8469,4.8101,4.8305,4.8641,4.8696,4.8483,4.8189,4.8197,4.7928,4.763,4.753,4.7497,4.7497,4.7497,4.7497,4.7497,4.7497,4.7497,4.7497,4.7497,4.7497,4.7497,4.7497,4.7497,4.7425,4.7257,4.699,4.6804,4.6804,4.5912,4.546,4.569,4.441,4.3572,4.3512,4.3104,4.2834,4.2783,4.2921,4.3107,4.3295,4.3295,4.3295,4.3295,4.3521,4.3615,4.3615,4.3982,4.4013,4.7166,4.9386,5.1805,5.3375,5.4067,5.4318,5.4237,5.3688,5.2865,5.1712,5.0988,5.038,4.9762,4.9908,5.0501,5.1625,5.2407,5.3303,5.4497,5.5123,5.5042,5.3968,5.4867,5.5344,5.4803,5.5308,5.5782,5.6042,5.6649,5.6398,5.5057,5.4993,5.4702,5.4044,5.4009,5.3728,5.3193,5.3403,5.3333,5.2983,5.3333,5.3337,5.2963,5.3136,5.2836,5.2197,5.1992,5.1358,5.0524,5.0318,5.0008,4.9662,4.9662,4.9662,4.9662,4.9662,4.9662,4.9586,4.8941,4.8685,4.867,4.8295,4.8417,4.867,4.8295,4.8475,4.8783,4.8888,4.8651,4.8415,4.8551,4.8315,4.8002,4.7834,4.7786,4.7738,4.7545,4.7497,4.7497,4.7497,4.7497,4.7497,4.7497,4.7497,4.7497,4.7497,4.7666,4.7714,4.7521,4.7398,4.7331,4.7331,4.6457,4.6002,4.6234,4.5299,4.4622,4.4592,4.4381,4.4084,4.3674,4.3521,4.3455,4.3485,4.3322,4.3362,4.3676,4.3771,4.3867,4.4025,4.4207,4.4025,4.9008,5.123,5.3414,5.5329,5.5701,5.5561,5.5456,5.4175,5.2792,5.2102,5.0874,4.9705,4.9007,4.8796,4.9165,5.0636,5.126,5.2184,5.3938,5.4059,5.42,5.4942,5.4605,5.4772,5.5798,5.5635,5.5794,5.6618,5.7249,5.6901,5.5348,5.5355,5.5175,5.4672,5.4647,5.4622,5.4561,5.4561,5.4359,5.3917,5.4334,5.3998,5.3062,5.3438,5.3163,5.2377,5.2402,5.196,5.1211,5.1211,5.0989,5.0696,5.0696,5.066,5.0625,5.0625,5.0554,5.0375,4.9344,4.9054,4.9088,4.9098,4.904,4.9006,4.8982,4.8982,4.8982,4.8971,4.8947,4.8947,4.8971,4.8982,4.8872,4.8343,4.8281,4.8195,4.7666,4.7545,4.7545,4.7545,4.7521,4.7497,4.7497,4.7497,4.7488,4.7545,4.7978,4.8122,4.7593,4.7303,4.7127,4.7127,4.6128,4.5733,4.6466,4.5811,4.5332,4.5239,4.5169,4.4781,4.391,4.3451,4.3405,4.3808,4.3349,4.3544,4.4389,4.4005,4.4005,4.4389,4.4323,4.3874,5.252,5.4774,5.6609,5.694,5.703,5.6513,5.4788,5.3659,5.2404,5.0235,4.9134,4.8274,4.7207,4.803,4.9298,5.0341,5.2351,5.4113,5.5007,5.644,5.6921,5.5474,5.6768,5.7382,5.6158,5.6771,5.696,5.6311,5.6058,5.5572,5.4828,5.5192,5.5315,5.5189,5.5189,5.4881,5.417,5.4135,5.3701,5.2809,5.3338,5.3062,5.2157,5.2647,5.2523,5.1985,5.2379,5.2024,5.1211,5.1211,5.0989,5.0696,5.0696,5.0139,4.9365,4.9365,4.8802,4.7972,4.7698,4.8205,4.8932,4.8838,4.824,4.7534,4.7411,4.719,4.7013,4.7417,4.7044,4.659,4.6991,4.7409,4.7608,4.7093,4.7967,4.8758,4.8195,4.8098,4.8098,4.8098,4.7762,4.7497,4.7497,4.7298,4.7342,4.7993,4.7993,4.7973,4.8065,4.8367,4.8574,4.8574,4.8096,4.7822,4.8027,4.7239,4.6685,4.6669,4.6294,4.5682,4.4804,4.4632,4.4348,4.3808,4.3693,4.3726,4.394,4.4094,4.4225,4.4323,4.4005,4.3621,5.5228,5.7168,5.8556,5.8049,5.7461,5.6232,5.3422,5.221,5.096,4.8351,4.7547,4.701,4.6055,4.7051,4.8381,4.9426,5.1738,5.3854,5.5273,5.6501,5.7086,5.6679,5.7488,5.7711,5.678,5.6882,5.6693,5.5959,5.6003,5.5723,5.4984,5.544,5.5742,5.5742,5.5742,5.5482,5.4966,5.4716,5.4345,5.3793,5.3868,5.353,5.2842,5.3161,5.2918,5.2285,5.2579,5.2316,5.1691,5.1691,5.1548,5.1393,5.1393,5.0649,4.9547,4.9547,4.879,4.7694,4.7694,4.7805,4.7953,4.798,4.7571,4.7033,4.6942,4.6779,4.6667,4.6938,4.6681,4.6343,4.6611,4.7366,4.7864,4.7353,4.8352,4.9311,4.8782,4.8628,4.8555,4.8339,4.795,4.7585,4.7313,4.7323,4.7518,4.8007,4.8437,4.8783,4.8988,4.9071,4.9119,4.9119,4.8947,4.881,4.881,4.8352,4.7817,4.7239,4.6923,4.6287,4.5293,4.5005,4.4766,4.453,4.4267,4.4334,4.4708,4.4764,4.4697,4.4497,4.4106,4.3478,5.7241,5.8659,5.9542,5.8678,5.7288,5.5254,5.1943,5.0507,4.9171,4.6673,4.6167,4.5946,4.5252,4.6035,4.7197,4.8482,5.0574,5.2866,5.5262,5.5701,5.639,5.8016,5.7537,5.7167,5.729,5.6607,5.6003,5.5701,5.6435,5.6453,5.5462,5.5917,5.6219,5.6219,5.6219,5.6182,5.6109,5.5669,5.5401,5.5324,5.4853,5.4399,5.3949,5.4022,5.3571,5.2744,5.2817,5.2635,5.232,5.232,5.2246,5.2113,5.2076,5.1208,4.9973,4.9936,4.9111,4.8028,4.7961,4.7253,4.6471,4.6934,4.698,4.6825,4.6899,4.6817,4.6714,4.6714,4.6677,4.664,4.664,4.7544,4.8338,4.7939,4.885,4.9656,4.9301,4.9215,4.9036,4.844,4.8106,4.7726,4.7183,4.7526,4.7892,4.7974,4.9036,4.9867,5.0009,4.9624,4.9301,4.9301,4.9301,4.9301,4.9266,4.9122,4.8526,4.7391,4.7158,4.6604,4.5506,4.5103,4.5093,4.5473,4.4992,4.5117,4.5871,4.5485,4.5108,4.4741,4.4291,4.3421,5.8293,5.9025,5.9345,5.8456,5.6726,5.4486,5.1596,5.0037,4.8474,4.5974,4.5469,4.52,4.4371,4.5633,4.7288,4.8775,5.1459,5.4134,5.6252,5.7427,5.8071,5.8107,5.8418,5.8153,5.693,5.7102,5.696,5.6157,5.6272,5.6085,5.5451,5.5917,5.6219,5.6219,5.6219,5.6036,5.5705,5.5606,5.5028,5.3949,5.3851,5.34,5.2647,5.3081,5.2948,5.2392,5.285,5.2741,5.232,5.232,5.1893,5.1171,5.0875,4.9585,4.7859,4.7493,4.6592,4.5544,4.5146,4.4904,4.5023,4.6713,4.6366,4.5341,4.5684,4.5254,4.4692,4.4692,4.4466,4.4201,4.4201,4.5084,4.613,4.6608,4.7931,4.9203,4.9656,4.9769,4.9496,4.8648,4.8415,4.823,4.7825,4.7862,4.8212,4.8916,4.9235,4.9696,5.0468,5.0479,5.0431,5.0431,5.0431,5.0266,4.9948,4.9173,4.8452,4.7898,4.704,4.6297,4.5822,4.617,4.6207,4.5989,4.566,4.5582,4.5743,4.5034,4.462,4.4535,4.3853,4.3405,5.9629,5.9675,5.9282,5.8415,5.6359,5.3636,5.0227,4.8499,4.6873,4.4425,4.4144,4.4275,4.4044,4.5525,4.7043,4.7793,5.0244,5.2988,5.5691,5.6286,5.7127,5.8835,5.8388,5.7684,5.7233,5.7067,5.681,5.6241,5.6219,5.6093,5.5842,5.6068,5.6344,5.6584,5.6424,5.6327,5.6439,5.5943,5.5386,5.4744,5.4252,5.38,5.3373,5.3453,5.3317,5.3101,5.3341,5.3317,5.304,5.2383,5.1897,5.1446,5.0567,4.9227,4.7775,4.7579,4.6735,4.5624,4.5397,4.5335,4.5514,4.6474,4.5788,4.4604,4.4545,4.4573,4.4485,4.4044,4.4099,4.4215,4.3739,4.4694,4.5943,4.6602,4.8328,4.9926,5.0254,5.0146,4.9792,4.9057,4.859,4.8181,4.7714,4.7901,4.8263,4.8639,4.931,4.9783,5.0021,5.0246,5.0412,5.0412,4.9972,4.9748,4.9771,4.9346,4.8803,4.8158,4.7632,4.7062,4.6461,4.6658,4.6692,4.6518,4.6396,4.6333,4.6333,4.5529,4.492,4.4546,4.375,4.3166,6.0465,5.9978,5.9219,5.8335,5.5847,5.2677,4.9103,4.7126,4.5464,4.3267,4.316,4.3602,4.3933,4.5254,4.6414,4.6761,4.8708,5.141,5.4925,5.5003,5.598,5.9514,5.8134,5.7066,5.7538,5.6907,5.6418,5.6205,5.6219,5.6219,5.6219,5.6209,5.6448,5.6874,5.6589,5.6648,5.7116,5.6295,5.5846,5.5893,5.5016,5.4563,5.4417,5.4141,5.3918,5.3785,5.3521,5.3384,5.3309,5.2107,5.1493,5.1224,5.0115,4.896,4.7933,4.7853,4.7173,4.6286,4.6203,4.6162,4.6141,4.6038,4.5395,4.4526,4.4174,4.4505,4.4836,4.4112,4.4443,4.4815,4.4091,4.4781,4.595,4.6884,4.8694,5.0294,5.0662,5.0342,4.9866,4.9476,4.8814,4.8201,4.7712,4.8061,4.8352,4.8352,4.9273,4.9854,4.9544,4.9593,4.9759,4.9996,4.9369,4.905,4.9378,4.9307,4.8894,4.8106,4.7967,4.7594,4.692,4.7012,4.6975,4.6775,4.6747,4.6615,4.6437,4.5625,4.4939,4.4379,4.372,4.3131,5.9926,5.9389,5.9014,5.798,5.4869,5.1473,4.9398,4.7097,4.5019,4.3694,4.3469,4.3602,4.3933,4.4366,4.5172,4.6572,4.8191,5.0661,5.484,5.5324,5.6468,5.9534,5.8134,5.7066,5.7538,5.6907,5.6418,5.6205,5.6219,5.6219,5.6219,5.6326,5.6377,5.6427,5.6546,5.6644,5.6858,5.6284,5.6028,5.6161,5.5583,5.5039,5.4582,5.452,5.4279,5.3747,5.2626,5.2169,5.2069,5.0775,4.9841,4.914,4.8587,4.7853,4.7054,4.663,4.6388,4.6245,4.5892,4.5747,4.5664,4.525,4.5312,4.5561,4.5498,4.525,4.4981,4.4898,4.4919,4.4981,4.4877,4.4665,4.4883,4.6699,4.7813,4.8954,5.0554,5.0162,4.9578,4.9637,4.9248,4.8779,4.8371,4.867,4.891,4.891,4.9293,4.9544,4.9509,4.886,4.8715,4.9647,4.9587,4.9318,4.9088,4.861,4.813,4.7678,4.7277,4.7001,4.692,4.7321,4.7193,4.6474,4.6205,4.5723,4.4977,4.4188,4.3756,4.368,4.3642,4.3566,5.9453,5.9039,5.8263,5.6952,5.3937,5.0774,4.8895,4.6255,4.4088,4.361,4.3188,4.3176,4.3877,4.4259,4.479,4.5639,4.6475,4.8327,5.2154,5.2696,5.4216,5.8346,5.7076,5.645,5.7965,5.6842,5.5931,5.5827,5.5632,5.5633,5.5955,5.6253,5.66,5.6977,5.684,5.6897,5.7276,5.6846,5.6441,5.6188,5.5674,5.5289,5.5073,5.476,5.409,5.315,5.2689,5.1847,5.0737,4.9472,4.8763,4.8389,4.7413,4.6872,4.6549,4.6388,4.6307,4.6286,4.61,4.6038,4.6017,4.5831,4.5893,4.5934,4.5436,4.5519,4.5645,4.5147,4.5395,4.5645,4.5126,4.5362,4.6014,4.6977,4.8244,4.9522,5.0635,5.067,5.0389,5.0126,4.9707,4.9183,4.8519,4.8546,4.8654,4.8654,4.898,4.9101,4.8884,4.9013,4.915,4.9324,4.8763,4.8568,4.9024,4.8631,4.8259,4.8079,4.7895,4.778,4.778,4.7277,4.6858,4.6528,4.5707,4.5122,4.4821,4.3991,4.3594,4.3594,4.3098,4.2869,5.8364,5.847,5.8033,5.6242,5.332,5.0465,4.8752,4.5998,4.3778,4.3778,4.3273,4.3115,4.3971,4.4331,4.4594,4.4889,4.5463,4.7025,5.0417,5.0905,5.2471,5.6655,5.5563,5.5159,5.6925,5.6099,5.5411,5.5411,5.5152,5.5224,5.5822,5.6111,5.6567,5.7193,5.6999,5.703,5.7394,5.714,5.6717,5.6188,5.5987,5.5698,5.5385,5.4616,5.3737,5.276,5.1819,5.0726,4.9433,4.815,4.7653,4.7573,4.667,4.6307,4.6307,4.6307,4.6307,4.6307,4.6307,4.6307,4.6307,4.6307,4.6307,4.6183,4.5581,4.581,4.6162,4.5581,4.581,4.6121,4.5395,4.5796,4.6583,4.7355,4.8208,4.9281,5.0828,5.0912,5.0678,5.0755,5.0417,4.983,4.8954,4.8928,4.8891,4.8483,4.8908,4.912,4.8666,4.9264,4.9707,4.9548,4.8639,4.8387,4.9273,4.8882,4.8607,4.8607,4.8469,4.8301,4.8035,4.7225,4.6563,4.6117,4.5136,4.4521,4.4255,4.3559,4.3313,4.3398,4.2841,4.2651,5.6367,5.7568,5.8619,5.6105,5.3155,5.0577,4.9258,4.6616,4.4397,4.4397,4.3919,4.3666,4.4261,4.4451,4.4505,4.4505,4.562,4.754,5.0471,5.0905,5.1909,5.4607,5.3629,5.3012,5.3766,5.4554,5.5004,5.5004,5.5004,5.5283,5.5939,5.5988,5.6255,5.679,5.693,5.7021,5.7021,5.6981,5.6717,5.6212,5.6717,5.6444,5.5347,5.414,5.331,5.262,4.9575,4.823,4.811,4.6851,4.6307,4.6307,4.6307,4.6307,4.6307,4.6307,4.6307,4.6307,4.6307,4.6307,4.6307,4.6307,4.6307,4.6307,4.6286,4.6307,4.6307,4.6286,4.6307,4.6203,4.5788,4.5725,4.6095,4.7647,4.7377,4.7667,5.1053,5.068,5.0136,5.161,5.1436,5.0772,4.983,5.0118,5.0007,4.8611,4.925,4.9709,4.9158,4.9571,5.0076,5.0521,4.9672,4.9319,4.9847,4.9411,4.9112,4.9112,4.8653,4.8035,4.7244,4.7191,4.6463,4.494,4.4466,4.3812,4.3015,4.2591,4.2611,4.3015,4.3015,4.3256,5.283,5.3309,5.3319,5.1038,4.9103,4.7516,4.6673,4.5099,4.3891,4.4312,4.3919,4.3666,4.4312,4.4784,4.5249,4.5663,4.652,4.7866,4.9983,5.1367,5.2766,5.4487,5.4911,5.4859,5.429,5.4438,5.4608,5.4608,5.4687,5.4969,5.5554,5.5926,5.6384,5.6915,5.6964,5.6981,5.6981,5.6981,5.6885,5.6717,5.6524,5.626,5.5884,5.4617,5.3283,5.1889,5.0033,4.8501,4.7311,4.6593,4.6307,4.6307,4.6307,4.6307,4.6307,4.6307,4.6307,4.6307,4.6307,4.6307,4.6307,4.6307,4.61,4.5892,4.5892,4.5892,4.583,4.5519,4.5643,4.585,4.5726,4.5912,4.6297,4.708,4.7297,4.7757,4.9343,4.9634,4.9826,5.0832,5.0641,5.0327,5.0253,5.0151,4.995,4.9479,4.9709,4.9847,4.9686,5.0062,5.0467,5.0567,5.0635,5.0567,5.0383,4.9617,4.8879,4.8395,4.8223,4.7598,4.6493,4.5585,4.4909,4.4447,4.3458,4.2863,4.2585,4.2487,4.2487,4.2585,4.2329,4.227,4.9558,5.0418,5.0515,4.8311,4.6817,4.583,4.5412,4.4369,4.3666,4.4284,4.4116,4.3947,4.434,4.4951,4.536,4.5302,4.6466,4.7839,4.9141,5.1066,5.2776,5.387,5.4223,5.4217,5.3666,5.3955,5.4173,5.4173,5.4224,5.464,5.5361,5.5722,5.6251,5.6997,5.6981,5.6981,5.6981,5.6981,5.6885,5.6692,5.6548,5.6143,5.5391,5.4094,5.2664,5.1054,4.9422,4.806,0.0,4.6493,4.6307,4.6307,4.6307,4.6307,4.6307,4.6307,4.6307,4.6307,4.6307,4.6307,4.6307,4.6307,4.6037,4.5623,4.5271,4.5291,4.5395,4.5291,4.5695,4.6183,4.6351,4.6863,4.735,4.759,4.7748,4.7964,4.8598,4.8968,4.939,5.004,5.0345,5.0475,5.035,5.0518,5.0503,4.9962,5.0237,5.0398,5.0214,5.0627,5.0888,5.0888,5.058,5.0401,5.0407,4.9518,4.8838,4.8565,4.7734,4.6842,4.5911,4.4975,4.4298,4.404,4.3137,4.2676,4.2676,4.2676,4.2676,4.2676,4.2558,4.2441,0.0,4.8473,4.9408,4.7319,4.589,4.5047,4.5103,4.4284,0.0,4.4284,4.4401,4.4401,4.4458,4.4979,4.5081,4.4028,4.5944,4.7757,4.8327,5.0435,5.2295,5.3215,5.235,5.185,5.2368,5.3245,5.3785,5.3785,5.3857,5.4351,5.5337,5.5458,5.5987,5.6957,5.6981,5.6981,5.6981,5.6981,5.6717,5.6212,5.6637,5.5889,5.4081,5.2948,5.1684,5.0235,4.8125,4.7113,4.6968,4.6493,4.6307,4.6307,4.6307,4.6307,4.6307,4.6307,4.6307,4.6307,4.6307,4.6307,4.6286,4.6224,4.5954,4.5436,4.4567,4.4608,4.5062,4.5495,4.6214,4.689,4.7416,4.8183,4.8842,4.8763,4.8396,4.8148,4.8537,4.8576,4.8692,4.9195,5.0349,5.0955,5.0169,5.1102,5.1508,5.0183,5.0811,5.1209,5.0704,5.104,5.1322,5.1322,4.9729,4.9077,4.9941,4.9126,4.8796,4.9162,4.7258,4.5893,4.5373,4.5028,4.4481,4.3691,4.332,4.3125,4.3125,4.3125,4.3125,4.3166,4.3496,4.3457,4.3823,0.0,4.4893,4.3324,4.2688,4.2604,0.0,4.3357,4.3666,4.4284,4.4401,4.4542,4.4991,4.5427,4.5857,4.6346,4.7883,4.9309,5.0147,5.1989,5.4015,5.6056,5.451,5.3317,5.3437,5.3678,5.3785,5.3785,5.4568,5.5145,5.5385,5.6179,5.6756,5.6981,5.6981,5.6981,5.6981,5.6981,5.6717,5.6188,5.5697,5.4797,5.3594,5.3066,5.1754,4.9741,4.9261,4.8287,4.6968,4.6493,4.6307,4.6307,4.6307,4.6307,4.6307,4.6307,4.6307,4.6307,4.6307,4.6307,4.6183,4.554,4.5002,4.4588,4.4381,4.4381,4.4518,4.4921,4.5418,4.5984,4.6706,4.7578,4.8122,4.7537,4.755,4.7563,4.7004,4.6884,4.7164,4.8255,4.9035,4.9707,5.0407,5.1101,5.1416,5.111,5.1232,5.1347,5.1209,5.0742,5.0404,5.0404,4.9468,4.8959,4.9173,4.8316,4.7573,4.7067,4.6535,4.5617,4.4205,4.4025,4.3882,4.3691,4.3613,4.3555,4.3555,4.3555,4.3555,4.3555,4.332,4.3183,4.1518,4.2404,4.3089,4.2051,4.1681,4.1868,4.2795,4.3071,4.3329,4.4228,4.4401,4.457,4.5188,4.5588,4.6042,4.6786,4.8375,5.0238,5.2267,5.3209,5.4389,5.6258,5.4893,5.3785,5.3785,5.3785,5.3785,5.3785,5.4568,5.5145,5.5385,5.6203,5.6741,5.6981,5.6981,5.6981,5.6981,5.678,5.6596,5.6548,5.5898,5.4913,5.3757,5.3606,5.2109,4.9569,4.9415,4.8447,4.6968,4.6493,4.6307,4.6307,4.6307,4.6307,4.6307,4.6307,4.6307,4.6307,4.6307,4.6183,4.5933,4.5229,4.4815,4.4588,4.436,4.4588,4.4956,4.5173,4.5805,4.6625,4.7503,4.8547,4.9135,4.8345,4.8192,4.7902,4.6592,4.6472,4.6696,4.6981,4.7743,4.8529,4.9157,5.0121,5.0805,5.0805,5.1343,5.1519,5.0872,5.0605,5.0235,4.9608,4.8621,4.8067,4.8296,4.7319,4.6719,4.6881,4.6134,4.5306,4.4358,4.4121,4.3926,4.3711,4.3711,4.3711,4.3711,4.3711,4.3711,4.3691,4.3476,4.3262,4.0264,4.1678,4.2954,4.1938,4.1649,4.1924,4.3076,4.2986,4.2958,4.4144,4.4401,4.4621,4.5328,4.5752,4.6203,4.6731,4.8733,5.1356,5.4603,5.4564,5.4611,5.5762,5.4806,5.4018,5.3942,5.387,5.3809,5.3942,5.4423,5.4952,5.5482,5.602,5.6524,5.6997,5.6981,5.6981,5.6981,5.6452,5.6428,5.6861,5.6111,5.5194,5.4075,5.4075,5.2495,4.9787,4.9375,4.8454,4.7151,4.6553,4.6307,4.6307,4.6307,4.6307,4.6307,4.6307,4.6307,4.6307,4.6307,4.6057,4.5623,4.5312,4.5147,4.5043,4.4795,4.5229,4.5809,4.5954,4.6729,4.7704,4.865,4.9712,5.0406,4.9585,4.9207,4.8558,4.6883,4.6824,4.6885,4.6057,4.6905,4.772,4.772,4.9013,5.0042,5.003,5.1041,5.1312,5.0073,5.019,4.9965,4.8792,4.7566,4.6971,4.7399,4.6389,4.626,4.7334,4.5871,4.4957,4.4899,4.4648,4.4316,4.3906,4.3848,4.3848,4.3906,4.3848,4.3848,4.3906,4.3848,4.3613,4.1869,4.3264,4.3703,4.1071,4.1006,4.1812,4.2542,4.2677,4.2958,4.4144,4.4401,4.4762,4.5942,4.6595,4.7349,4.8499,5.1088,5.406,5.7124,5.6909,5.6756,5.761,5.6141,5.4913,5.4534,5.4087,5.4015,5.4447,5.4977,5.5506,5.6044,5.6572,5.6885,5.6981,5.6981,5.6981,5.6981,5.6452,5.6236,5.6308,5.4611,5.3699,5.3541,5.3541,5.2473,5.0609,5.0605,4.9623,4.7938,4.6772,4.6307,4.6307,4.6307,4.6307,4.6307,4.6307,4.6307,4.6307,4.6307,4.6057,4.5726,4.5996,4.5892,4.5705,4.6369,4.641,4.6369,4.7154,4.7453,4.766,4.8525,4.9195,4.9486,4.8599,4.8718,4.8728,4.7713,4.7527,4.7444,4.6886,4.7558,4.8209,4.8209,4.9016,4.969,4.9616,4.9765,4.9686,4.9177,4.8525,4.802,4.7809,4.6981,4.6418,4.6496,4.6322,4.6279,4.6496,4.5555,4.4863,4.4512,4.4766,4.486,4.4782,4.4473,4.4473,4.4782,4.4473,4.4473,4.4762,4.4453,4.4258,4.0052,4.1346,4.2328,4.1575,4.2374,4.346,4.3942,4.3554,4.3526,4.5099,4.5155,4.5356,4.6982,4.805,4.9552,5.2068,5.3656,5.5274,5.7342,5.6976,5.6587,5.6962,5.5692,5.4748,5.4523,5.4079,5.4039,5.4568,5.5097,5.565,5.6164,5.6692,5.6981,5.6981,5.6717,5.6548,5.6548,5.5731,5.5755,5.6596,5.5145,5.4468,5.4468,5.4184,5.3101,5.1451,5.1489,5.0613,4.9118,4.7832,4.7333,4.7253,4.659,4.6307,4.6307,4.6307,4.6307,4.6348,4.6596,4.6389,4.6119,4.6534,4.6534,4.6492,4.6865,4.7175,4.7527,4.7941,4.8022,4.81,4.872,4.921,4.9534,4.9122,4.9027,4.8798,4.7921,4.7693,4.7486,4.6762,4.6942,4.7289,4.7541,4.8315,4.8871,4.885,4.9457,4.9523,4.8359,4.8079,4.7682,4.6972,4.652,4.6308,4.6308,4.6308,4.6308,4.6308,4.5723,4.5293,4.5098,4.5039,4.4977,4.4977,4.4844,4.4824,4.4977,4.4824,4.4844,4.5019,4.4824,4.4726,3.8609,3.9981,4.1587,4.2471,4.3538,4.4674,4.5813,4.4959,4.45,4.6575,4.6429,4.6452,4.8024,4.9576,5.1682,5.4886,5.576,5.6399,5.7437,5.7164,5.677,5.6512,5.5517,5.4778,5.4591,5.4195,5.4162,5.4736,5.5169,5.5698,5.6332,5.6765,5.6933,5.6813,5.6404,5.614,5.5996,5.5217,5.5409,5.6636,5.5554,5.5097,5.5193,5.4664,5.369,5.2398,5.2107,5.1455,5.0426,4.9157,4.8644,4.8508,4.7253,4.6549,4.6327,4.6431,4.6594,4.6818,4.7071,4.707,4.6985,4.7237,4.7299,4.7361,4.7444,4.792,4.8418,4.8418,4.8296,4.8244,4.873,4.9047,4.9237,4.9237,4.8986,4.8584,4.7879,4.7693,4.7444,4.6617,4.6555,4.6741,4.7093,4.7711,4.8147,4.815,4.8966,4.9007,4.748,4.7612,4.7445,4.644,4.6308,4.6308,4.6308,4.6308,4.6308,4.6308,4.5996,4.5781,4.5683,4.5449,4.5289,4.5289,4.5234,4.5234,4.5312,4.5234,4.5234,4.5312,4.5234,4.5176,3.9799,4.1629,4.3348,4.3291,4.3149,4.3973,4.7568,4.6695,4.5905,4.853,4.8461,4.8108,4.8811,5.0876,5.3143,5.5102,5.6799,5.8112,5.8707,5.8945,5.8719,5.7686,5.6813,5.5966,5.5226,5.4651,5.4646,5.5304,5.5385,5.5842,5.6861,5.6997,5.6765,5.626,5.6212,5.5947,5.5458,5.5385,5.5385,5.5506,5.4447,5.4183,5.464,5.4111,5.3771,5.3634,5.2512,5.1977,5.1762,5.0465,4.9959,4.9841,4.8587,4.7333,4.6348,4.6782,4.7521,4.8195,4.7775,4.8149,4.8748,4.8421,4.8272,4.8355,4.8832,4.8708,4.8418,4.8418,4.8108,4.7859,4.8336,4.815,4.7859,4.7859,4.7796,4.7755,4.7693,4.7693,4.7548,4.7031,4.732,4.761,4.7631,4.7709,4.7737,4.7756,4.7448,4.7034,4.6468,4.64,4.644,4.6308,4.6308,4.6308,4.6308,4.6308,4.6308,4.6308,4.6269,4.6074,4.5746,4.6016,4.6211,4.6211,4.582,4.582,4.6211,4.582,4.582,4.6211,4.5801,4.5625,3.887,4.0949,4.3262,4.3901,4.5047,4.6607,4.8689,4.8473,4.8411,5.0627,5.0417,5.0269,5.1674,5.3268,5.4962,5.6779,5.7975,5.8826,5.9269,5.8805,5.8182,5.7542,5.6289,5.5522,5.5448,5.4817,5.4784,5.5684,5.5525,5.5722,5.6452,5.65,5.6275,5.5722,5.5385,5.5121,5.4904,5.4568,5.4423,5.4423,5.4351,5.4399,5.4592,5.4025,5.3785,5.3785,5.3309,5.312,5.3006,5.1801,5.1301,5.1146,4.9903,4.9096,4.8763,4.8935,4.8911,4.8805,4.89,4.8797,4.863,4.8772,4.8646,4.8439,4.8625,4.8356,4.7941,4.7941,4.7817,4.7713,4.7941,4.7817,4.7693,4.7693,4.7693,4.761,4.7341,4.7486,4.7548,4.7072,4.7382,4.7692,4.7708,4.7701,4.7583,4.7338,4.7094,4.6832,4.6352,4.6308,4.6308,4.6308,4.6308,4.6308,4.6308,4.6308,4.6308,4.6308,4.6308,4.623,4.6074,4.6211,4.6308,4.6308,4.6152,4.6152,4.6308,4.6152,4.6152,4.6289,4.6133,4.6055,3.8522,4.0442,4.2742,4.3858,4.6248,4.876,5.0444,5.0466,5.0847,5.3268,5.2682,5.2236,5.3726,5.4743,5.5927,5.7551,5.8625,5.9298,5.9316,5.8504,5.7631,5.6895,5.5768,5.5078,5.5201,5.5015,5.5129,5.5761,5.568,5.5805,5.6164,5.602,5.5722,5.5169,5.4784,5.452,5.4351,5.3991,5.3785,5.3785,5.4183,5.4351,5.4351,5.3991,5.3785,5.3785,5.3785,5.3785,5.3747,5.293,5.236,5.1939,5.1229,5.0485,4.9825,5.0172,4.9811,4.9273,4.9448,4.9302,4.8985,4.8917,4.8667,4.8397,4.8231,4.7838,4.7486,4.7486,4.7486,4.7444,4.7299,4.7361,4.7444,4.7299,4.7258,4.7217,4.7031,4.7279,4.7424,4.7279,4.7589,4.7877,4.772,4.7713,4.7531,4.7097,4.6876,4.6658,4.6352,4.6308,4.6308,4.6308,4.6308,4.6308,4.6308,4.6308,4.6308,4.6308,4.6308,4.6308,4.6308,4.6308,4.6308,4.6308,4.6308,4.6308,4.6308,4.6308,4.6308,4.6308,4.6308,4.6308,3.9189,4.0422,4.2001,4.312,4.6239,4.9848,5.3016,5.2832,5.2974,5.6393,5.53,5.3923,5.4513,5.5049,5.5817,5.7,5.8707,5.9617,5.8801,5.8238,5.7363,5.5966,5.5323,5.4831,5.4459,5.5321,5.5746,5.5414,5.5834,5.6115,5.6179,5.5698,5.5145,5.4616,5.4592,5.4351,5.3822,5.3785,5.3785,5.3785,5.3785,5.3785,5.3785,5.3785,5.3785,5.3785,5.3785,5.3785,5.3785,5.3785,5.3082,5.21,5.2612,5.125,4.9068,5.0058,5.0135,4.9678,4.9234,4.9679,5.0146,4.8817,4.8418,4.8314,4.7817,4.7382,4.6989,4.6989,4.6989,4.6906,4.6431,4.6658,4.6886,4.6431,4.6327,4.6451,4.6906,4.701,4.7134,4.761,4.8065,4.827,4.7782,4.7721,4.7528,4.705,4.6614,4.6308,4.6308,4.6308,4.6308,4.6308,4.6308,4.6308,4.6308,4.6308,4.6308,4.6308,4.6308,4.6308,4.6308,4.6308,4.6308,4.6308,4.6308,4.6308,4.6308,4.6308,4.6308,4.6308,4.6308,4.6308,3.9073,4.0793,4.284,4.4416,4.8024,5.1865,5.4513,5.4315,5.4013,5.5651,5.5761,5.5664,5.5833,5.6693,5.7476,5.7772,5.9013,5.9586,5.8689,5.7933,5.7019,5.5794,5.5288,5.5078,5.5238,5.5844,5.6089,5.5733,5.5946,5.58,5.5097,5.4928,5.4592,5.4025,5.4063,5.3966,5.3785,5.3785,5.3785,5.3785,5.3785,5.3785,5.3785,5.3785,5.3785,5.3785,5.3785,5.3785,5.3785,5.3785,5.3812,5.3842,5.4009,5.3865,5.3518,5.2893,5.219,5.1445,5.0379,4.9554,4.8922,4.8544,4.7941,4.7403,4.7279,4.6865,4.6513,4.6513,4.6968,4.7382,4.6906,4.7403,4.7775,4.6968,4.7031,4.732,4.7465,4.7755,4.8024,4.819,4.8287,4.8253,4.7759,4.7448,4.705,4.6571,4.6396,4.6406,4.6699,4.6738,4.6855,4.7168,4.7207,4.707,4.6777,4.6738,4.6621,4.6328,4.6308,4.6308,4.6308,4.6308,4.6308,4.6308,4.6308,4.6308,4.6308,4.6308,4.6308,4.6308,4.6308,4.6308,3.9712,4.1385,4.3472,4.5959,4.9134,5.2372,5.513,5.6143,5.6592,5.692,5.6873,5.6873,5.7126,5.7691,5.8249,5.8466,5.9478,5.9835,5.8683,5.783,5.6798,5.5521,5.5004,5.4868,5.509,5.5881,5.6165,5.5602,5.5844,5.5602,5.4654,5.4399,5.4063,5.3534,5.3702,5.3726,5.3534,5.3726,5.3785,5.3785,5.3785,5.3785,5.3785,5.3785,5.3785,5.3785,5.3785,5.3785,5.3846,5.4039,5.4327,5.464,5.5097,5.5159,5.4979,5.4366,5.3062,5.1503,5.069,4.9386,4.8065,4.79,4.7486,4.6968,4.6782,4.6534,4.6348,4.6534,4.7134,4.7631,4.7361,4.7962,4.8417,4.7506,4.7486,4.7734,4.7962,4.8189,4.848,4.8646,4.8531,4.8243,4.7788,4.7311,4.6832,4.6396,4.6308,4.6387,4.6641,4.668,4.6777,4.7051,4.707,4.6973,4.6699,4.668,4.6562,4.6328,4.6308,4.6367,4.6543,4.6387,4.6308,4.6308,4.6308,4.6308,4.6308,4.6308,4.6308,4.6308,4.6308,4.6308,4.0757,4.2063,4.3953,4.7539,4.9952,5.2325,5.5351,5.8027,5.9743,5.9154,5.825,5.7716,5.8278,5.8275,5.841,5.9082,6.0058,6.0219,5.8709,5.783,5.6761,5.5189,5.4682,5.4434,5.4397,5.5583,5.5991,5.5164,5.5528,5.5391,5.451,5.3966,5.3461,5.3041,5.3437,5.3461,5.3041,5.3485,5.375,5.375,5.3798,5.3785,5.3785,5.3785,5.3785,5.3785,5.3785,5.3846,5.3918,5.4399,5.464,5.4784,5.5731,5.532,5.4191,5.4557,5.2835,5.0319,5.0195,4.9066,4.7568,4.7134,4.6968,4.6865,4.6493,4.6369,4.6472,4.6927,4.7403,4.7755,4.7755,4.8439,4.8894,4.8003,4.7817,4.792,4.8397,4.848,4.8562,4.8933,4.8673,4.822,4.7762,4.7284,4.6848,4.6411,4.6328,4.6308,4.6348,4.6367,4.6367,4.6406,4.6426,4.6406,4.6367,4.6367,4.6348,4.6308,4.6328,4.6523,4.687,4.6523,4.6328,4.6367,4.6328,4.6308,4.6308,4.6308,4.6265,4.6265,4.6265,4.6221,4.0757,4.2411,4.4654,4.8335,5.2324,5.5875,5.7657,5.8522,5.875,5.7958,5.8334,5.8868,5.898,5.8947,5.911,5.9717,5.9976,5.9701,5.8656,5.808,5.7086,5.5226,5.493,5.4756,5.4434,5.5358,5.5618,5.4653,5.4704,5.4408,5.3451,5.2884,5.2608,5.2488,5.2548,5.2548,5.2488,5.3017,5.3221,5.3221,5.363,5.3785,5.3785,5.3785,5.3785,5.3785,5.3785,5.4063,5.4447,5.4568,5.4856,5.5241,5.5482,5.4838,5.3617,5.269,5.1297,4.9721,4.8649,4.7776,4.7113,4.7031,4.6762,4.6513,4.6762,4.6844,4.6948,4.7424,4.7879,4.8273,4.8273,4.8687,4.906,4.8853,4.8812,4.8832,4.8936,4.8957,4.8849,4.8609,4.8156,4.7802,4.7662,4.7238,4.6885,4.6797,4.6504,4.6426,4.6714,4.6753,4.6933,4.7266,4.7305,4.7168,4.6816,4.6753,4.666,4.6328,4.6621,4.6792,4.6889,4.6523,4.6465,4.6733,4.6465,4.6308,4.6308,4.6308,4.6133,4.5739,4.5739,4.5563,4.1134,4.3195,4.5953,5.0365,5.3756,5.6357,5.7766,5.807,5.8121,5.8229,5.8755,5.9174,5.9174,5.952,5.9746,5.9584,5.9863,5.9636,5.8263,5.77,5.6775,5.4843,5.4832,5.4733,5.4094,5.4892,5.5064,5.4094,5.4032,5.3666,5.2753,5.2464,5.2163,5.1959,5.2175,5.2163,5.1898,5.2705,5.3114,5.3114,5.3582,5.3785,5.3785,5.3785,5.3785,5.3785,5.3785,5.3966,5.4255,5.4496,5.476,5.501,5.467,5.4163,5.3455,5.2138,5.0656,4.9267,4.8574,4.7605,4.67,4.6927,4.6824,4.672,4.7217,4.7341,4.7444,4.7879,4.8231,4.8459,4.8687,4.8936,4.9102,4.9102,4.9102,4.9102,4.9102,4.893,4.8734,4.8701,4.7972,4.7467,4.7884,4.7381,4.6889,4.6889,4.6562,4.6387,4.6601,4.6621,4.6719,4.6953,4.6973,4.6875,4.6641,4.6621,4.6621,4.6601,4.6772,4.6898,4.6914,4.6481,4.6346,4.6559,4.6391,4.609,4.5651,4.587,4.5739,4.5255,4.5255,4.5217,4.1424,4.4182,4.7693,5.2442,5.4466,5.5672,5.6914,5.7322,5.7688,5.884,5.9149,5.9202,5.9314,5.9787,5.9968,5.9368,5.9698,5.9467,5.7694,5.7172,5.6258,5.4385,5.4586,5.4488,5.3558,5.4205,5.4303,5.3448,5.329,5.2901,5.2199,5.2067,5.1802,5.1369,5.1778,5.1802,5.1369,5.244,5.2921,5.2849,5.3413,5.3726,5.3785,5.3785,5.3785,5.3785,5.3785,5.3833,5.3953,5.4423,5.4616,5.4525,5.378,5.3269,5.2862,5.157,5.0004,4.8551,4.8637,4.7656,4.6493,4.6968,4.7113,4.7196,4.7672,4.7796,4.7941,4.8397,4.8542,4.8625,4.8998,4.9102,4.9102,4.9102,4.9016,4.8973,4.8973,4.8734,4.8553,4.8722,4.7921,4.743,4.8161,4.7651,4.7084,4.7006,4.668,4.6387,4.6308,4.6308,4.6308,4.6308,4.6308,4.6308,4.6308,4.6308,4.6484,4.685,4.6845,4.6817,4.6883,4.6364,4.6089,4.6089,4.6171,4.5783,4.5034,4.5431,4.5343,4.4769,4.4845,4.5008,4.0873,4.5133,4.9894,5.2871,5.4536,5.568,5.6374,5.6985,5.7575,5.8278,5.884,5.9342,5.9876,5.9427,5.9134,5.9782,5.9286,5.841,5.7072,5.6876,5.6149,5.4234,5.419,5.3949,5.2999,5.3167,5.3104,5.2537,5.2019,5.173,5.161,5.1153,5.0888,5.0816,5.0888,5.0888,5.0816,5.185,5.2163,5.1706,5.2729,5.3389,5.3785,5.3785,5.3785,5.3785,5.3785,5.4087,5.4496,5.4568,5.4616,5.4501,5.3357,5.1952,5.0395,4.9118,4.7842,4.6735,4.7131,4.7112,4.6968,4.7465,4.761,4.7672,4.8148,4.8314,4.8376,4.8894,4.9019,4.9039,4.9081,4.9102,4.9102,4.9102,4.8802,4.8501,4.8501,4.8721,4.8679,4.793,4.7928,4.8079,4.8196,4.8112,4.791,4.7539,4.7129,4.6719,4.6348,4.6308,4.6308,4.6308,4.6308,4.6308,4.6308,4.6308,4.6484,4.685,4.6534,4.6504,4.6883,4.605,4.5597,4.5597,4.5686,4.5651,4.5519,4.5563,4.5166,4.43,4.4637,4.4617,4.3456,4.6417,4.9344,5.2298,5.3738,5.4684,5.5669,5.6676,5.7547,5.8165,5.8783,5.9258,5.9539,5.9525,5.9384,5.9068,5.8925,5.8254,5.6555,5.6275,5.559,5.3767,5.3659,5.3385,5.2463,5.2502,5.244,5.1874,5.1634,5.1369,5.1056,5.084,5.0696,5.0696,5.0696,5.0696,5.0696,5.1465,5.1874,5.1922,5.2115,5.2451,5.2956,5.2644,5.298,5.3785,5.3785,5.3905,5.4159,5.4159,5.3742,5.3032,5.1777,5.0356,4.8925,4.789,4.7167,4.672,4.6927,4.7155,4.7424,4.761,4.7858,4.819,4.8667,4.8812,4.8853,4.906,4.9102,4.9102,4.9102,4.8887,4.8716,4.8716,4.8329,4.7941,4.7681,4.7755,4.7758,4.7293,4.7948,4.8496,4.8242,4.8203,4.8144,4.7969,4.7363,4.6855,4.668,4.6445,4.6308,4.6308,4.6308,4.6308,4.6308,4.6308,4.6484,4.685,4.6445,4.6165,4.6133,4.5468,4.5126,4.5167,4.5217,4.5078,4.4813,4.4813,4.4459,4.3811,4.4218,4.4423,4.5031,4.6679,4.8099,5.1327,5.2625,5.3516,5.4966,5.6114,5.7069,5.7688,5.8446,5.898,5.898,5.9455,5.9542,5.857,5.8507,5.7895,5.5943,5.5505,5.4851,5.3323,5.3233,5.2965,5.2046,5.2114,5.1959,5.1321,5.1297,5.1129,5.072,5.0696,5.0696,5.0696,5.0696,5.0696,5.0696,5.1105,5.1634,5.232,5.1754,5.1778,5.2295,5.1874,5.2331,5.3437,5.3558,5.3702,5.3785,5.3785,5.3082,5.1877,5.0582,4.9315,4.8074,4.7167,4.6824,4.6844,4.6948,4.7217,4.7548,4.7775,4.8086,4.8501,4.8977,4.9102,4.9102,4.9102,4.8845,4.8587,4.8587,4.8007,4.7488,4.7488,4.7334,4.7157,4.7145,4.7078,4.7017,4.7193,4.8027,4.8679,4.8418,4.8379,4.834,4.8223,4.7656,4.7123,4.6909,4.666,4.6426,4.6308,4.6308,4.6265,4.6133,4.6133,4.6309,4.6692,4.6082,4.5617,4.5508,4.4965,4.4689,4.4725,4.4725,4.4592,4.437,4.4349,4.4138,4.3646,4.416,4.4545,4.3573,4.5046,4.6772,4.9985,5.1285,5.2293,5.4205,5.5131,5.5777,5.6365,5.7491,5.8362,5.8362,5.884,5.9179,5.9068,5.8007,5.672,5.5246,5.4503,5.381,5.3014,5.3049,5.2763,5.1919,5.1924,5.1666,5.0827,5.0744,5.0744,5.0696,5.0696,5.0696,5.0696,5.0696,5.0696,5.0696,5.072,5.1273,5.232,5.1754,5.1778,5.232,5.2295,5.2283,5.2416,5.2921,5.3365,5.3785,5.3785,5.3082,5.1877,5.0582,4.9315,4.8052,4.6812,4.6348,4.641,4.6844,4.701,4.7175,4.8065,4.8397,4.8501,4.8977,4.9102,4.9102,4.9102,4.8136,4.7097,4.7097,4.6075,4.4977,4.4977,4.5373,4.6036,4.7282,4.7204,4.7148,4.7969,4.8203,4.8359,4.8796,4.8874,4.8737,4.8281,4.8164,4.7851,4.6987,4.687,4.6738,4.6348,4.6308,4.6133,4.5695,4.5651,4.5824,4.6184,4.5014,4.4665,4.5489,4.4703,4.4212,4.4237,4.4237,4.4459,4.4857,4.4808,4.4546,4.4068,4.4875,4.5242,4.3456,4.464,4.5817,4.8297,5.0001,5.1356,5.2543,5.4203,5.5552,5.5777,5.6845,5.7828,5.8221,5.8812,5.907,5.8598,5.7701,5.6601,5.522,5.441,5.3725,5.2998,5.2734,5.2436,5.188,5.1617,5.1254,5.0755,5.0696,5.0696,5.0696,5.0696,5.0696,5.0696,5.0696,5.0696,5.0696,5.0696,5.0888,5.1273,5.1081,5.1081,5.1273,5.1273,5.1441,5.1778,5.197,5.2355,5.286,5.3197,5.2607,5.1398,5.0468,4.9315,4.8074,4.7126,4.6762,4.6762,4.6948,4.7217,4.7506,4.7817,4.8127,4.8501,4.8977,4.9102,4.8887,4.8007,4.7401,4.6773,4.5812,4.4958,4.427,4.396,4.4048,4.4307,4.4812,4.5966,4.6967,4.7324,4.7617,4.7949,4.8359,4.8437,4.8476,4.8659,4.8379,4.8105,4.7793,4.7519,4.7285,4.7129,4.6842,4.6574,4.6395,4.5834,4.5624,4.5712,4.4773,4.4356,4.4665,4.4599,4.4584,4.4584,4.4827,4.4935,4.4853,4.4509,4.4396,4.4517,4.504,4.5297,4.3311,4.4269,4.5383,4.741,4.8688,4.9905,5.1726,5.3051,5.4175,5.5018,5.603,5.6929,5.7547,5.8165,5.8541,5.8396,5.7468,5.6325,5.5063,5.418,5.3402,5.2713,5.2448,5.2247,5.2005,5.145,5.1076,5.0884,5.0767,5.0696,5.0696,5.0696,5.0696,5.0696,5.0696,5.0696,5.0696,5.0696,5.0696,5.0696,5.0696,5.0696,5.0696,5.0696,5.0888,5.1225,5.1225,5.173,5.2608,5.2969,5.2193,5.0781,5.0291,4.9079,4.7496,4.6963,4.6762,4.6762,4.6762,4.6948,4.7279,4.7589,4.79,4.8294,4.8915,4.8759,4.8179,4.7271,4.6294,4.5329,4.4359,4.3515,4.2935,4.2953,4.2953,4.3043,4.3337,4.4628,4.5852,4.6317,4.6677,4.714,4.7884,4.7988,4.8086,4.8424,4.8183,4.7988,4.7988,4.7754,4.7533,4.7353,4.7018,4.6657,4.634,4.5822,4.5491,4.5491,4.4797,4.4424,4.4603,4.4864,4.4949,4.4768,4.5164,4.5239,4.4991,4.4627,4.4618,4.4893,4.5297,4.5498,0.0,0.0,0.0,4.7324,4.7404,4.7995,5.1699,5.1674,5.1561,5.4007,5.499,5.5636,5.6253,5.6929,5.7622,5.8484,5.7162,5.5714,5.4804,5.3628,5.2644,5.2151,5.2076,5.2141,5.2347,5.1546,5.1033,5.1163,5.0884,5.0696,5.0696,5.0696,5.0696,5.0696,5.0696,5.0672,5.0672,5.0672,5.0672,5.0672,5.0696,5.0696,5.0696,5.0696,5.0696,5.0696,5.0696,5.1586,5.3066,5.3066,5.1882,5.0109,5.0092,4.8543,4.6347,4.6307,4.6307,4.6307,4.6307,4.6307,4.6472,4.7403,4.7693,4.7879,4.879,4.8093,4.6967,4.6924,4.4845,4.2685,4.264,4.1607,4.081,4.1759,4.1984,4.2254,4.3177,4.3381,4.3822,4.5234,4.5489,4.589,4.7346,4.7558,4.7558,4.7578,4.7578,4.7578,4.7578,4.7578,4.7398,4.6883,4.6812,4.6405,4.5496,4.5405,4.5423,4.5423,4.4948,4.4902,4.534,4.5405,4.5195,4.4737,4.5195,4.5399,4.5315,4.5315,4.5315,4.5333,4.5718,4.5883,4.2992,0.0,0.0,0.0,0.0,0.0,4.9024,4.982,5.0689,5.2236,5.3445,5.4541,5.5552,5.6254,5.6658,5.6672,5.5627,5.4623,5.4111,5.273,5.1674,5.1523,5.1498,5.1414,5.1168,5.0934,5.0752,5.0638,5.0548,5.0543,5.0672,5.0696,5.0696,5.0696,5.0311,5.0129,5.0129,5.0129,5.0129,5.0129,5.0503,5.0696,5.0696,5.0696,5.0696,5.0696,5.0696,5.1177,5.1922,5.1922,5.1308,5.0245,4.9711,4.8771,4.7573,4.663,4.6307,4.6307,4.6307,4.6534,4.6906,4.7506,4.792,4.8124,4.7715,4.7314,4.6555,4.4491,4.3311,4.2461,4.1444,4.0901,4.0674,4.0946,4.1489,4.2074,4.2326,4.2909,4.373,4.4857,4.4724,4.5033,4.6809,4.7109,4.7226,4.7539,4.7578,4.7578,4.7578,4.7308,4.7038,4.6902,4.6489,4.6128,4.5852,4.5529,4.5317,4.5317,4.493,4.4765,4.4902,4.55,4.5621,4.5132,4.5872,4.6075,4.5718,4.5443,4.5443,4.5737,4.5828,4.5883,0.0,0.0,4.537,4.5597,0.0,0.0,4.7938,4.8351,4.8946,5.0689,5.1651,5.2491,5.3575,5.4065,5.4206,5.3873,5.3161,5.2728,5.3011,5.2053,5.1197,5.0946,5.0921,5.093,5.0955,5.0614,5.0412,5.0523,5.0264,5.0163,5.037,5.0143,5.0119,5.0335,4.9865,4.9576,4.9576,4.9576,4.9672,4.9913,5.0226,5.0479,5.0696,5.0696,5.0696,5.0696,5.0696,5.0888,5.1153,5.1153,5.0584,4.9645,4.9387,4.8413,4.7079,4.6506,4.6307,4.6307,4.6307,4.6493,4.6803,4.7486,4.79,4.7957,4.7244,4.6555,4.5593,4.3337,4.2551,4.2209,4.1398,4.1471,4.1787,4.1787,4.2192,4.2595,4.2595,4.2864,4.3444,4.4662,4.4662,4.4895,4.6401,4.666,4.6758,4.7012,4.7051,4.7065,4.7017,4.6767,4.653,4.6295,4.6113,4.5942,4.5759,4.5667,4.5621,4.5603,4.5381,4.5234,4.5215,4.5686,4.5815,4.5553,4.6055,4.6166,4.5883,4.5663,4.5663,4.5883,4.5883,4.5883,0.0,0.0,0.0,4.6218,4.5734,0.0,4.7741,4.7211,4.6926,4.9228,4.9678,5.0023,5.0984,5.1126,5.1006,5.0676,5.0336,5.0504,5.1649,5.1383,5.0896,5.0393,5.0318,5.0519,5.1046,5.0348,5.0074,5.0563,4.9989,4.9689,4.9862,4.9359,4.9335,4.9793,4.9311,4.9022,4.9022,4.9022,4.9263,4.972,4.9841,5.0154,5.06,5.0672,5.0696,5.0696,5.0696,5.0696,5.0696,5.0696,4.9865,4.8642,4.9052,4.7809,4.5809,4.6162,4.6307,4.6307,4.6307,4.6327,4.6513,4.7361,4.7589,4.7439,4.6866,4.5686,4.4314,4.2998,4.2344,4.2029,4.2119,4.2774,4.3381,4.3381,4.3471,4.3578,4.3578,4.3311,4.3489,4.4813,4.4946,4.5122,4.6133,4.6308,4.6265,4.6221,4.6221,4.6182,4.6062,4.6012,4.5807,4.5309,4.5656,4.5785,4.5376,4.5777,4.6011,4.5945,4.5871,4.5853,4.5784,4.5792,4.5828,4.5828,4.5865,4.5883,4.5883,4.5883,4.5883,4.5883,4.5883,4.5883,4.456,4.5036,4.5601,4.5648,4.5647,0.0,4.6134,4.6252,4.656,4.7544,4.781,4.8198,4.9333,4.9417,4.9172,4.879,4.8837,4.9343,5.0452,5.0238,4.9891,4.9766,4.9766,4.9791,4.9916,4.9751,4.9764,5.0025,4.9768,4.9645,4.9674,4.9304,4.9167,4.9263,4.8758,4.8459,4.8459,4.8459,4.8507,4.8603,4.9504,4.9961,5.0081,5.0503,5.0696,5.0696,5.0696,5.0696,5.0696,5.0696,4.9829,4.8544,4.8595,4.7623,4.6183,4.6265,4.6307,4.6307,4.6307,4.6555,4.6886,4.7072,4.688,4.6342,4.5121,4.3964,4.2998,4.2344,4.2074,4.2164,4.2953,4.3248,4.3381,4.3381,4.4023,4.4617,4.4617,4.5147,4.5675,4.5939,4.504,4.4687,4.607,4.6308,4.6177,4.5783,4.5739,4.5582,4.5173,4.4794,4.4565,4.4461,4.4805,4.501,4.4901,4.529,4.5514,4.5516,4.515,4.4958,4.4958,4.5242,4.5407,4.5407,4.5737,4.5883,4.5883,4.5883,4.5883,4.5883,4.5883,4.5883,4.4923,4.5283,4.5772,4.6067,4.5757,0.0,0.0,4.5614,4.5633,4.656,4.6331,4.63,4.7345,4.7,4.657,4.6582,4.6707,4.7176,4.8176,4.8547,4.8761,4.8761,4.8761,4.8761,4.8761,4.8761,4.8828,4.908,4.91,4.9118,4.9217,4.8638,4.8411,4.8676,4.8171,4.7906,4.7906,4.7906,4.8026,4.8291,4.9119,4.9648,4.9913,5.0455,5.0696,5.0696,5.0696,5.0696,5.0696,5.0696,4.9829,4.8506,4.8506,4.7471,4.6037,4.6224,4.6307,4.6307,4.6307,4.6451,4.67,4.6927,4.6821,4.6418,4.5245,4.4021,4.2998,4.2774,4.3043,4.3552,4.4041,4.451,4.4864,4.4864,4.5236,4.5607,4.5607,4.5958,4.6308,4.6308,4.5719,4.5436,4.6158,4.6133,4.587,4.5651,4.5387,4.5078,4.4592,4.4326,4.4104,4.39,4.4469,4.4759,4.4536,4.5126,4.5378,4.5133,4.488,4.4837,4.4966,4.5187,4.5388,4.559,4.5792,4.5883,4.5883,4.5883,4.5883,4.5883,4.5883,4.5883,4.5549,4.5814,4.6285,4.6691,4.6114,4.5543,0.0,0.0,0.0,4.5745,4.5059,4.4561,4.5541,4.4652,4.4023,4.4722,4.4741,4.4969,4.5759,4.6592,4.728,4.7707,4.7657,4.7682,4.7883,4.7807,4.7883,4.8206,4.8226,4.8314,4.8588,4.7835,4.766,4.8122,4.7714,4.7497,4.7497,4.7497,4.7714,4.8147,4.8772,4.9335,4.9769,5.0407,5.0696,5.0696,5.0696,5.0696,5.0696,5.0696,4.9904,4.8689,4.8463,4.7337,4.585,4.6079,4.6224,4.6307,4.6307,4.6307,4.6369,4.6741,4.6721,4.6412,4.5457,4.436,4.3426,4.3623,4.4263,4.4946,4.5122,4.5739,4.6308,4.6308,4.6308,4.6308,4.6308,4.6308,4.6308,4.6308,4.6308,4.6265,4.6177,4.587,4.5563,4.5343,4.499,4.4592,4.4104,4.406,4.3926,4.3544,4.4237,4.4592,4.4237,4.4902,4.5167,4.4704,4.4588,4.4696,4.504,4.5223,4.548,4.5883,4.5883,4.5883,4.5883,4.5883,4.5883,4.5883,4.5883,4.5883,4.7556,4.7351,4.7153,4.6871,4.6776,4.6509,4.5458,0.0,4.5388,4.4753,0.0,4.3402,4.4502,0.0,0.0,4.3961,4.3848,4.3771,4.4373,4.4348,4.4995,4.6948,4.6772,4.6878,4.7807,4.745,4.74,4.7921,4.7259,4.7107,4.779,4.7442,4.7335,4.7569,4.7521,4.7497,4.7497,4.7497,4.7521,4.7593,4.8603,4.9143,4.9239,5.0239,5.0696,5.0696,5.0696,5.0696,5.0696,5.0696,5.0221,4.9342,4.8283,4.719,4.6183,4.5892,4.6016,4.6307,4.6307,4.6307,4.6307,4.6369,4.5815,4.4946,4.3971,4.3523,4.3578,4.4485,4.4813,4.5078,4.5914,4.6221,4.6308,4.6308,4.6308,4.6308,4.6308,4.6308,4.6308,4.6308,4.6308,4.6177,4.5739,4.5651,4.5343,4.4459,4.4326,4.4104,4.3633,4.3589,4.3544,4.3499,4.3971,4.4237,4.4193,4.4282,4.4345,4.4268,4.3867,4.3801,4.4196,4.4911,4.548,4.5883,4.5883,4.5883,4.5883,4.5883,4.5883,4.5883,4.5883,4.5883,4.7812,4.7735,4.7606,4.741,4.7061,4.6526,4.5847,4.5438,4.5124,4.4954,0.0,0.0,0.0,0.0,0.0,0.0,4.3673,4.3573,4.4281,4.4014,4.4219,4.5485,4.4895,4.4669,4.5447,4.5924,4.6276,4.6476,4.6542,4.6743,4.7033,4.714,4.7248,4.7335,4.7139,4.7185,4.7497,4.7185,4.7209,4.7521,4.8267,4.8806,4.9143,4.9913,5.0407,5.0696,5.0696,5.0696,5.0696,5.0696,5.0269,4.947,4.7951,4.7214,4.6849,4.6026,4.5975,4.6307,4.6307,4.6307,4.6308,4.631,4.6052,4.5605,4.5231,4.5084,4.5191,4.5588,4.5695,4.5826,4.6221,4.6308,4.6308,4.6308,4.6308,4.6308,4.6308,4.6308,4.6308,4.6308,4.609,4.5739,4.5255,4.5211,4.499,4.4282,4.3971,4.3704,4.3544,4.3499,4.3499,4.3499,4.4149,4.4458,4.4144,4.4617,4.4792,4.4495,4.4535,4.4508,4.448,4.5205,4.5718,4.5883,4.5883,4.5883,4.5883,4.5601,4.5459,4.5459,4.5459,4.5459,4.8044,4.8183,4.8241,4.7892,4.7317,4.6679,4.5979,4.5484,4.5161,4.5062,4.4156,0.0,0.0,0.0,4.2729,4.3961,0.0,4.3565,4.4295,4.367,4.3414,4.4142,4.363,4.3476,4.4105,4.4565,4.492,4.5221,4.5485,4.5754,4.6135,4.6584,4.6873,4.6972,4.6746,4.6922,4.7497,4.6968,4.6968,4.7521,4.8026,4.8555,4.9119,4.9648,5.0202,5.0696,5.0696,5.0696,5.0696,5.0696,5.0342,4.9554,4.7789,4.7184,4.7208,4.599,4.585,4.6307,4.6307,4.6226,4.6126,4.6239,4.6247,4.6154,4.6252,4.6308,4.6308,4.6308,4.6308,4.6308,4.6308,4.6308,4.6308,4.6308,4.6308,4.6308,4.6308,4.6308,4.6265,4.6133,4.5826,4.5431,4.4813,4.4725,4.4548,4.406,4.3722,4.3499,4.3499,4.3499,4.3536,4.3646,4.4218,4.453,4.4278,4.4827,4.5085,4.4719,4.5077,4.5168,4.4902,4.5517,4.5883,4.5883,4.5742,4.5695,4.5695,4.5237,4.5,4.4892,4.5,4.4982,4.8729,4.9146,4.9345,4.8125,4.7776,4.7317,4.5516,4.5601,4.5746,4.4659,4.4498,4.4529,4.442,4.3574,4.3214,0.0,4.3779,0.0,0.0,4.2771,4.2164,4.3222,4.3586,4.4105,4.4976,4.3871,4.3489,4.4539,4.3689,4.3644,4.4888,4.5509,4.5995,4.6421,4.6438,4.6763,4.7497,4.6968,4.6968,4.7521,4.8026,4.8555,4.9119,4.9648,5.0202,5.0696,5.0696,5.0696,5.0696,5.0696,5.0448,4.9914,4.7872,4.718,4.7135,4.5577,4.5581,4.6307,4.6307,4.6064,4.578,4.6155,4.6036,4.5772,4.6165,4.6308,4.6308,4.6308,4.6308,4.6308,4.6308,4.6308,4.6308,4.6308,4.6308,4.6308,4.6308,4.6308,4.6177,4.5695,4.5607,4.5299,4.437,4.4237,4.406,4.3589,4.3499,4.3499,4.3499,4.3499,4.3646,4.4031,4.4131,4.4278,4.4664,4.4719,4.4719,4.4719,4.5077,4.5297,4.5278,4.5663,4.5883,4.5883,4.5412,4.5129,4.5129,4.4982,4.4725,4.4436,4.4743,4.4725,5.0023,5.0481,5.0656,4.9374,4.8711,4.7978,4.6408,4.6055,4.5844,4.4841,4.4641,4.4553,4.4415,4.3832,4.359,0.0,0.0,4.4089,0.0,4.3363,4.317,4.4479,4.4093,4.349,4.2915,4.2725,4.2756,4.2992,4.3014,4.336,4.4144,4.5211,4.6043,4.6513,4.6099,4.6495,4.7828,4.6729,4.6631,4.7497,4.769,4.8219,4.9119,4.9287,4.9865,5.0696,5.0696,5.0696,5.0696,5.0696,5.0139,4.9162,4.7667,4.7038,4.6761,4.5466,4.5374,4.5954,4.6203,4.6229,4.6126,4.6256,4.6236,4.6105,4.6263,4.6308,4.6308,4.6308,4.6308,4.6308,4.6308,4.6308,4.6308,4.6308,4.6308,4.6308,4.6308,4.6046,4.5783,4.5651,4.5122,4.4548,4.4237,4.4149,4.4064,4.3929,4.3884,4.3884,4.3884,4.3884,4.394,4.4068,4.4563,4.4948,4.5077,4.5333,4.537,4.5095,4.5462,4.5572,4.5315,4.5353,4.5365,4.5365,4.4892,4.4732,4.4982,4.4596,4.4478,4.457,4.4612,4.4366,5.029,5.0946,5.1352,5.0332,4.9727,4.9016,4.7533,4.7128,4.6838,4.5974,4.5477,4.5243,4.5364,4.4657,4.4171,0.0,0.0,4.4397,0.0,4.3757,4.3847,4.4478,4.3633,4.2863,4.2474,4.206,4.1814,4.1886,4.2007,4.2434,4.319,4.4415,4.546,4.6284,4.5909,4.635,4.7701,4.6625,4.6464,4.7233,4.7425,4.7954,4.883,4.9022,4.9565,5.0407,5.0624,5.0696,5.066,5.0246,4.9509,4.8526,4.7067,4.6292,4.595,4.5248,4.5395,4.5954,4.6203,4.6086,4.5879,4.6033,4.5969,4.5851,4.6044,4.6191,4.6328,4.6484,4.6426,4.6328,4.6484,4.6426,4.6308,4.6308,4.6308,4.6308,4.6308,4.5958,4.5601,4.5578,4.5376,4.5167,4.4961,4.5569,4.5649,4.4304,4.4086,4.4123,4.427,4.4178,4.4196,4.449,4.4985,4.5352,4.5498,4.5737,4.5773,4.5535,4.5755,4.5679,4.5236,4.5144,4.516,4.5257,4.4512,4.4349,4.4812,4.4345,4.4153,4.4226,4.4431,4.4225]},{"header":{"parameterUnit":"m.s-1","parameterCategory":1,"la1":30.6,"la2":29.2853,"lo1":-89.7004,"lo2":-87.6739,"dy":0.0162,"dx":0.0183,"nx":112,"ny":82,"refTime":"2023-06-01T06:00:00:Z","depth":0,"parameterNumber":3,"parameterNumberName":"V-component_of_WINDS"},"data":[0.0,0.0,0.0,0.0,0.0,0.0,0.0,0.0,0.0,0.0,0.0,0.0,0.0,0.0,0.0,0.0,0.0,0.0,0.0,0.0,0.0,0.0,0.0,0.0,0.0,0.0,0.0,0.0,0.0,0.0,0.0,0.0,0.0,0.0,0.0,0.0,0.0,0.0,0.0,0.0,0.0,0.0,0.0,0.0,0.0,0.0,0.0,0.0,0.0,0.0,0.0,0.0,0.0,0.0,0.0,0.0,0.0,0.0,0.0,0.0,0.0,0.0,0.0,0.0,0.0,0.0,0.0,0.0,0.0,0.0,0.0,0.0,0.0,0.0,0.0,0.0,0.0,0.0,0.0,0.0,0.0,0.0,0.0,0.0,0.0,0.0,0.0,0.0,0.0,0.0,3.5126,3.5846,3.8409,4.0446,4.1423,4.1093,4.0001,3.796,0.0,0.0,0.0,0.0,0.0,0.0,0.0,0.0,0.0,0.0,0.0,0.0,0.0,0.0,0.0,0.0,0.0,0.0,0.0,0.0,0.0,0.0,0.0,0.0,0.0,0.0,0.0,0.0,0.0,0.0,0.0,0.0,0.0,0.0,0.0,0.0,0.0,0.0,0.0,0.0,0.0,0.0,0.0,0.0,0.0,0.0,0.0,0.0,0.0,0.0,0.0,0.0,0.0,0.0,0.0,0.0,0.0,0.0,0.0,0.0,0.0,0.0,0.0,0.0,0.0,0.0,0.0,0.0,0.0,0.0,0.0,0.0,0.0,0.0,0.0,0.0,0.0,0.0,0.0,0.0,0.0,0.0,0.0,0.0,0.0,0.0,0.0,0.0,0.0,0.0,0.0,0.0,0.0,0.0,0.0,0.0,0.0,0.0,0.0,0.0,0.0,0.0,0.0,0.0,3.5337,3.8441,3.9715,4.0643,4.1418,4.042,3.9347,3.8445,0.0,0.0,0.0,0.0,0.0,0.0,0.0,0.0,0.0,0.0,0.0,0.0,0.0,0.0,0.0,0.0,0.0,0.0,0.0,0.0,0.0,0.0,0.0,0.0,0.0,0.0,0.0,0.0,0.0,0.0,0.0,0.0,0.0,0.0,0.0,0.0,0.0,0.0,0.0,0.0,0.0,0.0,0.0,0.0,0.0,0.0,0.0,0.0,0.0,0.0,0.0,0.0,0.0,0.0,0.0,0.0,0.0,0.0,0.0,0.0,0.0,0.0,0.0,0.0,0.0,0.0,0.0,0.0,0.0,0.0,0.0,0.0,0.0,0.0,0.0,0.0,0.0,0.0,0.0,0.0,0.0,0.0,0.0,0.0,0.0,0.0,0.0,0.0,0.0,0.0,0.0,0.0,0.0,0.0,0.0,0.0,0.0,0.0,0.0,0.0,0.0,0.0,0.0,3.4719,3.6514,3.9943,4.0134,4.0565,4.1927,4.0663,3.9259,3.8019,3.7713,0.0,0.0,0.0,0.0,0.0,0.0,0.0,0.0,0.0,0.0,0.0,0.0,0.0,0.0,0.0,0.0,0.0,0.0,0.0,0.0,0.0,0.0,0.0,0.0,0.0,0.0,0.0,0.0,0.0,0.0,0.0,0.0,0.0,0.0,0.0,0.0,0.0,0.0,0.0,0.0,0.0,0.0,0.0,0.0,0.0,0.0,0.0,0.0,0.0,0.0,0.0,0.0,0.0,0.0,0.0,0.0,0.0,0.0,0.0,0.0,0.0,0.0,0.0,0.0,0.0,0.0,0.0,0.0,0.0,0.0,0.0,0.0,0.0,0.0,0.0,0.0,0.0,0.0,0.0,0.0,0.0,0.0,0.0,0.0,0.0,0.0,0.0,0.0,0.0,0.0,0.0,0.0,0.0,0.0,0.0,0.0,0.0,0.0,0.0,0.0,0.0,0.0,3.6949,3.8317,4.0842,4.0755,4.1085,4.243,4.1213,3.9722,3.8186,3.7931,0.0,0.0,0.0,0.0,0.0,0.0,0.0,0.0,0.0,0.0,0.0,0.0,0.0,0.0,0.0,0.0,0.0,0.0,0.0,0.0,0.0,0.0,0.0,0.0,0.0,0.0,0.0,0.0,0.0,0.0,0.0,0.0,0.0,0.0,0.0,0.0,0.0,0.0,0.0,0.0,0.0,0.0,0.0,0.0,0.0,0.0,0.0,0.0,0.0,0.0,0.0,0.0,0.0,0.0,0.0,0.0,0.0,0.0,0.0,0.0,0.0,0.0,0.0,0.0,0.0,0.0,0.0,0.0,0.0,0.0,0.0,0.0,0.0,0.0,0.0,0.0,0.0,0.0,0.0,0.0,0.0,0.0,0.0,0.0,0.0,0.0,0.0,0.0,0.0,0.0,0.0,0.0,0.0,0.0,0.0,0.0,0.0,0.0,0.0,0.0,0.0,0.0,3.837,4.0842,4.108,4.2282,4.2959,4.2721,4.1943,4.1006,3.9888,3.9232,0.0,0.0,0.0,0.0,0.0,0.0,0.0,0.0,0.0,0.0,0.0,0.0,0.0,0.0,0.0,0.0,0.0,0.0,0.0,0.0,0.0,0.0,0.0,0.0,0.0,0.0,0.0,0.0,0.0,0.0,0.0,0.0,0.0,0.0,0.0,0.0,0.0,0.0,0.0,0.0,0.0,0.0,0.0,0.0,0.0,0.0,0.0,0.0,0.0,0.0,0.0,0.0,0.0,0.0,0.0,0.0,0.0,0.0,0.0,0.0,0.0,0.0,0.0,0.0,0.0,0.0,0.0,0.0,0.0,0.0,0.0,0.0,0.0,0.0,0.0,0.0,0.0,0.0,0.0,0.0,0.0,0.0,0.0,0.0,0.0,0.0,0.0,0.0,0.0,0.0,0.0,0.0,0.0,0.0,0.0,0.0,0.0,0.0,0.0,0.0,0.0,0.0,3.8009,3.9892,4.1545,4.2176,4.2714,4.3326,4.2684,4.1784,4.0734,0.0,0.0,0.0,0.0,0.0,0.0,0.0,0.0,0.0,0.0,0.0,0.0,0.0,0.0,0.0,0.0,0.0,0.0,0.0,0.0,0.0,0.0,0.0,0.0,0.0,0.0,0.0,0.0,0.0,0.0,0.0,0.0,0.0,0.0,0.0,0.0,0.0,0.0,0.0,0.0,0.0,0.0,0.0,0.0,0.0,0.0,0.0,0.0,0.0,0.0,0.0,0.0,0.0,0.0,0.0,0.0,0.0,0.0,0.0,0.0,0.0,0.0,0.0,0.0,0.0,0.0,0.0,0.0,0.0,0.0,0.0,0.0,0.0,0.0,0.0,0.0,0.0,0.0,0.0,0.0,0.0,0.0,0.0,0.0,0.0,0.0,0.0,0.0,0.0,0.0,0.0,0.0,0.0,0.0,0.0,0.0,0.0,0.0,0.0,0.0,0.0,0.0,3.6899,3.8608,4.0278,4.1931,4.2591,4.315,4.3747,4.3197,4.2424,4.1581,0.0,0.0,0.0,0.0,0.0,0.0,0.0,0.0,0.0,0.0,0.0,0.0,0.0,0.0,0.0,0.0,0.0,0.0,0.0,0.0,0.0,0.0,0.0,0.0,0.0,0.0,0.0,0.0,0.0,0.0,0.0,0.0,0.0,0.0,0.0,0.0,0.0,0.0,0.0,0.0,0.0,0.0,0.0,0.0,0.0,0.0,0.0,0.0,0.0,0.0,0.0,0.0,0.0,0.0,0.0,0.0,0.0,0.0,0.0,0.0,0.0,0.0,0.0,0.0,0.0,0.0,0.0,0.0,0.0,0.0,0.0,0.0,0.0,0.0,0.0,0.0,0.0,0.0,0.0,0.0,0.0,0.0,0.0,0.0,0.0,0.0,0.0,0.0,0.0,0.0,0.0,0.0,0.0,0.0,0.0,0.0,0.0,0.0,0.0,0.0,0.0,0.0,3.7208,4.0556,4.2763,4.2188,4.3724,4.4545,4.3876,4.3419,4.2991,0.0,0.0,0.0,0.0,0.0,0.0,0.0,0.0,0.0,0.0,0.0,0.0,0.0,0.0,0.0,0.0,0.0,0.0,0.0,0.0,0.0,0.0,0.0,0.0,0.0,0.0,0.0,0.0,0.0,0.0,0.0,0.0,0.0,0.0,0.0,0.0,0.0,0.0,0.0,0.0,0.0,0.0,0.0,0.0,0.0,0.0,0.0,0.0,0.0,0.0,0.0,0.0,0.0,0.0,0.0,0.0,0.0,0.0,0.0,0.0,0.0,0.0,0.0,0.0,0.0,0.0,0.0,0.0,0.0,0.0,0.0,0.0,0.0,0.0,0.0,0.0,0.0,0.0,0.0,0.0,0.0,0.0,0.0,0.0,0.0,0.0,0.0,0.0,0.0,0.0,0.0,0.0,0.0,0.0,0.0,0.0,0.0,0.0,0.0,0.0,0.0,0.0,0.0,3.9331,4.1279,4.2682,4.2931,4.3805,4.4486,4.47,4.4078,4.3804,4.4074,0.0,0.0,0.0,0.0,0.0,0.0,0.0,0.0,0.0,0.0,0.0,0.0,0.0,0.0,0.0,0.0,0.0,0.0,0.0,0.0,0.0,0.0,0.0,0.0,0.0,0.0,0.0,0.0,0.0,0.0,0.0,0.0,0.0,0.0,0.0,0.0,0.0,0.0,0.0,0.0,0.0,0.0,0.0,0.0,0.0,0.0,0.0,0.0,0.0,0.0,0.0,0.0,0.0,0.0,0.0,0.0,0.0,0.0,0.0,0.0,0.0,0.0,0.0,0.0,0.0,0.0,0.0,0.0,0.0,0.0,0.0,0.0,0.0,0.0,0.0,0.0,0.0,0.0,0.0,0.0,0.0,0.0,0.0,0.0,0.0,0.0,0.0,0.0,0.0,0.0,0.0,0.0,0.0,0.0,0.0,0.0,0.0,0.0,0.0,0.0,0.0,0.0,4.0666,4.2182,4.3389,4.4027,4.4558,4.5005,4.5359,4.4609,4.419,4.4338,0.0,0.0,0.0,0.0,0.0,0.0,0.0,0.0,0.0,0.0,0.0,0.0,0.0,0.0,0.0,0.0,0.0,0.0,0.0,0.0,0.0,0.0,0.0,0.0,0.0,0.0,0.0,0.0,0.0,0.0,0.0,0.0,0.0,0.0,0.0,0.0,0.0,0.0,0.0,0.0,0.0,0.0,0.0,0.0,0.0,0.0,0.0,0.0,0.0,0.0,0.0,0.0,0.0,0.0,0.0,0.0,0.0,0.0,0.0,0.0,0.0,0.0,0.0,0.0,0.0,0.0,0.0,0.0,0.0,0.0,0.0,0.0,0.0,0.0,0.0,0.0,0.0,0.0,0.0,0.0,0.0,0.0,0.0,0.0,0.0,0.0,0.0,0.0,0.0,0.0,0.0,0.0,0.0,0.0,0.0,0.0,0.0,0.0,0.0,0.0,0.0,0.0,4.1493,4.321,4.4646,4.5286,4.5666,4.5878,4.5912,4.5048,4.4329,4.3857,0.0,0.0,0.0,0.0,0.0,0.0,0.0,0.0,0.0,0.0,0.0,0.0,0.0,0.0,0.0,0.0,0.0,0.0,0.0,0.0,0.0,0.0,0.0,0.0,0.0,0.0,0.0,0.0,0.0,0.0,0.0,0.0,0.0,0.0,0.0,0.0,0.0,0.0,0.0,0.0,0.0,0.0,0.0,0.0,0.0,0.0,0.0,0.0,0.0,0.0,0.0,0.0,0.0,0.0,0.0,0.0,0.0,0.0,0.0,0.0,2.7878,2.68,0.0,0.0,0.0,0.0,0.0,0.0,0.0,0.0,0.0,0.0,0.0,0.0,0.0,0.0,0.0,0.0,0.0,0.0,0.0,0.0,0.0,0.0,0.0,0.0,0.0,0.0,0.0,0.0,0.0,0.0,0.0,0.0,0.0,0.0,0.0,0.0,0.0,0.0,0.0,0.0,4.2891,4.4197,4.5237,4.5573,4.5675,4.5981,4.6624,4.5326,4.4644,4.501,4.3091,0.0,0.0,0.0,0.0,0.0,0.0,0.0,0.0,0.0,0.0,0.0,0.0,0.0,0.0,0.0,0.0,0.0,0.0,0.0,0.0,0.0,0.0,0.0,0.0,0.0,0.0,0.0,0.0,0.0,0.0,0.0,0.0,0.0,0.0,0.0,0.0,0.0,0.0,0.0,0.0,0.0,0.0,0.0,0.0,0.0,0.0,0.0,0.0,0.0,0.0,0.0,0.0,0.0,0.0,0.0,0.0,0.0,0.0,0.0,3.057,2.9373,0.0,0.0,0.0,0.0,0.0,0.0,0.0,0.0,0.0,0.0,0.0,0.0,0.0,0.0,0.0,0.0,0.0,0.0,0.0,0.0,0.0,0.0,0.0,0.0,0.0,0.0,0.0,0.0,0.0,0.0,0.0,0.0,0.0,0.0,0.0,0.0,0.0,0.0,0.0,0.0,4.3778,4.516,4.6237,4.6569,4.6724,4.6945,4.7336,4.6063,4.5191,4.5167,4.3468,0.0,0.0,0.0,0.0,0.0,0.0,0.0,0.0,0.0,0.0,0.0,0.0,0.0,0.0,0.0,0.0,0.0,0.0,0.0,0.0,0.0,0.0,0.0,0.0,0.0,0.0,0.0,0.0,0.0,0.0,0.0,0.0,0.0,0.0,0.0,0.0,0.0,0.0,0.0,0.0,0.0,0.0,0.0,0.0,0.0,0.0,0.0,0.0,0.0,0.0,0.0,0.0,0.0,3.4727,3.5426,3.5905,3.569,3.5581,3.55,3.4054,3.2903,3.2051,3.2196,0.0,0.0,0.0,0.0,0.0,0.0,0.0,0.0,0.0,0.0,0.0,0.0,0.0,0.0,0.0,0.0,0.0,0.0,0.0,0.0,0.0,0.0,4.091,4.198,4.2474,4.2233,4.0618,0.0,0.0,0.0,0.0,0.0,0.0,0.0,0.0,0.0,0.0,0.0,4.4858,4.6452,4.7649,4.8054,4.8165,4.8219,4.8223,4.6885,4.5805,4.5194,4.3796,4.2743,0.0,0.0,0.0,0.0,0.0,0.0,0.0,0.0,0.0,0.0,0.0,0.0,0.0,0.0,0.0,0.0,0.0,0.0,0.0,0.0,0.0,0.0,0.0,0.0,0.0,0.0,0.0,0.0,0.0,0.0,0.0,0.0,2.7506,2.8717,0.0,0.0,0.0,0.0,0.0,0.0,0.0,0.0,0.0,0.0,0.0,0.0,0.0,3.2505,3.3212,3.4412,3.505,3.5177,3.7028,3.7925,3.8006,3.8483,3.8722,3.8695,3.845,0.0,3.2643,3.3333,0.0,0.0,0.0,0.0,0.0,0.0,0.0,0.0,0.0,0.0,0.0,0.0,0.0,0.0,0.0,0.0,0.0,0.0,0.0,0.0,0.0,0.0,4.2763,4.3051,4.3468,4.3756,4.3678,4.2322,4.1305,4.2002,4.1624,4.1276,0.0,0.0,0.0,0.0,0.0,0.0,4.7395,4.8723,4.9691,4.9905,4.9429,4.9212,4.9426,4.7497,4.6223,4.6139,4.4162,4.2955,4.2864,4.2773,0.0,0.0,0.0,0.0,0.0,0.0,0.0,0.0,0.0,0.0,0.0,0.0,0.0,0.0,0.0,0.0,0.0,0.0,0.0,0.0,0.0,0.0,0.0,0.0,0.0,0.0,0.0,0.0,0.0,2.7202,2.8699,2.924,2.9976,3.0293,0.0,0.0,0.0,0.0,0.0,0.0,0.0,0.0,0.0,3.4919,3.5465,3.5952,3.6277,3.7163,3.7779,3.8103,3.9306,4.0083,4.0408,4.0703,4.0811,4.0811,4.0458,3.8942,3.6718,3.6529,3.5656,3.4495,0.0,0.0,0.0,0.0,3.4477,3.4793,3.5467,3.5676,3.5751,3.6076,0.0,0.0,0.0,0.0,0.0,0.0,0.0,4.0641,4.2924,4.4107,4.4825,4.5275,4.5904,4.6446,4.651,4.5274,4.4137,4.4068,4.3798,4.3589,4.3589,4.3978,0.0,0.0,0.0,4.7268,4.7916,4.8715,4.92,4.9157,4.9408,4.9391,4.9127,4.8183,4.7262,4.6515,4.5209,4.4293,4.3895,4.3895,4.4043,0.0,0.0,0.0,0.0,0.0,0.0,0.0,0.0,0.0,0.0,0.0,0.0,0.0,0.0,0.0,0.0,0.0,0.0,0.0,0.0,0.0,0.0,0.0,0.0,0.0,0.0,0.0,0.0,2.8375,2.9717,2.9811,3.1172,3.1834,0.0,0.0,0.0,0.0,0.0,0.0,3.6326,3.6966,3.7504,3.798,3.8791,3.9207,3.9207,3.9663,4.0042,4.034,4.1009,4.1652,4.2249,4.2385,4.2548,4.2683,4.2436,4.1914,4.1066,3.9504,3.819,3.7199,3.7262,3.7284,3.7229,3.6795,3.6741,3.6931,3.7365,3.7528,3.7555,3.7718,3.8069,3.8404,3.7933,0.0,0.0,0.0,0.0,4.2322,4.4676,4.5811,4.6504,4.7159,4.7947,4.8558,4.8558,4.7758,4.683,4.5992,4.5663,4.5535,4.5417,4.5703,0.0,4.6757,4.726,4.7822,4.8572,4.9101,4.9341,4.9172,4.9658,4.9712,4.9189,4.8666,4.7989,4.7157,4.6326,4.5638,4.5145,4.5267,4.5521,4.5915,0.0,0.0,0.0,0.0,0.0,0.0,0.0,0.0,0.0,0.0,0.0,0.0,0.0,0.0,0.0,0.0,0.0,0.0,0.0,0.0,0.0,0.0,0.0,0.0,0.0,0.0,0.0,0.0,0.0,3.1242,3.3001,0.0,0.0,0.0,0.0,3.6004,3.6319,3.7235,3.9008,3.9134,3.9947,4.1659,4.1551,4.1433,4.1433,4.1459,4.1217,4.0706,4.1534,4.2276,4.2846,4.3441,4.4013,4.4606,4.5348,4.533,4.4506,4.1379,3.9613,3.8917,3.9089,3.9156,3.9156,3.9129,3.9481,3.9992,4.002,4.002,4.0106,4.068,4.099,4.1095,4.1062,4.1184,0.0,0.0,4.3616,4.3818,4.628,4.7076,4.7407,4.8087,4.8768,4.9247,4.9247,4.9187,4.8768,4.7459,4.6689,4.6145,4.5764,0.0,4.6715,4.721,4.7843,4.8814,5.0356,5.1137,5.1559,5.1537,5.1005,5.0636,5.0605,4.8789,4.7896,4.846,4.7281,4.6542,4.648,4.7037,4.7555,4.7951,4.797,0.0,0.0,0.0,0.0,0.0,0.0,0.0,0.0,0.0,0.0,0.0,0.0,0.0,0.0,0.0,0.0,0.0,0.0,0.0,0.0,0.0,0.0,0.0,0.0,0.0,0.0,0.0,0.0,3.4281,3.5772,0.0,3.5888,3.6195,3.7103,3.8693,3.889,3.9884,4.2083,4.2192,4.268,4.3715,4.3643,4.3591,4.3591,4.3591,4.351,4.3269,4.3963,4.442,4.4662,4.5406,4.5849,4.6067,4.6489,4.6541,4.6262,4.5119,4.3768,4.2379,4.203,4.1862,4.1862,4.1862,4.1692,4.1542,4.1929,4.1745,4.1451,4.2181,4.2457,4.2726,4.3455,4.3791,4.4311,4.6123,4.6563,4.6937,4.8596,4.9104,4.9232,4.9471,5.0032,5.0511,5.0511,5.0649,5.0787,5.0704,4.9449,4.8358,4.8205,4.8637,4.9169,4.9778,4.9868,5.0211,5.1221,5.119,5.1067,5.1067,5.082,5.0513,5.0103,4.9374,4.8666,4.8019,4.7527,4.7185,4.7048,4.7793,4.8516,4.9165,4.9727,4.9609,0.0,0.0,0.0,0.0,0.0,0.0,0.0,0.0,0.0,0.0,0.0,0.0,0.0,0.0,0.0,0.0,0.0,0.0,0.0,0.0,0.0,0.0,0.0,0.0,0.0,3.41,3.6034,3.6433,3.7853,3.8659,3.8254,3.8526,3.9459,4.1296,4.1598,4.2575,4.4608,4.4907,4.5287,4.5859,4.5695,4.5505,4.5316,4.5098,4.4908,4.4719,4.5378,4.5803,4.6048,4.7047,4.7619,4.7841,4.8485,4.8764,4.876,4.8798,4.8097,4.6793,4.5228,4.4571,4.4571,4.4571,4.414,4.3594,4.3965,4.3755,4.3427,4.4181,4.4687,4.5085,4.5855,4.6358,4.6941,4.8365,4.8693,4.8887,4.992,5.0196,5.0255,5.0465,5.1056,5.1642,5.1952,5.2148,5.2409,5.298,5.162,5.0343,5.0199,5.0427,5.08,5.1347,5.1225,5.1282,5.1959,5.1652,5.1282,5.1067,5.1036,5.0851,5.0389,4.998,4.9395,4.8696,4.8419,4.8142,4.7763,4.8744,4.9516,5.0048,5.0744,5.0389,4.8937,0.0,0.0,0.0,0.0,0.0,0.0,0.0,0.0,0.0,0.0,0.0,0.0,0.0,0.0,0.0,0.0,0.0,0.0,0.0,0.0,0.0,0.0,0.0,3.3197,3.5686,3.7652,3.7612,3.9235,4.0345,4.0345,4.0892,4.1978,4.3739,4.4447,4.5288,4.6509,4.7106,4.7649,4.8164,4.7676,4.7133,4.6563,4.5967,4.5423,4.4851,4.5625,4.6352,4.6988,4.8347,4.9323,4.9953,5.1416,5.2059,5.205,5.2167,5.2187,5.1864,4.8537,4.7243,4.7243,4.7243,4.6794,4.6208,4.6156,4.6081,4.6129,4.6904,4.7635,4.8219,4.8271,4.8761,4.9456,5.0099,4.9853,4.9546,5.0129,5.0285,5.0458,5.1116,5.1768,5.2498,5.3453,5.3676,5.3748,5.4012,5.299,5.1957,5.1458,5.1359,5.1448,5.17,5.1744,0.0,5.2637,5.2676,5.2452,5.1805,5.1713,5.1713,5.1713,5.0482,5.0011,5.0667,5.0103,4.9426,4.8717,4.9925,5.0587,5.0486,5.0876,5.0332,4.8818,0.0,0.0,0.0,0.0,0.0,0.0,0.0,0.0,0.0,0.0,0.0,0.0,0.0,0.0,0.0,0.0,0.0,0.0,0.0,0.0,0.0,3.5063,3.6476,3.614,3.879,4.1093,4.1956,4.2885,4.347,4.347,4.4013,4.4746,4.5694,4.6318,4.697,4.7676,4.7893,4.8056,4.8219,4.8056,4.7893,4.7731,4.7568,4.7699,4.8166,4.8401,4.8925,4.9737,5.0691,5.1216,5.1445,5.2418,5.2881,5.2846,5.2384,5.2187,5.2049,5.0627,5.0076,5.0076,5.0076,4.9604,4.8798,4.7808,4.7798,4.8254,4.8468,4.874,4.9095,4.9525,4.9789,5.0189,5.1349,5.1528,5.1528,5.2217,5.2366,5.2474,5.2876,5.308,5.3477,5.4407,5.4752,5.5073,5.5633,5.516,5.4274,5.2971,5.2902,5.2885,5.2491,5.2452,5.2513,5.2698,5.2676,5.2637,5.2429,5.199,5.1713,5.1713,5.0913,5.0482,5.0697,5.0513,5.0627,5.1058,5.0786,5.0587,5.0486,5.0392,4.9999,0.0,0.0,0.0,0.0,0.0,0.0,0.0,0.0,0.0,0.0,0.0,0.0,0.0,0.0,0.0,0.0,0.0,0.0,0.0,0.0,0.0,0.0,3.7386,3.9323,4.0156,4.1923,4.3579,4.4798,4.526,4.5533,4.583,4.6156,4.6699,4.7513,4.8165,4.8735,4.9304,4.9575,4.971,4.971,4.9222,4.8951,4.8951,4.8791,4.9003,4.9508,5.0216,5.0812,5.1324,5.2427,5.2895,5.295,5.3719,5.4037,5.4007,5.3623,5.3443,5.3294,0.0,0.0,0.0,0.0,5.0882,5.0355,4.9902,5.0009,5.0388,5.0701,5.087,5.1013,5.1349,5.1445,5.1594,5.2396,5.2606,5.2719,5.323,5.3374,5.3597,5.4407,5.4607,5.4861,5.5798,5.6146,5.6323,5.6512,5.635,0.0,5.4512,5.4183,5.4091,5.3991,5.396,5.396,5.396,5.3691,5.3414,5.3137,5.2522,5.2144,5.2144,5.1498,0.0,0.0,0.0,5.1883,5.2697,5.1896,0.0,0.0,0.0,5.0836,5.0318,4.9426,0.0,0.0,4.7951,4.7656,0.0,0.0,0.0,0.0,0.0,0.0,0.0,0.0,0.0,0.0,0.0,0.0,0.0,0.0,0.0,0.0,3.9623,4.2502,4.4653,4.5146,4.5641,4.659,4.6699,4.6943,4.754,4.7649,4.8138,4.9222,4.9846,5.0444,5.096,5.15,0.0,0.0,0.0,5.0228,5.0341,5.0077,5.0033,5.0246,5.1732,5.2499,5.2624,5.3952,5.4551,5.4551,5.5089,5.5299,5.5299,5.5149,5.5029,5.473,5.2516,5.1654,5.1624,5.1565,5.1457,5.1444,5.2096,0.0,0.0,5.2979,5.3198,5.3198,5.3198,5.3198,5.3228,5.3288,5.3343,5.3446,5.3845,5.3978,5.4376,5.5888,5.6266,5.6522,5.7375,5.7547,5.7438,5.7008,5.697,5.6755,5.5954,5.5253,5.4983,5.5499,5.5592,5.5592,5.5592,5.5076,5.4491,5.3876,5.326,0.0,5.2799,5.2267,5.1898,5.1836,5.2485,5.306,5.3455,5.3012,5.2548,5.2129,5.2342,5.2057,5.1234,5.0294,4.9826,4.9774,4.8974,4.8583,0.0,0.0,0.0,0.0,0.0,0.0,0.0,0.0,0.0,0.0,0.0,0.0,0.0,0.0,0.0,4.0979,4.2835,4.4838,4.7756,4.8624,4.868,4.7948,4.7866,4.811,4.8707,4.9223,4.9793,5.0498,5.1094,5.15,5.1609,5.1744,5.1799,5.1799,5.1582,5.1796,5.257,5.2518,5.3216,5.4659,5.498,0.0,5.6109,5.6414,5.6526,5.6526,5.6162,5.6013,5.5923,5.485,5.4072,5.3648,5.4192,5.4431,5.4371,5.3832,5.3614,5.3545,5.3125,5.2982,5.3003,5.315,5.3198,5.3198,5.3198,5.3198,0.0,5.3862,5.416,5.4597,5.5732,5.6179,5.6611,5.7678,5.7942,5.8048,5.8422,5.8527,5.8368,5.774,5.8048,5.8017,5.6785,5.5985,5.5376,5.4952,5.4891,5.4891,5.4891,5.4799,5.4645,5.4522,5.4399,5.4091,5.3537,5.3383,5.3076,5.2544,5.3485,5.347,5.212,5.3141,5.2854,5.1062,5.1361,5.1297,5.0827,5.0617,5.0513,5.0482,4.922,4.8583,0.0,0.0,0.0,0.0,0.0,0.0,0.0,0.0,0.0,0.0,0.0,3.4445,3.5567,0.0,4.0738,4.3595,4.5209,4.6806,4.8813,4.9901,5.0227,4.9602,4.9819,5.0117,5.0416,5.0714,5.1148,5.1774,5.2371,5.2723,5.2723,5.3171,5.3261,5.2961,5.3103,5.3431,5.392,5.4345,5.5032,5.5901,5.6303,5.6727,5.7094,5.7094,5.7094,5.7064,5.6765,5.6492,5.6162,5.5504,5.5179,5.5209,5.5867,5.5329,5.4216,5.4192,5.4221,5.4221,5.4192,5.4216,5.4216,5.4216,5.4216,5.4216,5.4216,5.4216,5.4361,5.5175,5.5481,5.5897,5.7173,5.7593,5.7953,5.8879,5.9108,5.9133,5.926,5.9311,5.9095,5.8418,5.8572,5.8602,5.7925,5.7494,5.6884,5.5899,5.5745,5.5745,5.5745,5.5438,5.5222,5.5222,5.4891,5.4429,5.3753,5.3383,5.3203,5.321,5.3421,5.3439,5.3193,5.3608,5.3481,5.2726,5.2569,5.2396,5.2206,5.1528,5.119,5.119,5.0143,4.9651,0.0,0.0,0.0,0.0,0.0,0.0,0.0,3.148,3.1984,3.2489,3.4728,3.6957,3.8265,4.1029,4.3703,4.5554,4.7204,4.8519,4.9328,5.0498,5.1258,5.1258,5.1584,5.1853,5.1961,5.207,5.2395,5.3022,5.3679,5.4036,5.4036,5.4804,5.5102,5.4731,5.5004,5.5221,5.5395,5.6233,5.6657,5.6731,5.752,5.7872,5.7872,5.7872,5.7812,5.7663,5.7423,5.6944,5.6372,5.6372,5.6671,5.7094,5.7094,5.5807,5.4037,5.4551,5.476,5.485,5.5388,5.5568,5.5568,5.5568,5.5568,5.5568,5.5568,5.5568,5.5709,5.6478,5.6731,5.7035,5.8212,5.8573,5.8828,5.9788,5.9993,5.9993,5.9993,5.9993,5.9778,5.9126,5.9095,5.9126,5.8849,5.891,5.8572,5.7371,5.7087,5.697,5.697,5.6354,5.5899,5.5899,5.5438,5.4829,5.4153,5.3604,5.3477,5.3862,5.3778,5.3997,5.4677,5.4442,5.4442,5.4697,5.4166,5.3877,5.3876,5.2799,5.2276,5.2267,5.1744,5.119,3.2215,3.1288,3.0813,3.2594,3.2333,3.22,0.0,3.504,3.5232,3.5761,3.8415,4.0696,4.0952,4.3755,4.6434,4.7677,4.8921,4.9978,5.0634,5.1747,5.2506,5.2506,5.207,5.2016,5.2531,5.3076,5.3646,5.4243,5.5145,5.5627,5.5627,5.6022,5.6512,5.7005,5.7069,5.7444,5.8256,5.8952,5.9404,5.9648,6.0301,6.0627,6.0627,6.0627,6.0326,5.9697,5.853,5.7633,5.7004,5.7004,5.7034,5.7094,5.7094,5.6915,5.6675,5.6735,5.6765,5.6795,5.6855,5.6885,5.6885,5.6885,5.6885,5.6885,5.6885,5.6885,5.6885,5.7027,5.7213,5.7652,5.868,5.9122,5.9506,6.0465,6.0701,6.0701,6.0701,6.0701,6.0486,5.9834,6.0178,6.0178,5.9003,5.9285,5.9465,5.8695,5.8079,5.7678,5.7678,5.7093,5.6662,5.6662,5.6601,5.6262,5.553,5.5447,5.5198,5.4615,5.6306,5.6541,5.4759,5.581,5.5914,5.4723,5.4638,5.4591,5.4583,5.4429,5.4368,5.4368,5.4306,5.2983,3.4749,3.4022,3.3591,3.409,3.4316,3.4703,3.5833,3.6963,3.7957,3.8498,4.128,4.386,4.454,4.6517,4.8409,4.9575,5.02,5.0743,5.1339,5.2181,5.2647,5.25,5.2706,5.3163,5.3945,5.4276,5.4749,5.5566,5.629,5.6731,5.6771,5.7385,5.7872,5.8192,5.8752,5.919,5.9587,6.0193,6.056,6.0685,6.0984,6.1076,6.1076,6.1076,6.0745,6.0054,5.9261,5.8771,5.847,5.829,5.8433,5.8795,5.8795,5.8795,5.8591,5.7105,5.6581,5.6521,5.6107,5.5987,5.5987,5.5987,5.6282,5.6581,5.6581,5.6821,5.7262,5.7992,5.8295,5.8629,5.977,6.013,6.0326,6.0706,6.0794,6.0794,6.0794,6.0794,6.0701,6.0424,6.0609,6.0609,6.0055,6.0178,6.027,5.9993,5.9064,5.8387,5.8387,5.814,5.7956,5.7956,5.7247,5.6662,5.6354,5.5759,5.5243,5.4963,5.5901,5.6021,5.4986,5.5507,5.5646,5.5284,5.4891,5.4891,5.5284,5.4891,5.4706,5.4706,5.4706,5.4091,3.5641,3.5324,3.5402,3.5451,3.6265,3.7156,3.7445,3.9081,4.0611,4.101,4.371,4.6241,4.7088,4.8503,4.9901,5.077,5.1177,5.1586,5.2106,5.2482,5.2679,5.2566,5.2904,5.3552,5.4649,5.4971,5.5416,5.6074,5.7325,5.8007,5.7915,5.9002,5.9664,5.9712,6.0383,6.0728,6.0722,6.1327,6.1553,6.1373,6.1553,6.1642,6.1642,6.1463,6.1104,6.0623,6.0156,5.9964,6.0042,5.98,6.0024,6.0532,6.0532,6.0532,6.0323,5.8264,5.7385,5.7174,5.6693,5.6517,5.6517,5.6517,5.6874,5.7264,5.7264,5.7565,5.8095,5.9027,5.9283,5.9479,6.0437,6.069,6.0716,6.0768,6.0794,6.0794,6.0794,6.0794,6.0794,6.0794,6.0794,6.0794,6.0794,6.0794,6.0794,6.0794,5.9963,5.9255,5.9095,5.896,5.8918,5.8918,5.8213,5.7697,5.7583,5.7129,5.6588,5.6052,5.6598,5.6581,5.5794,5.5981,5.6109,5.6199,5.5742,5.5711,5.6199,5.5711,5.5472,5.5472,5.5401,5.5378,3.2989,3.3307,3.4559,3.6603,3.795,3.8981,4.0042,4.1846,4.3294,4.3319,4.5662,4.7719,4.7772,4.9469,5.0851,5.0878,5.1882,5.2758,5.3114,5.2904,5.2815,5.3141,5.2384,5.2462,5.3992,5.4862,5.5383,5.541,5.8257,5.9767,5.918,6.0956,6.1987,6.1998,6.2028,6.2054,6.2033,6.269,6.2718,6.2061,6.2748,6.3048,6.3018,6.2361,6.2061,6.2002,6.1343,6.1211,6.1428,6.1428,6.1621,6.1953,6.1953,6.1953,6.1862,6.1106,6.0441,5.9868,5.9868,5.9868,5.9868,5.9868,5.9868,5.9868,5.9868,5.9899,5.9929,5.9955,5.9986,6.0065,6.0324,6.0403,6.0481,6.0742,6.0794,6.0794,6.0794,6.0794,6.0794,6.0794,6.0794,6.0794,6.0794,6.0794,6.0794,6.0794,6.0763,6.0486,5.9839,5.9419,5.9191,5.9191,5.9808,6.0011,5.9534,6.055,6.0408,5.8518,5.9743,5.9608,5.7516,5.8097,5.8156,5.7464,5.7433,5.7433,5.7464,5.7433,5.7433,5.7409,5.7172,5.7022,3.6601,3.7161,3.807,3.9489,4.0379,4.1272,4.2614,4.4198,4.5464,4.568,4.7298,4.8534,4.8158,4.8946,5.0039,5.1083,5.1727,5.2486,5.3633,5.3858,5.3577,5.2703,5.3204,5.358,5.3526,5.4476,5.5823,5.7517,5.8989,6.0411,6.1714,6.2401,6.2971,6.3356,6.3356,6.3262,6.3036,6.3074,6.3074,6.3036,6.3074,6.3108,6.3108,6.2868,6.251,6.2091,6.205,6.1941,6.1852,6.2044,6.2259,6.253,6.253,6.253,6.2499,6.2281,6.2039,6.168,6.0449,6.0012,5.9921,5.9496,5.9648,5.9921,5.9466,5.9652,6.0134,6.0742,6.0612,6.0447,6.1138,6.1002,6.069,6.0768,6.0794,6.0794,6.0794,6.0794,6.0794,6.0794,6.0794,6.0794,6.0794,6.0794,6.0794,6.0794,6.0794,6.0701,6.0486,6.0347,6.0244,6.0244,6.0241,6.0191,6.0017,6.0292,6.0179,5.9546,6.0083,5.9844,5.8482,5.8671,5.8389,5.7519,5.7519,5.7519,5.7519,5.7298,5.7227,5.7227,5.6995,5.6971,3.8708,3.9504,4.0475,4.1701,4.2718,4.3594,4.4561,4.6006,4.7184,4.7179,4.8017,4.8598,4.8002,4.8301,4.9035,5.0345,5.0997,5.1869,5.3554,5.364,5.3386,5.2977,5.3566,5.3973,5.3855,5.5067,5.6579,5.8288,5.9761,6.1278,6.285,6.3682,6.4189,6.4336,6.4366,6.4244,6.4029,6.3855,6.3913,6.4203,6.3913,6.3706,6.3611,6.3466,6.3107,6.2622,6.2792,6.2859,6.2881,6.3046,6.3292,6.3564,6.3564,6.3564,6.3564,6.3564,6.3564,6.3325,6.1596,6.1,6.0913,6.0512,6.0665,6.0913,6.0512,6.0669,6.1123,6.1737,6.1576,6.1414,6.2003,6.184,6.144,6.1225,6.1163,6.1101,6.0855,6.0794,6.0794,6.0794,6.0794,6.0794,6.0794,6.0794,6.0794,6.0794,6.1009,6.1071,6.0824,6.0871,6.0923,6.0923,6.0955,6.0908,6.0732,6.0801,6.0718,6.0401,6.0459,6.0192,5.9428,5.9152,5.8861,5.8499,5.8279,5.8201,5.8356,5.8285,5.8213,5.8093,5.8004,5.8093,3.9289,4.0386,4.1779,4.3325,4.4804,4.5903,4.5969,4.7353,4.8428,4.7795,4.791,4.7948,4.7377,4.7483,4.7999,4.8952,4.9936,5.117,5.3063,5.2605,5.2627,5.3992,5.3778,5.3942,5.5072,5.6614,5.7713,5.8057,6.0592,6.2301,6.2698,6.4813,6.5682,6.5084,6.5054,6.5024,6.5024,6.5024,6.5142,6.5407,6.5112,6.4782,6.4441,6.4181,6.3851,6.3538,6.3568,6.388,6.4382,6.4382,6.4607,6.4888,6.4888,6.4915,6.4943,6.4943,6.4998,6.4841,6.3514,6.2998,6.2971,6.2914,6.291,6.2936,6.2905,6.2905,6.2905,6.2963,6.2932,6.2932,6.2963,6.2905,6.2694,6.2016,6.1867,6.1686,6.1009,6.0855,6.0855,6.0855,6.0824,6.0794,6.0794,6.0794,6.085,6.0855,6.1409,6.1594,6.0917,6.1093,6.1278,6.1278,6.1985,6.2229,6.1732,6.2123,6.2038,6.1137,6.1043,6.0795,6.0368,5.9736,5.9673,6.0297,5.9665,5.9523,5.992,6.0153,6.0153,5.992,5.9968,6.0249,4.1776,4.3083,4.4477,4.6006,4.6699,4.7263,4.8313,4.858,4.8389,4.762,4.719,4.6618,4.5587,4.6534,4.7919,4.9255,5.0943,5.2773,5.4649,5.5645,5.5936,5.5232,5.6645,5.7633,5.7523,5.8724,6.022,6.1993,6.2327,6.3021,6.4338,6.5412,6.5922,6.5772,6.5772,6.5622,6.535,6.538,6.4927,6.3992,6.4417,6.4441,6.4122,6.458,6.4429,6.391,6.4395,6.4532,6.4382,6.4382,6.4607,6.4888,6.4888,6.5269,6.5808,6.5808,6.6178,6.6638,6.6257,6.5744,6.5156,6.4444,6.4601,6.4977,6.4292,6.4212,6.4486,6.4966,6.4899,6.4793,6.5274,6.4584,6.361,6.2922,6.2653,6.2337,6.1686,6.1563,6.1563,6.1563,6.1132,6.0794,6.0794,6.0949,6.1211,6.1497,6.1844,6.1958,6.1589,6.2047,6.2382,6.2382,6.2751,6.296,6.2803,6.2617,6.2447,6.2214,6.1714,6.1246,6.0827,6.0662,6.0483,6.0297,6.0139,6.0115,6.0201,6.0137,6.004,5.9968,6.0153,6.0384,4.3832,4.4967,4.611,4.7428,4.7896,4.808,4.826,4.8368,4.799,4.6539,4.5966,4.5397,4.4474,4.5635,4.7182,4.8571,5.0788,5.3038,5.5212,5.6194,5.6713,5.6679,5.7803,5.8791,5.9313,6.0401,6.1802,6.3669,6.3579,6.4031,6.5383,6.6071,6.643,6.643,6.643,6.6342,6.6162,6.5862,6.5561,6.5256,6.5347,6.5372,6.5327,6.5722,6.5567,6.5073,6.5439,6.5549,6.5497,6.5497,6.5609,6.578,6.578,6.6306,6.7036,6.7036,6.7541,6.8272,6.8272,6.8194,6.7851,6.6343,6.6156,6.6396,6.5886,6.581,6.6033,6.6416,6.6358,6.6261,6.6645,6.5871,6.4832,6.414,6.3587,6.3045,6.2368,6.224,6.2148,6.1871,6.158,6.1319,6.1036,6.1325,6.1717,6.1932,6.2487,6.2862,6.2702,6.2737,6.2798,6.2798,6.2932,6.3039,6.3039,6.28,6.2669,6.2617,6.2268,6.1915,6.1631,6.1309,6.1194,6.1221,6.0929,6.0881,6.1043,6.105,6.1099,6.1245,6.1479,6.1877,4.5379,4.6295,4.7256,4.8263,4.8767,4.867,4.7389,4.7616,4.7432,4.5071,4.4583,4.4418,4.3843,4.4943,4.638,4.7747,5.0244,5.2924,5.5444,5.5944,5.6636,5.827,5.8359,5.894,6.0768,6.1776,6.2953,6.436,6.4706,6.5157,6.5951,6.664,6.6999,6.6999,6.6999,6.7029,6.7091,6.6491,6.6613,6.7487,6.6913,6.673,6.6994,6.7085,6.6897,6.6457,6.6549,6.6692,6.6891,6.6891,6.6948,6.7002,6.7031,6.7648,6.8468,6.8495,6.9089,6.9799,6.9702,7.0138,7.0377,6.837,6.7722,6.7734,6.7683,6.7644,6.7573,6.7573,6.7599,6.7624,6.7624,6.704,6.6228,6.5455,6.468,6.3915,6.3102,6.2922,6.2764,6.2139,6.22,6.2198,6.1629,6.2007,6.2414,6.245,6.3259,6.3899,6.3937,6.3445,6.3102,6.3102,6.3102,6.3102,6.3129,6.2944,6.2814,6.2747,6.258,6.241,6.2347,6.1867,6.1923,6.2516,6.214,6.2098,6.2418,6.2748,6.302,6.3233,6.3549,6.4147,4.5749,4.7214,4.8866,4.9926,5.0131,4.9818,4.8909,4.811,4.6862,4.4445,4.3956,4.384,4.346,4.4795,4.6622,4.8562,5.1347,5.4252,5.6993,5.8248,5.9094,5.9714,6.023,6.108,6.2538,6.3279,6.4453,6.6335,6.6545,6.6397,6.6011,6.664,6.6999,6.6999,6.6999,6.7152,6.7426,6.7306,6.7275,6.7445,6.7323,6.7133,6.6932,6.7485,6.7391,6.6834,6.7418,6.7354,6.6891,6.6891,6.7172,6.7675,6.7898,6.8798,6.9962,7.0164,7.0812,7.149,7.0864,7.074,7.0757,7.0076,6.9885,6.9903,6.9679,6.9354,6.9067,6.9067,6.9213,6.9382,6.9382,6.8765,6.7831,6.6409,6.5896,6.5295,6.3915,6.3629,6.3495,6.3114,6.3096,6.314,6.3251,6.3371,6.3546,6.3893,6.4092,6.4329,6.4669,6.4611,6.4549,6.4549,6.4549,6.4628,6.4874,6.3795,6.3216,6.349,6.2424,6.1859,6.2066,6.2538,6.2947,6.3299,6.4161,6.4647,6.4725,6.522,6.5457,6.5562,6.602,6.6362,4.664,4.7841,4.9249,5.0334,5.0192,4.9473,4.8082,4.6835,4.5314,4.29,4.2629,4.2943,4.3235,4.4738,4.6481,4.8107,5.0629,5.3628,5.7106,5.778,5.8706,6.0859,6.1126,6.1791,6.3424,6.4149,6.5209,6.6878,6.6999,6.6849,6.655,6.6819,6.7148,6.7508,6.7693,6.8027,6.8542,6.8394,6.8243,6.8209,6.8052,6.7863,6.7703,6.8186,6.8243,6.7966,6.8274,6.8243,6.7964,6.8422,6.8791,6.913,6.9679,7.0631,7.1669,7.1799,7.2397,7.3103,7.2738,7.2639,7.2573,7.2426,7.1613,7.0607,7.0089,7.0303,7.059,6.9805,7.0232,7.0759,6.9997,6.9484,6.8758,6.7176,6.6138,6.5285,6.4539,6.4474,6.4452,6.3933,6.4044,6.4157,6.397,6.422,6.4486,6.4693,6.4773,6.4952,6.5262,6.5187,6.5108,6.5108,6.4905,6.4979,6.5452,6.4893,6.4471,6.4418,6.3787,6.3384,6.3293,6.3633,6.3899,6.4026,6.4596,6.4881,6.4881,6.54,6.582,6.612,6.665,6.7029,4.7347,4.8461,4.969,5.0487,5.012,4.9014,4.7109,4.5558,4.3904,4.1737,4.1679,4.229,4.3126,4.4568,4.6061,4.748,4.9674,5.2659,5.6815,5.6957,5.7969,6.1561,6.1529,6.1937,6.3832,6.4605,6.5548,6.6908,6.6999,6.6999,6.6999,6.7211,6.7571,6.8081,6.8571,6.918,6.9907,6.9518,6.9428,6.9641,6.9242,6.8903,6.8719,6.8987,6.9012,6.8919,6.9123,6.918,6.9238,7.0098,7.055,7.0746,7.1488,7.2331,7.311,7.3162,7.3602,7.4163,7.403,7.3964,7.3931,7.3765,7.2647,7.1256,7.0693,7.1223,7.1753,7.0593,7.1123,7.172,7.056,7.0124,6.9505,6.7741,6.6258,6.5249,6.5211,6.5311,6.5282,6.499,6.5147,6.5214,6.4701,6.5025,6.5345,6.5345,6.5388,6.5487,6.5673,6.544,6.5363,6.5674,6.5218,6.5165,6.575,6.5656,6.5477,6.5235,6.5046,6.4836,6.4506,6.4632,6.4804,6.49,6.5161,6.5352,6.5479,6.5999,6.6468,6.689,6.7323,6.7702,4.7401,4.912,5.1075,5.1071,5.0499,4.9491,4.7703,4.5531,4.3522,4.2195,4.1978,4.229,4.3126,4.4077,4.537,4.7392,4.9524,5.2461,5.6788,5.7352,5.8474,6.165,6.1529,6.1937,6.3832,6.4605,6.5548,6.6908,6.6999,6.6999,6.6999,6.7876,6.8391,6.8451,6.9364,7.0341,7.132,7.0679,7.0832,7.1721,7.0983,7.0368,6.9783,6.9782,6.9474,6.8948,6.9758,7.0101,7.0127,7.1021,7.1679,7.2256,7.2629,7.3162,7.3771,7.3993,7.4146,7.4097,7.3442,7.321,7.3078,7.2415,7.2515,7.2912,7.2813,7.2415,7.1985,7.1852,7.1885,7.1985,7.1819,7.1306,7.0198,6.7868,6.68,6.6309,6.6182,6.5891,6.5941,6.6775,6.648,6.6147,6.6349,6.6226,6.6098,6.6098,6.5862,6.5673,6.57,6.5357,6.561,6.6865,6.6179,6.5745,6.6112,6.5543,6.5266,6.5548,6.4922,6.4544,6.4506,6.5132,6.5706,6.6217,6.7307,6.8107,6.8601,6.9112,6.9433,6.9481,6.9504,6.9552,4.793,4.954,5.0927,5.1111,5.0297,4.8978,4.7269,4.4717,4.2575,4.2114,4.1707,4.1832,4.3071,4.4018,4.5035,4.6392,4.776,5.0045,5.4007,5.4569,5.6142,6.0353,6.1609,6.2763,6.4447,6.575,6.673,6.7274,6.7487,6.7789,6.8182,6.8392,6.8967,6.997,7.0584,7.1289,7.2086,7.2028,7.1998,7.1998,7.1259,7.0767,7.049,7.009,7.0016,7.0293,7.0639,7.0872,7.1048,7.1982,7.2464,7.2762,7.3448,7.384,7.4044,7.4146,7.4196,7.4163,7.3865,7.3765,7.3732,7.3434,7.3533,7.36,7.2713,7.2846,7.3136,7.225,7.2647,7.3136,7.2216,7.1375,7.035,6.8672,6.8028,6.754,6.6513,6.6634,6.6944,6.6898,6.6869,6.6771,6.6628,6.6512,6.6432,6.6432,6.6192,6.6054,6.6214,6.6313,6.665,6.7346,6.6352,6.6011,6.6936,6.6401,6.6044,6.6175,6.5922,6.5764,6.5764,6.651,6.6997,6.7227,6.8164,6.874,6.8936,6.9469,6.9765,6.9765,7.0072,7.0213,4.7845,4.9608,5.0893,5.1255,5.0213,4.868,4.7079,4.442,4.2276,4.2276,4.1788,4.1726,4.2975,4.3946,4.4789,4.5431,4.6619,4.8696,5.2208,5.2714,5.4514,5.9377,6.1036,6.2552,6.4484,6.6487,6.7669,6.7669,6.788,6.8424,6.9397,6.9214,6.9699,7.1102,7.1657,7.2181,7.264,7.289,7.2676,7.1998,7.166,7.129,7.089,7.0696,7.0828,7.1219,7.1569,7.1775,7.2009,7.292,7.3292,7.3344,7.3968,7.4196,7.4196,7.4196,7.4196,7.4196,7.4196,7.4196,7.4196,7.4196,7.4196,7.3997,7.2945,7.3401,7.3964,7.2945,7.3401,7.3898,7.2647,7.1886,7.1051,6.955,6.9008,6.8535,6.7298,6.7333,6.7558,6.7354,6.7363,6.7264,6.6842,6.6958,6.6985,6.6654,6.6779,6.6914,6.6907,6.7341,6.7792,6.8197,6.7023,6.6675,6.7818,6.7281,6.6902,6.6902,6.6712,6.6786,6.7265,6.7837,6.8387,6.9018,6.9338,6.9549,6.9718,6.9879,7.0078,7.0301,7.0687,7.0984,4.6828,4.9222,5.1351,5.1636,5.0387,4.8788,4.7568,4.5017,4.2873,4.2873,4.2412,4.2168,4.2789,4.3825,4.4602,4.4602,4.6575,4.9176,5.2264,5.2714,5.4403,5.8944,5.9626,6.0849,6.3651,6.6401,6.8,6.8,6.8,6.8728,7.0404,7.0465,7.0802,7.1474,7.2459,7.2983,7.2983,7.3014,7.2676,7.2029,7.2676,7.2244,7.092,7.1846,7.1881,7.1274,7.2385,7.2867,7.2946,7.3807,7.4196,7.4196,7.4196,7.4196,7.4196,7.4196,7.4196,7.4196,7.4196,7.4196,7.4196,7.4196,7.4196,7.4196,7.4163,7.4196,7.4196,7.4163,7.4196,7.403,7.3276,7.3086,7.2529,7.039,6.9582,6.9194,6.8837,6.7946,6.7524,6.8567,6.8258,6.7683,6.7264,6.7731,6.7813,6.6754,6.7787,6.8419,6.766,6.8229,6.8924,6.9616,6.8446,6.7881,6.8608,6.8008,6.7597,6.7597,6.6965,6.7265,6.8821,6.8905,6.9867,7.1918,7.1247,7.1147,7.1677,7.0884,7.0917,7.1677,7.1677,7.2079,4.4724,4.6086,4.6966,4.7907,4.7109,4.5885,4.5071,4.3552,4.2385,4.2792,4.2412,4.2168,4.2792,4.4154,4.5348,4.5763,4.7443,4.9513,5.1759,5.3192,5.5422,5.9267,6.2614,6.5233,6.6819,6.7753,6.8268,6.8268,6.8905,6.9727,7.0708,7.1261,7.1845,7.2521,7.2829,7.3014,7.3014,7.3014,7.2891,7.2676,7.2429,7.209,7.169,7.2562,7.2919,7.2913,7.3916,7.4418,7.4533,7.4294,7.4196,7.4196,7.4196,7.4196,7.4196,7.4196,7.4196,7.4196,7.4196,7.4196,7.4196,7.4196,7.3865,7.3442,7.3442,7.3442,7.3343,7.2846,7.3045,7.3376,7.3177,7.3475,7.3465,7.1894,7.1798,7.1727,7.0551,7.0394,7.0258,6.9485,6.9383,6.9032,6.8069,6.8241,6.8436,6.8103,6.8419,6.8608,6.8387,6.8983,6.9462,6.9679,6.9774,6.9679,6.9426,6.8292,6.8054,6.9116,6.895,6.9336,7.041,7.0955,7.1522,7.2178,7.2505,7.2767,7.293,7.2671,7.2671,7.293,7.2401,7.23,4.242,4.3876,4.4594,4.5845,4.526,4.4257,4.3902,4.2846,4.2168,4.2765,4.2602,4.2439,4.2819,4.4318,4.5459,4.5351,4.7387,4.9485,5.0942,5.2939,5.5736,5.9829,6.398,6.6878,6.777,6.8288,6.8564,6.8564,6.917,6.9936,7.0859,7.1321,7.1998,7.2952,7.3014,7.3014,7.3014,7.3014,7.2891,7.2645,7.246,7.2429,7.2514,7.3439,7.4088,7.4545,7.4935,7.5168,0.0,7.4494,7.4196,7.4196,7.4196,7.4196,7.4196,7.4196,7.4196,7.4196,7.4196,7.4196,7.4196,7.4196,7.3674,7.3011,7.2448,7.2481,7.2647,7.2481,7.2597,7.2843,7.3107,7.3383,7.3349,7.2587,7.2483,7.2294,7.1208,7.1333,7.1279,7.0154,7.0176,7.0034,6.9063,6.9134,6.9194,6.8766,6.9146,6.9367,6.9114,6.9683,7.0121,7.0121,7.0584,7.0904,7.0995,6.9662,6.9425,7.0662,7.052,7.1022,7.2414,7.2678,7.3001,7.3567,7.3784,7.3916,7.3916,7.3916,7.3916,7.3916,7.3713,7.351,0.0,4.2183,4.3664,4.4904,4.4364,4.3549,4.3603,4.2765,0.0,4.2765,4.2925,4.2925,4.2979,4.4346,4.513,4.4028,4.6804,4.9346,5.0099,5.257,5.608,6.088,6.4217,6.6365,6.6952,6.815,6.8919,6.8919,6.9011,6.9566,7.0828,7.0982,7.166,7.2983,7.3014,7.3014,7.3014,7.3014,7.2676,7.2029,7.2737,7.3166,7.3254,7.4317,7.5201,7.5896,7.5451,7.5305,7.5257,7.4494,7.4196,7.4196,7.4196,7.4196,7.4196,7.4196,7.4196,7.4196,7.4196,7.4196,7.4163,7.4064,7.3541,7.2713,7.1322,7.1388,7.2026,7.2631,7.2454,7.2204,7.284,7.2711,7.2411,7.2464,7.2005,7.1466,7.1202,7.1176,7.1096,7.0749,7.0749,7.0699,7.0254,7.0255,7.0007,6.8992,6.9936,7.0564,6.9868,7.0493,7.0964,7.0964,7.1186,7.1826,7.3176,7.1982,7.1498,7.2289,7.1824,7.2472,7.4588,7.4021,7.4305,7.5676,7.5033,7.4695,7.4695,7.4695,7.4695,7.4671,7.5337,7.527,3.7346,0.0,3.9631,4.1113,4.1269,4.1187,0.0,4.1869,4.2168,4.2765,4.2925,4.306,4.3495,4.4447,4.5458,4.6296,4.8514,5.0617,5.1872,5.6736,6.1322,6.4414,6.6791,6.8243,6.8397,6.8705,6.8919,6.8919,6.9843,7.0582,7.089,7.1906,7.2645,7.3014,7.3014,7.3014,7.3014,7.3014,7.2676,7.1998,7.3411,7.355,7.2594,7.4568,7.5391,7.524,7.5135,7.5161,7.5257,7.4494,7.4196,7.4196,7.4196,7.4196,7.4196,7.4196,7.4196,7.4196,7.4196,7.4196,7.3997,7.2879,7.2018,7.1355,7.1024,7.1024,7.0984,7.0174,7.0272,7.0556,7.0315,7.0954,7.1765,7.2248,7.2613,7.2978,7.3339,7.3416,7.3237,7.2475,7.2186,7.182,7.0995,7.0739,7.0606,7.0346,7.0596,7.0754,7.0564,7.1715,7.2573,7.2573,7.3685,7.4586,7.4912,7.3606,7.3344,7.4687,7.4652,7.4805,7.5422,7.5301,7.5339,7.5676,7.554,7.5439,7.5439,7.5439,7.5439,7.5439,7.5033,7.4796,3.6251,3.7433,3.8543,3.9731,4.0119,4.0431,4.1327,4.1547,4.1842,4.2711,4.2925,4.3088,4.3685,4.4507,4.5493,4.6684,4.8906,5.1402,5.4006,5.89,6.2913,6.486,6.7335,6.8919,6.8919,6.8919,6.8919,6.8919,6.9843,7.0582,7.089,7.1937,7.2706,7.3014,7.3014,7.3014,7.3014,7.2675,7.2522,7.246,7.3012,7.3121,7.2814,7.4037,7.4765,7.4979,7.4659,7.478,7.5257,7.4494,7.4196,7.4196,7.4196,7.4196,7.4196,7.4196,7.4196,7.4196,7.4196,7.3997,7.3508,7.2382,7.172,7.1355,7.0991,7.1355,7.177,7.1079,7.0533,7.0276,7.0675,7.1384,7.2165,7.2697,7.3593,7.4294,7.4202,7.4461,7.4367,7.3215,7.2907,7.2715,7.2197,7.158,7.1144,7.1144,7.1238,7.14,7.1815,7.2861,7.3779,7.4155,7.5318,7.6181,7.6545,7.6188,7.6146,7.6596,7.6684,7.6723,7.6734,7.642,7.6082,7.5709,7.5709,7.5709,7.5709,7.5709,7.5709,7.5676,7.5303,7.4931,3.6135,3.7775,3.9102,3.9451,3.987,4.0485,4.1598,4.1466,4.1439,4.2629,4.2925,4.309,4.3821,4.4618,4.5553,4.6629,4.9321,5.2603,5.642,6.0202,6.3031,6.4359,6.7154,6.8984,6.9043,6.8951,6.8949,6.9043,6.9659,7.0336,7.1013,7.1782,7.2429,7.2952,7.3014,7.3014,7.3014,7.2337,7.2306,7.286,7.2305,7.2419,7.3161,7.3161,7.368,7.4599,7.3982,7.4169,7.4911,7.4411,7.4196,7.4196,7.4196,7.4196,7.4196,7.4196,7.4196,7.4196,7.4196,7.3707,7.3011,7.2515,7.225,7.2084,7.1686,7.2382,7.331,7.3541,7.2215,7.1058,7.2211,7.267,7.2999,7.3512,7.4609,7.5312,7.4665,7.5025,7.5032,7.3707,7.3449,7.3482,7.3482,7.2579,7.1968,7.2119,7.2222,7.2604,7.337,7.4235,7.5044,7.5765,7.6679,7.7502,7.8111,7.8851,7.8927,7.8196,7.8068,7.7967,7.7865,7.7333,7.6758,7.6048,7.5946,7.5946,7.6048,7.5946,7.5946,7.6048,7.5946,7.554,3.6799,3.8699,4.0134,3.872,3.9298,4.0377,4.1082,4.1168,4.1439,4.2629,4.2925,4.3226,4.4366,4.5095,4.6226,4.8341,5.2101,5.5858,5.9089,6.2241,6.4789,6.6273,6.8181,6.9423,6.9721,6.9228,6.9135,6.969,7.0367,7.1044,7.1813,7.2491,7.2891,7.3014,7.3014,7.3014,7.3014,7.2337,7.206,7.2152,7.2225,7.2322,7.2439,7.2439,7.2639,7.2953,7.2861,7.2967,7.3293,7.395,7.4196,7.4196,7.4196,7.4196,7.4196,7.4196,7.4196,7.4196,7.4196,7.3707,7.3177,7.3699,7.3442,7.3144,7.4296,7.4362,7.4296,7.5463,7.4397,7.2868,7.2624,7.3021,7.3626,7.4214,7.4929,7.5575,7.5896,7.6059,7.5927,7.5124,7.4561,7.4235,7.4235,7.3705,7.3582,7.4432,7.4567,7.4713,7.5096,7.6353,7.7317,7.7447,7.8772,7.9694,7.9829,7.993,7.9955,7.9829,7.8704,7.7705,7.7096,7.7536,7.7797,7.7662,7.7029,7.7029,7.7662,7.7029,7.7029,7.7628,7.6995,7.6657,3.5552,3.7269,3.8744,3.7889,3.9558,4.1649,4.2388,4.2059,4.2032,4.3552,4.3606,4.3848,4.537,4.6401,4.8219,5.1954,5.478,5.7238,5.9314,6.2179,6.4313,6.5024,6.7336,6.8905,6.9084,6.8986,6.9166,6.9843,7.0521,7.1229,7.1967,7.2645,7.3014,7.3014,7.2676,7.246,7.246,7.1413,7.1444,7.2522,7.1866,7.1548,7.1548,7.1175,7.1111,7.1305,7.1277,7.1615,7.2224,7.3129,7.3499,7.3551,7.4019,7.4196,7.4196,7.4196,7.4196,7.4262,7.466,7.4329,7.3807,7.4561,7.4561,7.4403,7.5091,7.5588,7.6059,7.6722,7.547,7.398,7.4134,7.4701,7.5283,7.5552,7.6404,7.6967,7.6411,7.6324,7.5993,7.4925,7.4489,7.4408,7.4804,7.4399,7.4363,7.5402,7.5614,7.5896,7.6644,7.7694,7.8578,7.9051,7.977,8.0209,8.0209,8.0209,8.0209,8.0209,7.9194,7.845,7.8111,7.801,7.8,7.8,7.7671,7.7638,7.8,7.7638,7.7671,7.7976,7.7638,7.7468,3.4763,3.6158,3.7527,3.7534,3.9852,4.2301,4.3143,4.2851,4.2879,4.444,4.4592,4.4907,4.6427,4.8137,5.0622,5.4826,5.6928,5.8595,6.0197,6.2589,6.4308,6.4795,6.6974,6.8482,6.8631,6.8746,6.9169,7.0059,7.0613,7.129,7.2183,7.2737,7.2953,7.2799,7.2275,7.1936,7.1752,7.0675,7.0921,7.2491,7.1105,7.0521,7.0644,6.9967,6.9733,6.993,7.0098,7.0578,7.1269,7.2197,7.2544,7.2682,7.3551,7.4044,7.4229,7.4395,7.4385,7.4382,7.5238,7.5055,7.4647,7.5503,7.5787,7.5794,7.6019,7.6689,7.7391,7.7391,7.6175,7.5003,7.5759,7.6252,7.6548,7.6548,7.7264,7.7656,7.653,7.6324,7.5927,7.4693,7.4594,7.4892,7.5455,7.5344,7.5576,7.6591,7.686,7.7297,7.8244,7.8849,7.9451,8.0133,8.0209,8.0209,8.0209,8.0209,8.0209,8.0209,7.9667,7.9295,7.9126,7.872,7.8542,7.8542,7.8348,7.8348,7.8483,7.8348,7.8348,7.8483,7.8348,7.8247,3.5835,3.6952,3.8015,3.8258,3.9582,4.105,4.1854,4.2882,4.3897,4.4811,4.5687,4.6509,4.7187,5.016,5.3143,5.5162,5.7989,6.0903,6.3718,6.5036,6.6443,6.8368,6.8538,6.8728,6.9274,6.8783,6.9086,7.0706,7.089,7.1475,7.286,7.2952,7.2737,7.209,7.2029,7.169,7.0982,7.089,7.089,7.1044,6.969,6.9351,6.9936,6.9259,6.8979,6.9036,6.9844,7.0243,7.0353,7.1241,7.1597,7.1679,7.2629,7.3499,7.4262,7.4958,7.4863,7.457,7.5811,7.5852,7.5515,7.6836,7.7252,7.7384,7.8053,7.7855,7.7391,7.7391,7.6802,7.6312,7.7073,7.6776,7.6312,7.6312,7.6397,7.6424,7.6324,7.6324,7.6092,7.5356,7.5728,7.6192,7.6225,7.7004,7.7996,7.899,7.9358,7.9649,7.9981,8.0065,8.0133,8.0209,8.0209,8.0209,8.0209,8.0209,8.0209,8.0209,8.0141,7.9803,7.9135,7.9701,8.004,8.004,7.9363,7.9363,8.004,7.9363,7.9363,8.004,7.9329,7.9025,3.4999,3.6189,3.74,3.7495,3.9158,4.1053,4.2232,4.3598,4.4997,4.634,4.7427,4.8545,4.9901,5.2518,5.5082,5.6965,5.9189,6.1518,6.3837,6.4952,6.598,6.7002,6.7755,6.8183,6.8243,6.8301,6.9027,7.0556,7.083,7.1321,7.2337,7.2398,7.2029,7.1321,7.089,7.0551,7.0274,6.9843,6.9659,6.9659,6.9566,6.9628,6.9874,6.9227,6.8919,6.8919,6.9238,6.9383,6.947,7.0325,7.069,7.0802,7.1684,7.2617,7.3498,7.3758,7.4336,7.5153,7.6114,7.6504,7.6796,7.7768,7.7755,7.7424,7.7722,7.7292,7.6722,7.6722,7.6523,7.6357,7.6629,7.6523,7.6324,7.6324,7.6324,7.6192,7.5761,7.5993,7.6092,7.5422,7.5827,7.6509,7.7189,7.7651,7.8319,7.9469,7.975,7.9904,8.0183,8.0209,8.0209,8.0209,8.0209,8.0209,8.0209,8.0209,8.0209,8.0209,8.0209,8.0073,7.9803,8.004,8.0209,8.0209,7.9938,7.9938,8.0209,7.9938,7.9938,8.0175,7.9904,7.9769,3.4685,3.5701,3.6748,3.6761,3.8592,4.0824,4.2281,4.4355,4.6389,4.7963,4.918,5.0388,5.1826,5.3972,5.6049,5.774,5.9918,6.2147,6.4379,6.5118,6.5788,6.6836,6.7577,6.794,6.7789,6.8242,6.9152,7.0495,7.0709,7.1107,7.1967,7.1782,7.1321,7.0613,7.012,6.9782,6.9566,6.9105,6.8919,6.8919,6.9351,6.9566,6.9566,6.9105,6.8919,6.8919,6.8919,6.8919,6.8948,6.9528,6.9959,7.0271,7.108,7.2183,7.3349,7.3775,7.4724,7.5873,7.6783,7.7295,7.7542,7.8,7.7788,7.7358,7.7093,7.6556,7.5993,7.5993,7.5993,7.5927,7.5695,7.5794,7.5927,7.5695,7.5628,7.5562,7.5356,7.5662,7.5894,7.5662,7.6159,7.6899,7.7777,7.8148,7.8716,7.9657,7.9878,8.0006,8.0183,8.0209,8.0209,8.0209,8.0209,8.0209,8.0209,8.0209,8.0209,8.0209,8.0209,8.0209,8.0209,8.0209,8.0209,8.0209,8.0209,8.0209,8.0209,8.0209,8.0209,8.0209,8.0209,8.0209,3.5286,3.5723,3.6231,3.6303,3.799,4.0052,4.1654,4.5023,4.8171,4.9564,5.0895,5.2016,5.2585,5.4274,5.5939,5.7187,6.0002,6.3029,6.5953,6.5826,6.628,6.8728,6.8395,6.8089,6.8387,6.8698,6.9458,7.0768,7.0587,7.0863,7.1906,7.129,7.0582,6.9905,6.9874,6.9566,6.8889,6.8919,6.8919,6.8919,6.8919,6.8919,6.8919,6.8919,6.8919,6.8919,6.8919,6.8919,6.8919,6.8919,6.9412,7.0249,7.0939,7.2265,7.4046,7.5451,7.6196,7.6681,7.8031,7.8074,7.7588,7.7463,7.7391,7.7225,7.6523,7.5827,7.529,7.529,7.529,7.5157,7.4395,7.476,7.5124,7.4395,7.4229,7.4428,7.5157,7.5323,7.5522,7.6192,7.692,7.753,7.7877,7.8738,7.9492,7.9776,8.0031,8.0209,8.0209,8.0209,8.0209,8.0209,8.0209,8.0209,8.0209,8.0209,8.0209,8.0209,8.0209,8.0209,8.0209,8.0209,8.0209,8.0209,8.0209,8.0209,8.0209,8.0209,8.0209,8.0209,8.0209,8.0209,3.5182,3.6011,3.6873,3.7311,3.9325,4.1533,4.2782,4.5324,4.842,5.1782,5.3146,5.3754,5.3917,5.5833,5.7539,5.7961,6.0249,6.279,6.5109,6.5626,6.6319,6.7758,6.7971,6.794,6.7759,6.8273,6.888,6.9519,7.0099,7.0465,7.0521,7.0305,6.9874,6.9227,6.9197,6.9074,6.8919,6.8919,6.8919,6.8919,6.8919,6.8919,6.8919,6.8919,6.8919,6.8919,6.8919,6.8919,6.8919,6.8919,6.9343,7.001,7.0227,7.1319,7.2989,7.4068,7.5232,7.6451,7.7484,7.769,7.7443,7.7404,7.6722,7.586,7.5662,7.5091,7.4528,7.4528,7.5257,7.5827,7.5157,7.586,7.6457,7.5257,7.5356,7.5728,7.596,7.6424,7.6854,7.7027,7.7841,7.855,7.8898,7.9358,7.9776,8.0057,8.0158,8.0378,8.0885,8.0953,8.1156,8.1697,8.1765,8.1528,8.1021,8.0953,8.075,8.0242,8.0209,8.0209,8.0209,8.0209,8.0209,8.0209,8.0209,8.0209,8.0209,8.0209,8.0209,8.0209,8.0209,8.0209,3.5757,3.6816,3.7873,3.8693,4.1046,4.3751,4.6055,4.8003,5.04,5.4251,5.4921,5.4921,5.5166,5.6879,5.8313,5.8593,6.0724,6.2984,6.4746,6.5509,6.6355,6.7578,6.8,6.8059,6.7879,6.8243,6.8666,6.9124,6.958,6.9823,6.9875,6.9628,6.9197,6.852,6.8735,6.8766,6.852,6.8766,6.8919,6.8919,6.8919,6.8919,6.8919,6.8919,6.8919,6.8919,6.8919,6.8919,6.892,6.9166,6.9536,6.9936,7.0521,7.156,7.2877,7.3723,7.4907,7.6176,7.6766,7.6963,7.692,7.6655,7.5993,7.5257,7.4958,7.4561,7.4262,7.4561,7.543,7.6225,7.5794,7.6755,7.7484,7.6026,7.5993,7.639,7.6662,7.7119,7.749,7.7755,7.8425,7.9015,7.9336,7.9621,7.9904,8.0158,8.0209,8.0344,8.0784,8.0851,8.1021,8.1494,8.1528,8.1359,8.0885,8.0851,8.0648,8.0242,8.0209,8.031,8.0615,8.0344,8.0209,8.0209,8.0209,8.0209,8.0209,8.0209,8.0209,8.0209,8.0209,8.0209,3.6698,3.7874,3.9101,4.0334,4.3041,4.6498,5.0609,5.2019,5.3322,5.6381,5.6251,5.5735,5.6278,5.7455,5.8538,5.9082,6.1249,6.3319,6.4775,6.5509,6.6386,6.785,6.8209,6.8357,6.8386,6.8486,6.8758,6.9273,6.9032,6.9092,6.9691,6.9074,6.8427,6.7814,6.8397,6.8427,6.7814,6.8458,6.8797,6.8797,6.8858,6.8919,6.8919,6.8919,6.8919,6.8919,6.8919,6.892,6.9012,6.9628,6.9936,7.012,7.1413,7.2421,7.3319,7.4068,7.502,7.5934,7.6016,7.61,7.6125,7.5522,7.5257,7.5091,7.4494,7.4296,7.4461,7.519,7.586,7.6424,7.6424,7.7424,7.8153,7.6821,7.6523,7.6689,7.7358,7.749,7.7715,7.8405,7.875,7.9074,7.9489,7.9774,8.0031,8.0285,8.0242,8.0209,8.0276,8.031,8.031,8.0378,8.0412,8.0378,8.031,8.031,8.0276,8.0209,8.0242,8.0581,8.1283,8.0581,8.0242,8.031,8.0242,8.0209,8.0209,8.0209,8.0234,8.0234,8.0234,8.0259,3.6698,3.8187,3.9899,4.1925,4.5135,4.8732,5.2486,5.345,5.3953,5.5483,5.6332,5.6848,5.6956,5.8053,5.911,5.9717,6.1165,6.2843,6.4717,6.5288,6.6106,6.7819,6.806,6.8149,6.8357,6.8667,6.8759,6.8632,6.8541,6.8477,6.8337,6.7689,6.726,6.7106,6.7258,6.7258,6.7106,6.7783,6.812,6.812,6.8643,6.8919,6.8919,6.8919,6.8919,6.8919,6.8919,6.9197,6.969,6.9843,7.0213,7.0705,7.1013,7.1708,7.2625,7.3445,7.4377,7.5299,7.5997,7.5903,7.5489,7.5356,7.4925,7.4528,7.4925,7.5058,7.5223,7.5894,7.6622,7.7159,7.7159,7.7821,7.8418,7.8086,7.802,7.8053,7.8219,7.8252,7.8365,7.8744,7.9067,7.9556,8.0412,8.0798,8.1003,8.1054,8.0547,8.0412,8.1012,8.108,8.1291,8.1866,8.1934,8.1697,8.1088,8.108,8.0818,8.0242,8.075,8.1148,8.1317,8.0581,8.0479,8.1046,8.0479,8.0209,8.0209,8.0209,8.0309,8.0535,8.0535,8.0635,3.7037,3.8893,4.1376,4.5349,4.7769,5.0135,5.3809,5.4627,5.4915,5.6047,5.6739,5.7206,5.7206,5.8362,5.9356,5.9519,6.0784,6.2364,6.4283,6.4789,6.5601,6.7275,6.7787,6.7967,6.7929,6.8241,6.8303,6.7929,6.7928,6.777,6.7445,6.7075,6.6765,6.6429,6.6706,6.6765,6.6427,6.7383,6.7906,6.7906,6.8581,6.8919,6.8919,6.8919,6.8919,6.8919,6.8919,6.9074,6.9443,6.9751,7.009,7.0489,7.1247,7.1877,7.2405,7.3264,7.3964,7.4523,7.4976,7.4995,7.4826,7.519,7.5025,7.4859,7.5562,7.5761,7.5927,7.6622,7.7093,7.7457,7.7821,7.8219,7.8484,7.8484,7.8484,7.8484,7.8484,7.8591,7.885,7.9375,7.9544,7.9983,8.1189,8.1348,8.1317,8.1317,8.0648,8.0344,8.0716,8.075,8.0919,8.1325,8.1359,8.119,8.0784,8.075,8.075,8.0716,8.1114,8.1537,8.1978,8.1326,8.1088,8.1461,8.0657,8.0335,8.0585,8.046,8.0535,8.0808,8.0808,8.1052,3.7299,3.9782,4.3179,4.8636,5.0128,5.1126,5.4484,5.5355,5.5708,5.6821,5.7119,5.7233,5.7342,5.8369,5.9188,5.9238,6.0287,6.1714,6.3586,6.4056,6.486,6.6489,6.7333,6.7663,6.7257,6.769,6.7812,6.7344,6.722,6.703,6.6737,6.6642,6.6304,6.575,6.6273,6.6304,6.575,6.7045,6.766,6.7568,6.8366,6.8766,6.8919,6.8919,6.8919,6.8919,6.8919,6.898,6.9134,6.9659,6.9905,7.0025,7.153,7.2154,7.226,7.3139,7.37,7.3965,7.4096,7.4267,7.4494,7.5257,7.5489,7.5621,7.6291,7.649,7.6629,7.7358,7.759,7.7722,7.8318,7.8484,7.8484,7.8484,7.8537,7.8564,7.8564,7.885,7.9329,8.0095,8.0349,8.0822,8.2068,8.1914,8.1655,8.152,8.0851,8.0344,8.0209,8.0209,8.0209,8.0209,8.0209,8.0209,8.0209,8.0209,8.0513,8.1249,8.1342,8.1809,8.276,8.2156,8.1773,8.1773,8.0783,8.051,8.0931,8.0709,8.0759,8.1078,8.1215,8.1615,3.6802,4.0594,4.5172,4.9034,5.08,5.2093,5.4144,5.503,5.56,5.6278,5.6821,5.7369,5.7885,5.7954,5.8365,5.9652,5.9871,6.0617,6.2832,6.3167,6.3814,6.55,6.6547,6.6994,6.6554,6.7367,6.7665,6.7018,6.6432,6.6062,6.6057,6.5472,6.5134,6.5042,6.5134,6.5134,6.5042,6.6365,6.6765,6.618,6.7414,6.8335,6.8919,6.8919,6.8919,6.8919,6.8919,6.9228,6.9751,6.9843,6.9905,6.9994,7.0968,7.1424,7.1721,7.2649,7.3495,7.425,7.4878,7.5121,7.5257,7.596,7.6192,7.6291,7.7053,7.7225,7.7417,7.8153,7.8351,7.8384,7.8451,7.8484,7.8484,7.8484,7.8671,7.8856,7.8856,7.9409,8.0121,8.0662,8.1978,8.3066,8.3268,8.3227,8.2983,8.234,8.1629,8.0919,8.0276,8.0209,8.0209,8.0209,8.0209,8.0209,8.0209,8.0209,8.0513,8.1249,8.1521,8.1987,8.276,8.2333,8.2048,8.2048,8.1059,8.0585,8.0659,8.0635,8.0857,8.1379,8.1997,8.2496,3.9128,4.1794,4.4674,4.8503,5.0167,5.1329,5.3525,5.4731,5.5573,5.617,5.6766,5.7287,5.7559,5.7797,5.8166,5.8875,5.9183,6.0061,6.2194,6.2499,6.311,6.472,6.5821,6.6294,6.5882,6.6748,6.7045,6.6396,6.6088,6.575,6.5349,6.5072,6.4888,6.4888,6.4888,6.4888,6.4888,6.5873,6.6396,6.6457,6.6704,6.7135,6.7781,6.7381,6.7812,6.8919,6.8919,6.9073,6.932,6.932,6.9644,7.0137,7.102,7.1749,7.2449,7.3744,7.4486,7.4859,7.519,7.5555,7.5894,7.6192,7.6589,7.7027,7.7788,7.802,7.8086,7.8418,7.8484,7.8484,7.8484,7.8617,7.8724,7.8724,7.8962,7.9198,7.9355,7.9675,8.0174,8.0992,8.2735,8.3998,8.3558,8.349,8.3389,8.3084,8.2035,8.1156,8.0851,8.0445,8.0209,8.0209,8.0209,8.0209,8.0209,8.0209,8.0513,8.1249,8.1571,8.1909,8.2376,8.2343,8.2041,8.1483,8.1052,8.0906,8.1054,8.1054,8.1248,8.1644,8.2401,8.3,4.0591,4.203,4.3546,4.7655,4.9127,5.0233,5.2791,5.4189,5.5111,5.5708,5.6441,5.6956,5.6956,5.7477,5.8004,5.8379,5.8827,5.9757,6.1588,6.1983,6.2615,6.3972,6.5009,6.5479,6.5065,6.5959,6.628,6.5688,6.5657,6.5442,6.4918,6.4888,6.4888,6.4888,6.4888,6.4888,6.4888,6.5411,6.6088,6.6891,6.6242,6.6273,6.686,6.6396,6.6981,6.8397,6.8551,6.8735,6.8919,6.8919,6.9412,7.0268,7.1159,7.209,7.3064,7.4486,7.5025,7.5058,7.5223,7.5654,7.6092,7.6457,7.6954,7.7523,7.8285,7.8484,7.8484,7.8484,7.8644,7.8803,7.8803,7.9113,7.9425,7.9425,7.9562,7.9758,8.0037,8.0122,8.052,8.1638,8.3186,8.4208,8.3862,8.3795,8.3727,8.3524,8.2543,8.1723,8.1351,8.0818,8.0412,8.0209,8.0209,8.0234,8.0309,8.0309,8.0614,8.1385,8.1553,8.1769,8.2098,8.2174,8.188,8.1102,8.1102,8.1175,8.1297,8.1575,8.1823,8.2086,8.3052,8.3776,3.9233,4.0515,4.2392,4.6459,4.7929,4.9139,5.206,5.3239,5.3863,5.4491,5.5518,5.6359,5.6359,5.6821,5.7649,5.8875,5.9157,5.964,6.0955,6.1672,6.2381,6.311,6.3997,6.4435,6.4114,6.4913,6.5318,6.4983,6.4949,6.4949,6.4888,6.4888,6.4888,6.4888,6.4888,6.4888,6.4888,6.4918,6.5626,6.6891,6.6242,6.6273,6.6891,6.686,6.6919,6.7014,6.766,6.8304,6.8919,6.8919,6.9412,7.0268,7.1159,7.209,7.3031,7.3925,7.4262,7.4362,7.5058,7.5323,7.5588,7.692,7.7358,7.7523,7.8285,7.8484,7.8484,7.8484,7.9034,7.9657,7.9657,8.0208,8.0829,8.0829,8.0607,8.0546,8.0772,8.1044,8.1663,8.3084,8.349,8.3761,8.4411,8.4546,8.4309,8.3625,8.3422,8.2881,8.1486,8.1283,8.0953,8.0276,8.0209,8.0309,8.056,8.0585,8.0891,8.163,8.1523,8.1625,8.2064,8.1694,8.1428,8.1369,8.1369,8.1248,8.1029,8.1992,8.2579,8.288,8.4397,8.5087,3.9128,4.015,4.1526,4.489,4.6729,4.8311,5.0464,5.2343,5.3646,5.3863,5.4894,5.5844,5.6224,5.6794,5.7481,5.8406,5.891,5.9645,6.0926,6.1702,6.2351,6.3021,6.3547,6.3894,6.3995,6.4458,6.4797,6.4891,6.4888,6.4888,6.4888,6.4888,6.4888,6.4888,6.4888,6.4888,6.4888,6.4888,6.5134,6.5626,6.538,6.538,6.5626,6.5626,6.5842,6.6273,6.6519,6.7012,6.7658,6.8089,6.8792,6.9699,7.1,7.209,7.3064,7.442,7.4925,7.4925,7.5223,7.5562,7.6026,7.6523,7.702,7.7523,7.8285,7.8484,7.8617,7.9113,7.9477,7.9803,8.0358,8.0795,8.1218,8.1386,8.1338,8.1287,8.1366,8.1349,8.1452,8.1968,8.2475,8.305,8.3761,8.3896,8.3964,8.4174,8.3795,8.3321,8.278,8.2306,8.19,8.1629,8.1749,8.1902,8.2004,8.1737,8.1676,8.1939,8.1611,8.1482,8.1625,8.1928,8.2114,8.2114,8.2561,8.2546,8.1968,8.2511,8.3059,8.3614,8.4708,8.519,3.8998,3.986,4.1133,4.4066,4.5502,4.6946,4.9679,5.1231,5.2316,5.313,5.4107,5.4976,5.5573,5.617,5.6904,5.7889,5.8864,5.9745,6.0487,6.1645,6.2525,6.2751,6.2922,6.324,6.3793,6.3891,6.414,6.4691,6.4832,6.4888,6.4888,6.4888,6.4888,6.4888,6.4888,6.4888,6.4888,6.4888,6.4888,6.4888,6.4888,6.4888,6.4888,6.4888,6.5134,6.5565,6.5565,6.6211,6.726,6.7721,6.8715,7.0054,7.1078,7.2251,7.3487,7.4522,7.4925,7.4925,7.4925,7.5223,7.5662,7.6159,7.6655,7.7192,7.8186,7.8697,7.9008,7.9554,8.0082,8.0632,8.117,8.1625,8.1932,8.1966,8.1966,8.1919,8.172,8.1557,8.1458,8.1554,8.1979,8.2479,8.3043,8.3118,8.3287,8.3768,8.3456,8.3118,8.3118,8.2712,8.2433,8.2537,8.2683,8.2888,8.3065,8.2772,8.2598,8.2598,8.2399,8.2246,8.2149,8.2629,8.2894,8.2992,8.3399,8.3537,8.3404,8.36,8.3914,8.4432,8.519,8.557,0.0,0.0,0.0,4.3986,4.4302,4.5099,4.9707,4.9901,4.9738,5.2154,5.3103,5.3727,5.4382,5.4976,5.5888,5.741,5.8999,5.9942,5.9612,6.1556,6.2808,6.2151,6.2061,6.2415,6.3361,6.3159,6.3373,6.432,6.4691,6.4888,6.4888,6.4888,6.4888,6.4888,6.4888,6.4857,6.4857,6.4857,6.4857,6.4857,6.4888,6.4888,6.4888,6.4888,6.4888,6.4888,6.4888,6.6027,6.7844,6.7844,6.9242,7.1397,7.1456,7.2565,7.4171,7.4196,7.4196,7.4196,7.4196,7.4196,7.4461,7.586,7.6324,7.6622,7.808,7.906,7.9734,7.976,8.0902,8.2106,8.213,8.2658,8.3097,8.2625,8.251,8.2373,8.1849,8.1696,8.1771,8.2026,8.2064,8.2153,8.2316,8.2374,8.2374,8.2408,8.2408,8.2408,8.2408,8.2408,8.2511,8.276,8.2845,8.3074,8.3575,8.3625,8.3659,8.3659,8.3871,8.3896,8.3615,8.3625,8.3783,8.4028,8.3783,8.4161,8.5225,8.5225,8.5225,8.5259,8.5984,8.6294,3.871,0.0,0.0,0.0,0.0,0.0,4.7135,4.811,4.8897,5.0444,5.1555,5.2612,5.3646,5.4324,5.5254,5.6796,5.7982,5.8769,5.8923,6.0526,6.1583,6.1403,6.1373,6.1545,6.2003,6.1994,6.2395,6.359,6.3761,6.4114,6.4857,6.4888,6.4888,6.4888,6.4395,6.4091,6.4091,6.4091,6.4091,6.4091,6.4641,6.4888,6.4888,6.4888,6.4888,6.4888,6.4888,6.5503,6.6457,6.6457,6.7473,6.9236,7.0339,7.1798,7.3344,7.3993,7.4196,7.4196,7.4196,7.4561,7.5157,7.6026,7.6689,7.739,7.8924,7.9528,7.993,8.1097,8.1778,8.2222,8.2783,8.3053,8.3164,8.3031,8.2761,8.2465,8.2292,8.199,8.1599,8.1342,8.1415,8.1557,8.1588,8.1596,8.1799,8.234,8.2408,8.2408,8.2408,8.2563,8.2717,8.2794,8.3653,8.4298,8.4449,8.4623,8.4781,8.4781,8.4279,8.3969,8.3896,8.4239,8.4573,8.488,8.5148,8.5527,8.5984,8.5466,8.5466,8.6018,8.6191,8.6294,0.0,0.0,4.1031,4.2057,0.0,0.0,4.5841,4.6539,4.7215,4.8897,5.0206,5.147,5.2763,5.3713,5.4621,5.5604,5.6821,5.7859,5.8552,6.0079,6.1014,6.0715,6.0685,6.083,6.1267,6.1195,6.1564,6.253,6.2839,6.3418,6.4398,6.418,6.4149,6.4426,6.3752,6.3383,6.3383,6.3383,6.3506,6.3814,6.4214,6.4611,6.4888,6.4888,6.4888,6.4888,6.4888,6.5134,6.5472,6.5472,6.6748,6.8803,7.0042,7.1522,7.3105,7.3887,7.4196,7.4196,7.4196,7.4494,7.4991,7.5993,7.6563,7.731,7.9116,7.993,8.0483,8.172,8.2176,8.2396,8.2806,8.2726,8.2567,8.2567,8.2361,8.2153,8.2153,8.2013,8.1707,8.1093,8.1093,8.1097,8.0877,8.0818,8.0987,8.1426,8.1494,8.1621,8.2054,8.2242,8.2556,8.309,8.3727,8.4177,8.4277,8.4327,8.4573,8.4982,8.4569,8.4516,8.4924,8.5248,8.5489,8.5673,8.5937,8.6144,8.6294,8.588,8.588,8.6294,8.6294,8.6294,0.0,0.0,0.0,4.2305,4.2369,0.0,4.5255,4.5244,4.5316,4.7487,4.8872,5.0132,5.16,5.2827,5.3807,5.4225,5.5599,5.7022,5.8251,5.9831,6.0655,6.0057,5.9967,6.0206,6.0835,6.0604,6.0678,6.1338,6.2008,6.2748,6.3606,6.3106,6.3075,6.366,6.3045,6.2675,6.2675,6.2675,6.2983,6.3568,6.3722,6.4122,6.4764,6.4857,6.4888,6.4888,6.4888,6.4888,6.4888,6.4888,6.6702,6.9468,7.0134,7.1552,7.331,7.3964,7.4196,7.4196,7.4196,7.4229,7.4528,7.5794,7.6343,7.6941,7.9068,8.034,8.1194,8.1943,8.2326,8.2488,8.2442,8.206,8.1696,8.1696,8.1649,8.1636,8.1636,8.1778,8.1683,8.1054,8.098,8.0882,8.0309,8.0209,8.0234,8.0259,8.0259,8.0597,8.1519,8.1637,8.211,8.3232,8.322,8.3239,8.3463,8.3332,8.365,8.462,8.4705,8.5114,8.5993,8.6122,8.6191,8.6191,8.626,8.6294,8.6294,8.6294,8.6294,8.6294,8.6294,8.6294,4.0122,4.0818,4.1648,4.1828,4.252,0.0,4.3827,4.4325,4.4963,4.5912,4.6983,4.8145,4.9441,5.0784,5.21,5.3362,5.4478,5.565,5.6963,5.8498,5.9458,5.9308,5.9308,5.9338,5.9488,5.9423,5.9768,6.0617,6.1734,6.2483,6.2659,6.2753,6.286,6.2983,6.2337,6.2025,6.2025,6.2025,6.2086,6.221,6.3291,6.3875,6.4029,6.4641,6.4888,6.4888,6.4888,6.4888,6.4888,6.4888,6.6729,6.9489,6.9643,7.1441,7.3997,7.413,7.4196,7.4196,7.4196,7.4594,7.5124,7.5422,7.6689,7.8379,7.9448,8.0762,8.1943,8.2326,8.2465,8.2419,8.1966,8.1767,8.1696,8.1696,8.1397,8.1117,8.1117,8.0823,8.0526,8.0376,8.0838,8.1034,8.0301,8.0209,8.0284,8.051,8.0535,8.0669,8.1077,8.1332,8.1547,8.1781,8.2306,8.2683,8.2698,8.3198,8.3609,8.3831,8.4029,8.422,8.4442,8.5087,8.5397,8.5397,8.6018,8.6294,8.6294,8.6294,8.6294,8.6294,8.6294,8.6294,4.036,4.0952,4.1576,4.189,4.2344,0.0,0.0,4.3523,4.4067,4.4963,4.5979,4.7167,4.8548,4.9799,5.1157,5.2825,5.3494,5.4329,5.5788,5.7219,5.8112,5.8112,5.8112,5.8112,5.8112,5.8112,5.8514,5.9473,6.0566,6.1405,6.1875,6.1835,6.1963,6.2302,6.1656,6.1317,6.1317,6.1317,6.1471,6.1809,6.2798,6.3475,6.3814,6.458,6.4888,6.4888,6.4888,6.4888,6.4888,6.4888,6.6729,6.9515,6.9515,7.1214,7.3674,7.4064,7.4196,7.4196,7.4196,7.4428,7.4826,7.519,7.6404,7.7925,7.9063,8.0553,8.1943,8.206,8.1919,8.1694,8.1431,8.1131,8.0936,8.0936,8.0774,8.061,8.061,8.041,8.0209,8.0209,8.0501,8.0616,8.025,8.0309,8.046,8.0585,8.0734,8.0906,8.1175,8.1321,8.1442,8.1596,8.1688,8.1797,8.1918,8.2041,8.2393,8.3017,8.3198,8.3665,8.457,8.4984,8.5363,8.5742,8.6122,8.6294,8.6294,8.6294,8.6294,8.6294,8.6294,8.6294,4.0833,4.1297,4.1767,4.2133,4.2302,4.2516,0.0,0.0,0.0,4.4176,4.5207,4.6296,4.7521,4.8729,4.9978,5.139,5.2097,5.2827,5.4052,5.5342,5.6346,5.6855,5.6795,5.6825,5.7064,5.6974,5.7318,5.8219,5.8961,5.9796,6.0878,6.0678,6.0865,6.1594,6.1071,6.0794,6.0794,6.0794,6.1071,6.1625,6.2425,6.3075,6.3629,6.4518,6.4888,6.4888,6.4888,6.4888,6.4888,6.4888,6.6527,6.9053,6.9212,7.0928,7.3376,7.3832,7.4064,7.4196,7.4196,7.4196,7.4296,7.4892,7.5962,7.7338,7.9031,8.0545,8.1672,8.1612,8.1311,8.098,8.0882,8.0535,8.0209,8.0209,8.0209,8.0209,8.0209,8.0209,8.0209,8.0209,8.0209,8.0234,8.0284,8.046,8.0635,8.0759,8.0956,8.1175,8.1442,8.1466,8.1538,8.1787,8.1369,8.1175,8.1369,8.1005,8.117,8.2227,8.2335,8.3075,8.4708,8.5052,8.5535,8.6294,8.6294,8.6294,8.6294,8.6294,8.6294,8.6294,8.6294,8.6294,4.2632,4.2917,4.3019,4.2342,4.291,4.3371,4.2436,0.0,4.3307,4.3123,0.0,4.47,4.499,0.0,0.0,4.7401,4.9507,5.1024,5.0709,5.1867,5.3623,5.6013,5.5803,5.5867,5.6974,5.6611,5.6551,5.7236,5.7075,5.7656,5.9214,5.9443,5.9977,6.0886,6.0824,6.0794,6.0794,6.0794,6.0824,6.0917,6.221,6.2829,6.2952,6.4303,6.4888,6.4888,6.4888,6.4888,6.4888,6.4888,6.5895,6.7526,6.824,7.0791,7.3997,7.3442,7.3641,7.4196,7.4196,7.4196,7.4196,7.4296,7.5873,7.8243,8.0669,8.1532,8.1636,8.119,8.1054,8.0906,8.0435,8.0259,8.0209,8.0209,8.0209,8.0209,8.0209,8.0209,8.0209,8.0209,8.0209,8.0284,8.0535,8.0585,8.0759,8.1248,8.1321,8.1442,8.1739,8.1763,8.1787,8.181,8.1514,8.1369,8.1393,8.1345,8.1355,8.1531,8.1747,8.2269,8.3121,8.4466,8.5535,8.6294,8.6294,8.6294,8.6294,8.6294,8.6294,8.6294,8.6294,8.6294,4.2814,4.3075,4.3101,4.2735,4.2888,4.3008,4.2706,4.2744,4.2962,4.3364,0.0,0.0,0.0,0.0,0.0,0.0,4.7348,4.8128,4.8803,4.9097,5.0533,5.4027,5.3503,5.3234,5.4162,5.473,5.5149,5.5388,5.6147,5.6893,5.7565,5.8735,5.9598,5.9977,6.0132,6.0393,6.0794,6.0393,6.0424,6.0824,6.1779,6.2398,6.2829,6.3814,6.4518,6.4888,6.4888,6.4888,6.4888,6.4888,6.5809,6.7238,6.7613,6.9834,7.2835,7.3035,7.3575,7.4196,7.4196,7.4196,7.4379,7.5572,7.6643,7.7907,8.0149,8.0814,8.0799,8.0576,8.056,8.0485,8.0259,8.0209,8.0209,8.0209,8.0209,8.0209,8.0209,8.0209,8.0209,8.0209,8.0335,8.0535,8.0808,8.0833,8.0956,8.1345,8.1514,8.1657,8.1787,8.181,8.181,8.181,8.195,8.2094,8.2263,8.2496,8.2712,8.2917,8.3428,8.3707,8.3545,8.5018,8.5984,8.6294,8.6294,8.6294,8.6294,8.6444,8.6518,8.6518,8.6518,8.6518,4.3023,4.3336,4.3389,4.3075,4.2838,4.2727,4.2736,4.2694,4.2809,4.3421,4.4011,0.0,0.0,0.0,4.5076,4.5573,0.0,4.6059,4.7035,4.7138,4.8375,5.1684,5.1709,5.1583,5.1869,5.2759,5.3533,5.3892,5.469,5.538,5.6028,5.7527,5.8598,5.9119,5.9297,5.9855,6.0794,6.0116,6.0116,6.0824,6.1471,6.2148,6.2798,6.3475,6.4183,6.4888,6.4888,6.4888,6.4888,6.4888,6.5606,6.6739,6.7153,6.8814,7.1154,7.2364,7.3376,7.4196,7.4196,7.4247,7.463,7.6575,7.7254,7.7674,7.9609,8.0209,8.0209,8.0209,8.0209,8.0209,8.0209,8.0209,8.0209,8.0209,8.0209,8.0209,8.0209,8.0209,8.0234,8.0309,8.0485,8.0709,8.1054,8.1102,8.12,8.1466,8.1691,8.181,8.181,8.181,8.1879,8.2086,8.2401,8.2765,8.3166,8.3537,8.3797,8.3993,8.4777,8.4949,8.4338,8.5604,8.6294,8.6294,8.6369,8.6394,8.6394,8.6899,8.7022,8.6814,8.7022,8.6987,4.378,4.4251,4.4381,4.3284,4.2971,4.2838,4.2259,4.257,4.2986,4.2939,4.3776,4.419,4.313,4.3764,4.4119,0.0,4.455,0.0,0.0,4.632,4.771,4.9069,5.0977,5.1869,5.1116,5.1196,5.1828,5.3139,5.2067,5.236,5.4575,5.5329,5.6546,5.8359,5.8446,5.9185,6.0794,6.0116,6.0116,6.0824,6.1471,6.2148,6.2798,6.3475,6.4183,6.4888,6.4888,6.4888,6.4888,6.4888,6.5081,6.5491,6.6806,6.801,6.9227,7.1284,7.2945,7.4196,7.4196,7.4347,7.4889,7.6626,7.738,7.7899,7.966,8.0209,8.0209,8.0209,8.0209,8.0209,8.0209,8.0209,8.0209,8.0209,8.0209,8.0209,8.0209,8.0209,8.0284,8.056,8.061,8.0783,8.1297,8.1369,8.1466,8.1763,8.181,8.181,8.181,8.181,8.2086,8.2811,8.289,8.3166,8.389,8.3993,8.3993,8.3993,8.4777,8.519,8.5156,8.588,8.6294,8.6294,8.6543,8.6691,8.6691,8.769,8.7778,8.7092,8.7813,8.7778,4.4795,4.5454,4.5611,4.4407,4.3859,4.3389,4.2618,4.2712,4.2938,4.2692,4.363,4.4166,4.3079,4.3451,4.3638,0.0,0.0,4.3801,0.0,4.4465,4.5195,4.556,4.7491,4.8727,4.8506,4.8933,4.9785,5.1122,5.1206,5.1732,5.296,5.4663,5.6104,5.7183,5.7567,5.8649,6.0534,5.9609,5.9686,6.0794,6.104,6.1717,6.2798,6.3014,6.3752,6.4888,6.4888,6.4888,6.4888,6.4888,6.5269,6.5911,6.6904,6.8441,7.0232,7.154,7.2614,7.3541,7.403,7.4705,7.5547,7.6793,7.7716,7.8564,7.9829,8.0209,8.0209,8.0209,8.0209,8.0209,8.0209,8.0209,8.0209,8.0209,8.0209,8.0209,8.0209,8.036,8.051,8.0585,8.0882,8.12,8.1369,8.195,8.2439,8.2511,8.2535,8.2535,8.2535,8.2535,8.2638,8.288,8.3811,8.4535,8.4777,8.5259,8.5328,8.4811,8.5501,8.5708,8.5225,8.6089,8.6568,8.6568,8.6814,8.7204,8.769,8.8238,8.8603,8.8907,8.9846,8.9227,4.5083,4.5872,4.6238,4.5269,4.4774,4.4279,4.3413,4.3565,4.382,4.3485,4.406,4.4412,4.3952,4.3503,4.3218,0.0,0.0,4.2873,0.0,4.3471,4.3657,4.3852,4.5779,4.7137,4.712,4.7802,4.8689,4.9807,5.0062,5.0571,5.1415,5.3344,5.4964,5.6209,5.6566,5.7816,6.0036,5.9144,5.9271,6.0455,6.0701,6.1379,6.2429,6.2675,6.3441,6.4518,6.4795,6.4888,6.4915,6.5187,6.57,6.6332,6.7375,6.8712,7.0252,7.154,7.2647,7.3541,7.403,7.4747,7.5606,7.6517,7.7556,7.8622,7.955,8.0006,8.0242,8.0513,8.0412,8.0242,8.0513,8.0412,8.0209,8.0209,8.0209,8.0209,8.0209,8.041,8.0703,8.1074,8.1232,8.1483,8.1953,8.2421,8.2778,8.2887,8.2914,8.2983,8.3259,8.3087,8.3121,8.3673,8.4604,8.5294,8.557,8.6018,8.6087,8.5639,8.6053,8.6137,8.5753,8.6375,8.6983,8.7637,8.736,8.7749,8.8785,8.9063,8.9289,8.9558,9.0719,9.0298]}]]